     2.10           OBSERVATION DATA    G (GPS)             RINEX VERSION / TYPE
teqc 2005May6 SOPAC 20050707 00:14:41UTC                    PGM / RUN BY / DATE
Linux 2.4.20-8|Pentium IV|gcc|Linux|486/DX+                 COMMENT
BIT 2 OF LLI FLAGS DATA COLLECTED UNDER A/S CONDITION       COMMENT
HPGN D CA 03 KN                                             MARKER NAME
03KN                                                        MARKER NUMBER
John Lehti                                                  OBSERVER / AGENCY
0220308800 TRIMBLE 5700 2.01                                REC # / TYPE / VERS
12467714 TRM41249.00 NONE                                   ANT # / TYPE
 -2505400.0000 -4236115.0000  4045864.0000                  APPROX POSITION XYZ
        1.8000        0.0000        0.0000                  ANTENNA: DELTA H/E/N
     1     1                                                WAVELENGTH FACT L1/2
     6    L1    L2    C1    P2    P1    D1                  # / TYPES OF OBSERV
    15.0000                                                 INTERVAL
Northern California Height Modernization 2004               COMMENT
                                                            COMMENT
SOPAC - Scripps Orbit and Permanent Array Center            COMMENT
IGPP - Institute of Geophysics and Planetary Physics        COMMENT
SIO - Scripps Institution of Oceanography                   COMMENT
UCSD - University of California, San Diego                  COMMENT
                                                            COMMENT
email: archive@gpsmail.ucsd.edu                             COMMENT
ftp://garner.ucsd.edu                                       COMMENT
http://sopac.ucsd.edu                                       COMMENT
                                                            COMMENT
                                                            COMMENT
Approximate Lat, Lon : 39.611, -120.602                     COMMENT
                                                            COMMENT
SNR is mapped to RINEX snr flag value [0-9]                 COMMENT
L1 & L2: 2-19 dBHz = 1, 20-27 dBHz = 2, 28-31 dBHz = 3      COMMENT
32-35 dBHz = 4, 36-38 dBHz = 5, 39-41 dBHz = 6              COMMENT
42-44 dBHz = 7, 45-48 dBHz = 8, >= 49 dBHz = 9              COMMENT
  2004     9     1    14    39    0.0000000     GPS         TIME OF FIRST OBS
                                                            END OF HEADER
 04  9  1 14 39  0.0000000  0  6G 3G14G15G18G19G22
    128245.08658     73936.73053  23344869.8914   23344868.1564
     21514.74659
      9014.27757                  20235063.7344   20235060.6994

    112450.76659     63664.99656  20960344.2194   20960342.2034

    121118.94157     69232.97752  23617725.6484   23617722.2194
     50497.88358
     26069.73055                  22301169.2734   22301165.2424

     77817.70759     42472.12956  21409469.8984   21409465.5984

 04  9  1 14 39 15.0000000  0  6G 3G14G15G18G19G22
    174458.37548    109947.05143  23353663.7894   23353662.6414
     -3080.8864
     29276.67649     15062.52047  20236540.7194   20236537.6374
      -517.4624
    152693.95349     95023.29746  20968001.8524   20967999.8754
     -2682.8794
    164508.28946    103042.84042  23625981.9534   23625979.4884
     -2892.6234
     68583.92648     40162.72345  22304611.0784   22304607.0394
     -1205.7364
    105443.94549     63999.05546  21414727.4144   21414722.9804
     -1841.7494
 04  9  1 14 39 30.0000000  0  7G 3G11G14G15G18G19G22
    220746.92648    146016.02043  23362471.7814   23362470.6484
     -3085.9034
   -105308.34014                  23882380.969

     37188.74649     21227.76247  20238046.6094   20238043.5474
      -527.4714
    193071.27049    126486.11746  20975686.0004   20975683.9614
     -2691.8214
    207944.98447    136889.58242  23634247.3754   23634244.9104
     -2895.7804
     86830.45348     54380.78945  22308083.0314   22308078.7624
     -1216.4354
    133139.97349     85580.35246  21419997.7194   21419993.1134
     -1846.4024
 04  9  1 14 39 45.0000000  0  7G 3G11G14G15G18G19G22
    267120.29748    182151.07442  23371296.9534   23371294.3404
     -3091.5584
   -147877.625 4                  23874280.539
      2837.952
     45260.77049     27517.64547  20239582.5314   20239579.4064
      -538.1354
    233592.59449    158061.15646  20983396.7344   20983394.9734
     -2701.4224
    251438.96147    170780.94142  23642523.3524   23642520.8914
     -2899.5984
    105247.37948     68731.61745  22311587.6644   22311583.0634
     -1227.7954
    160915.70349    107223.75446  21425283.0944   21425278.5824
     -1851.7154
 04  9  1 14 40  0.0000000  0  7G 3G11G14G15G18G19G22
    313585.40648    218357.63343  23380138.7344   23380136.5164
     -3097.6744
   -190362.621 5                  23866196.133
      2832.333
     53499.76249     33937.62946  20241150.8054   20241147.2274
      -549.2664
    274265.00049    189753.90646  20991136.3134   20991134.3954
     -2711.4944
    294997.42246    204722.58242  23650813.4224   23650809.5864
     -2903.8974
    123841.62948     83220.62144  22315125.2274   22315120.4494
     -1239.6174
    188778.23449    128934.80546  21430585.2734   21430580.9534
     -1857.5024
 04  9  1 14 40 15.0000000  0  7G 3G11G14G15G18G19G22
    360144.91048    254637.71943  23388998.7504   23388996.8874
     -3103.9674
   -232760.012 4                  23858127.328
      2826.493
     61908.73849     40490.07047  20242750.3834   20242747.1414
      -560.5984
    315091.19149    221566.50846  20998905.5234   20998903.4654
     -2721.7464
    338623.32447    238716.77042  23659115.3134   23659111.9774
     -2908.3934
    142616.00449     97849.99645  22318698.2734   22318693.8594
     -1251.6254
    216730.47749    150715.76246  21435904.5084   21435900.2114
     -1863.4834
 04  9  1 14 40 30.0000000  0  7G 3G11G14G15G18G19G22
    406796.41448    290989.52343  23397876.4774   23397874.2774
     -3110.1004
   -275071.348 4                  23850076.180
      2820.756
     70485.73049     47173.43047  20244382.9144   20244379.3834
      -571.7994
    356069.20749    253497.39846  21006703.4304   21006701.3164
     -2731.8684
    382314.71546    272761.93842  23667428.8284   23667427.0944
     -2912.7594
    161568.46548    112618.10545  22322304.6334   22322300.7384
     -1263.4974
    244770.60549    172565.19546  21441240.2114   21441236.1684
     -1869.3424
 04  9  1 14 40 45.0000000  0  7G 3G11G14G15G18G19G22
    453537.45348    327411.07843  23406771.0944   23406769.3484
     -3116.0694
   -317298.652 4                  23842040.219
      2815.154
     79228.18049     53985.72747  20246046.6334   20246043.1564
      -582.8304
    397196.60549    285544.69946  21014529.5864   21014527.8834
     -2741.8274
    426069.46546    306856.56342  23675755.0864   23675752.5904
     -2916.9834
    180696.57048    127523.11345  22325945.0944   22325940.9924
     -1275.2074
    272896.38749    194481.35546  21446592.4224   21446587.9104
     -1875.0524
 04  9  1 14 41  0.0000000  0  7G 3G11G14G15G18G19G22
    500365.05148    363900.07843  23415682.4844   23415680.6564
     -3121.8404
   -359444.109 4                  23834020.313
      2809.697
     88133.44549     60924.88747  20247741.0864   20247737.9264
      -593.6844
    438470.69949    317706.32046  21022383.2664   21022381.5824
     -2751.6064
    469884.88347    340998.42242  23684093.1644   23684090.8164
     -2921.0284
    199997.64848    142562.86345  22329618.3594   22329614.3404
     -1286.7394
    301105.21549    216462.25846  21451960.3134   21451955.9964
     -1880.5894
 04  9  1 14 41 15.0000000  0  7G 3G11G14G15G18G19G22
    547276.23848    400454.23443  23424608.7274   23424607.2304
     -3127.4124
   -401510.152 4                  23826016.172
      2804.403
     97198.76649     67988.76647  20249466.1414   20249463.1684
      -604.3554
    479888.61749    349979.98846  21030265.5164   21030263.5474
     -2761.1954
    513758.28946    375185.44542  23692442.0164   23692440.3014
     -2924.8944
    219468.75048    157735.14845  22333322.7424   22333319.5004
     -1298.0734
    329394.37149    238505.73446  21457343.7424   21457339.3874
     -1885.9444
 04  9  1 14 41 30.0000000  0  7G 3G11G14G15G18G19G22
    594267.58248    437070.80943  23433550.7344   23433550.1054
     -3132.7564
   -443499.512 5                  23818025.617
      2799.291
    106420.86749     75174.81647  20251220.8984   20251218.3284
      -614.8074
    521447.30949    382363.36746  21038173.6094   21038172.0234
     -2770.5794
    557686.62946    409415.27742  23700801.1564   23700798.5944
     -2928.5564
    239106.77048    173037.47744  22337060.0394   22337055.3634
     -1309.2014
    357760.77749    260609.41046  21462741.5554   21462737.5124
     -1891.0944
 04  9  1 14 41 45.0000000  0  7G 3G11G14G15G18G19G22
    641334.76248    473746.47743  23442507.6484   23442506.5784
     -3137.8124
   -485415.840 5                  23810048.609
      2794.422
    115795.68849     82479.85547  20253005.1414   20253002.0124
      -624.9884
    563142.74649    414853.29346  21046108.0944   21046105.9144
     -2779.6964
    601665.87547    443684.78142  23709169.6564   23709167.1844
     -2931.9504
    258907.50448    188466.60944  22340828.6804   22340823.8164
     -1320.0494
    386200.47749    282770.21146  21468153.6254   21468149.4844
     -1895.9804
 04  9  1 14 42  0.0000000  0  7G 3G11G14G15G18G19G22
    688474.50047    510478.71543  23451478.2894   23451477.3634
     -3142.6494
   -527261.918 5                  23802085.914
      2789.739
    125320.35549     89901.66447  20254817.6804   20254814.5274
      -634.9784
    604971.84849    447447.36346  21054067.9774   21054066.1844
     -2788.6074
    645693.18446    477991.70742  23717548.4304   23717546.1054
     -2935.1544
    278868.00848    204020.21144  22344626.4614   22344621.5634
     -1330.7004
    414710.62949    304985.89846  21473578.6334   21473574.3954
     -1900.6774
 04  9  1 14 42 15.0000000  0  7G 3G11G14G15G18G19G22
    735684.04747    547265.33643  23460461.2734   23460461.1134
     -3147.3034
   -569039.781 4                  23794135.445
      2785.191
    134992.15649     97438.13347  20256658.0634   20256654.6994
      -644.7874
    646931.93849    480143.52746  21062052.5164   21062050.7894
     -2797.3394
    689766.11346    512334.19942  23725935.5164   23725933.1524
     -2938.1954
    298985.47348    219696.14544  22348454.7974   22348449.9884
     -1341.1644
    443288.61749    327254.44146  21479017.1174   21479012.2704
     -1905.1994
 04  9  1 14 42 30.0000000  0  7G 3G11G14G15G18G19G22
    782961.85947    584105.12543  23469458.2814   23469458.2664
     -3151.8544
   -610750.289 5                  23786198.836
      2780.701
    144809.77349    105088.21147  20258526.4384   20258523.1094
      -654.5084
    689021.64549    512940.67646  21070061.9454   21070060.0514
     -2805.9804
    733883.48046    546711.32842  23734330.3204   23734328.3834
     -2941.1584
    319258.60248    235493.36344  22352311.9534   22352307.9224
     -1351.5424
    471933.28949    349574.94146  21484468.3444   21484463.3524
     -1909.6454
 04  9  1 14 42 45.0000000  0  7G 3G11G14G15G18G19G22
    830305.78947    620996.46543  23478468.2424   23478467.2734
     -3156.2624
   -652395.016 4                  23778273.055
      2776.315
    154771.27749    112850.41847  20260421.8984   20260418.2194
      -664.1004
    731239.10249    545837.37146  21078096.0004   21078094.0314
     -2814.4974
    778043.41446    581121.59442  23742733.6414   23742731.6604
     -2943.9964
    339685.35548    251410.29745  22356199.9694   22356195.1294
     -1361.7844
    500642.84449    371946.01246  21489931.3284   21489927.0824
     -1913.9704
 04  9  1 14 43  0.0000000  0  7G 3G11G14G15G18G19G22
    877714.13748    657938.01643  23487488.9614   23487488.1524
     -3160.5574
   -693975.047 4                  23770361.367
      2772.002
    164875.30149    120723.68046  20262344.6564   20262341.5084
      -673.6024
    773582.88749    578832.51246  21086153.5164   21086151.9264
     -2822.9194
    822244.42246    615563.92642  23751144.2584   23751142.5554
     -2946.7344
    360264.25448    267445.78945  22360115.7504   22360111.3014
     -1371.9274
    529415.93449    394366.59446  21495406.3914   21495402.1724
     -1918.2064
 04  9  1 14 43 15.0000000  0  7G 3G11G14G15G18G19G22
    925184.93847    694928.23042  23496522.5394   23496521.4774
     -3164.7204
   -735491.633 5                  23762461.859
      2767.772
    175120.06649    128706.60547  20264294.1564   20264290.9024
      -682.9844
    816051.23049    611924.69546  21094235.0314   21094233.3914
     -2831.2234
    866485.12546    650037.15642  23759563.3754   23759560.7854
     -2949.3804
    380993.41448    283598.35245  22364060.3914   22364056.4654
     -1381.9444
    558250.95349    416835.42246  21500894.0164   21500889.2734
     -1922.3354
 04  9  1 14 43 30.0000000  0  7G 3G11G14G15G18G19G22
    972717.62947    731966.62942  23505567.8284   23505566.3284
     -3168.8464
   -776944.789 5                  23754573.344
      2763.544
    185504.95749    136798.71547  20266270.4304   20266267.0704
      -692.3264
    858643.53549    645113.47346  21102340.0004   21102338.2034
     -2839.4874
    910765.15246    684541.05542  23767989.9454   23767987.4344
     -2952.0024
    401872.55548    299867.78145  22368033.8674   22368030.1644
     -1391.9434
    587147.61349    439352.28946  21506392.6334   21506388.2074
     -1926.4444
 04  9  1 14 43 45.0000000  0  7G 3G11G14G15G18G19G22
   1020309.49247    769051.19142  23514624.3834   23514623.1414
     -3172.7914
   -818336.363 5                  23746696.664
      2759.438
    196027.87549    144998.37947  20268272.7504   20268269.5234
      -701.5284
    901357.61349    678397.15646  21110467.9774   21110466.7854
     -2847.6054
    955082.25846    719073.79742  23776423.2734   23776421.0514
     -2954.4744
    422899.17648    316252.14545  22372035.0864   22372030.9494
     -1401.7754
    616103.73449    461915.47746  21511902.8984   21511898.4614
     -1930.4084
 04  9  1 14 44  0.0000000  0  7G 3G11G14G15G18G19G22
   1067958.80947    806180.48843  23523692.4774   23523690.5984
     -3176.6214
   -859667.516 5                  23738831.367
      2755.410
    206687.19549    153304.34047  20270301.0784   20270297.8634
      -710.6214
    944191.80549    711774.43046  21118619.0864   21118617.7814
     -2855.6134
    999435.15246    753634.44542  23784863.6024   23784860.9654
     -2956.8604
    444071.56648    332750.09845  22376063.9844   22376059.8754
     -1411.4934
    645117.79349    484523.81646  21517424.2274   21517419.6804
     -1934.2714
 04  9  1 14 44 15.0000000  0  7G 3G11G14G15G18G19G22
   1115665.73447    843354.66442  23532770.3444   23532769.6644
     -3180.4624
   -900937.496 5                  23730977.664
      2751.332
    217483.28149    161716.86747  20272355.9304   20272352.0664
      -719.7394
    987146.48849    745245.59046  21126793.3674   21126792.0164
     -2863.6464
   1043824.17246    788223.27742  23793311.0084   23793308.1334
     -2959.2684
    465390.21948    349362.01645  22380120.2894   22380117.3134
     -1421.2434
    674190.25849    507177.67246  21522956.3674   21522952.0594
     -1938.1644
 04  9  1 14 44 30.0000000  0  7G 3G11G14G15G18G19G22
   1163427.88347    880571.87142  23541858.6024   23541858.0124
     -3184.1434
   -942147.977 5                  23723136.313
      2747.365
    228413.95349    170234.26247  20274435.7734   20274432.3324
      -728.7114
   1030219.51649    778808.95746  21134990.0864   21134988.3324
     -2871.5354
   1088247.23046    822838.59842  23801764.2584   23801762.4264
     -2961.5374
    486852.88349    366086.15245  22384205.1414   22384201.4804
     -1430.8444
    703319.14549    529875.46946  21528499.3674   21528495.0904
     -1941.9264
 04  9  1 14 44 45.0000000  0  7G 3G11G14G15G18G19G22
   1211243.32047    917830.60542  23550958.2344   23550956.5704
     -3187.6964
   -983300.113 4                  23715304.281
      2743.476
    239477.52349    178855.22747  20276541.1094   20276537.7734
      -737.5714
   1073409.22749    812463.24246  21143208.6954   21143207.2854
     -2879.3144
   1132702.87546    857479.31642  23810222.6884   23810221.3634
     -2963.7104
    508457.75848    382921.09045  22388315.5234   22388312.6914
     -1440.3254
    732502.89549    552616.05546  21534053.1024   21534047.7624
     -1945.5834
 04  9  1 14 45  0.0000000  0  7G 3G11G14G15G18G19G22
   1259112.38747    955131.15242  23560067.5164   23560066.1914
     -3191.2714
  -1024393.082 4                  23707484.648
      2739.531
    250674.50849    187580.14147  20278671.2974   20278668.1134
      -746.4664
   1116716.08249    846208.81646  21151449.8674   21151448.3014
     -2887.1244
   1177191.79346    892145.96142  23818690.3134   23818687.5354
     -2965.9284
    530205.34848    399867.23845  22392454.7424   22392451.3874
     -1449.8394
    761742.10949    575399.84846  21539616.8674   21539612.0354
     -1949.2814
 04  9  1 14 45 15.0000000  0  7G 3G11G14G15G18G19G22
   1307033.48047    992472.25442  23569186.0944   23569185.5274
     -3194.7404
  -1065427.879 3                  23699675.727
      2735.653
    262003.44549    196407.87547  20280827.4774   20280824.3754
      -755.2624
   1160138.55549    880044.48046  21159713.2034   21159711.3054
     -2894.8324
   1221712.68045    926837.54742  23827161.1414   23827159.8554
     -2968.0594
    552094.21548    416923.46145  22396619.5394   22396616.3794
     -1459.2584
    791035.47349    598225.82046  21545191.0394   21545186.3324
     -1952.8914
 04  9  1 14 45 30.0000000  0  6G 3G14G15G18G19G22
   1355005.06347   1029852.67642  23578314.2344   23578313.4964
     -3198.1054
    273463.01249    205337.40647  20283008.1564   20283004.7974
      -763.9714
   1203675.35249    913969.23846  21167997.6804   21167996.4734
     -2902.4534
   1266264.30546    961553.04342  23835638.9924   23835638.1254
     -2970.1084
    574122.81649    434088.59445  22400812.0314   22400808.1604
     -1468.5734
    820381.84049    621093.11746  21550775.5784   21550771.5664
     -1956.4244
 04  9  1 14 45 45.0000000  0  6G 3G14G15G18G19G22
   1403026.52047   1067271.94143  23587453.3914   23587452.4454
     -3201.4304
    285052.95349    214368.53147  20285213.8524   20285210.3754
      -772.6634
   1247326.17649    947982.83646  21176304.4064   21176302.8634
     -2910.0554
   1310846.37146    996292.27742  23844123.2974   23844121.5864
     -2972.1384
    596290.86348    451362.36745  22405030.1564   22405026.7274
     -1477.8704
    849781.03549    644001.56646  21556370.6334   21556365.6724
     -1959.9464
 04  9  1 14 46  0.0000000  0  6G 3G14G15G18G19G22
   1451097.02047   1104729.44942  23596600.1644   23596599.9844
     -3204.7004
    296772.47349    223500.60547  20287443.7114   20287440.7664
      -781.3014
   1291090.26649    982084.69146  21184632.1954   21184630.6564
     -2917.6064
   1355458.49244   1031054.94142  23852612.3284   23852610.5234
     -2974.1414
    618597.58248    468744.21944  22409275.0554   22409270.6804
     -1487.1154
    879232.42649    666950.68046  21561974.3914   21561970.0634
     -1963.4264
 04  9  1 14 46 15.0000000  0  6G 3G14G15G18G19G22
   1499215.78547   1142224.53942  23605756.9694   23605756.4924
     -3207.9184
    308621.17649    232733.36746  20289698.6414   20289695.3954
      -789.9144
   1334967.21148   1016274.49646  21192981.8204   21192980.4064
     -2925.1304
   1400100.18446   1065840.62542  23861107.4064   23861105.8404
     -2976.1134
    641042.46148    486233.71144  22413546.5864   22413541.6524
     -1496.3254
    908735.58648    689940.15646  21567588.9304   21567584.8594
     -1966.8774
 04  9  1 14 46 30.0000000  0  6G 3G14G15G18G19G22
   1547382.80148   1179757.27342  23614923.6564   23614922.5354
     -3211.1344
    320599.21949    242066.89547  20291978.0474   20291974.7234
      -798.5364
   1378957.27049   1050552.43846  21201353.0004   21201351.0204
     -2932.6714
   1444771.81346   1100649.63742  23869608.5784   23869606.6604
     -2978.1094
    663625.64148    503830.96145  22417843.8834   22417839.4144
     -1505.5454
    938291.12949    712970.43046  21573213.2194   21573208.8794
     -1970.3704
 04  9  1 14 46 45.0000000  0  6G 3G14G15G18G19G22
   1595595.77048   1217325.78543  23624098.2894   23624096.7304
     -3214.1984
    332704.44549    251499.53147  20294281.4694   20294278.1294
      -807.0154
   1423058.07448   1084916.68045  21209744.6644   21209742.8404
     -2940.0544
   1489471.37147   1135480.39842  23878114.9224   23878112.8524
     -2979.9714
    686344.86348    521534.23844  22422166.6174   22422162.5474
     -1514.6154
    967896.86349    736039.81646  21578846.8054   21578842.9804
     -1973.7164
 04  9  1 14 47  0.0000000  0  6G 3G14G15G18G19G22
   1643854.87947   1254930.26243  23633281.5784   23633279.7424
     -3217.2744
    344937.40249    261031.70346  20296609.8524   20296605.8364
      -815.5304
   1467270.21948   1119367.67246  21218158.4844   21218156.2624
     -2947.4764
   1534199.36747   1170333.34842  23886626.7734   23886624.6524
     -2981.8664
    709200.64549    539343.91844  22426516.8594   22426512.1054
     -1523.7194
    997553.44548    759148.83646  21584490.5234   21584486.0824
     -1977.1054
 04  9  1 14 47 15.0000000  0  6G 3G14G15G18G19G22
   1692159.27747   1292569.99243  23642473.2274   23642471.7624
     -3220.2934
    357297.31349    270662.78546  20298961.2664   20298957.9224
      -823.9944
   1511592.84848   1153904.77345  21226592.1174   21226590.4694
     -2954.8424
   1578955.23046   1205208.01642  23895142.9924   23895141.1334
     -2983.7244
    732192.03548    557259.27044  22430891.3134   22430887.3554
     -1532.7594
   1027260.19148    782296.93046  21590143.4064   21590139.1954
     -1980.4504
 04  9  1 14 47 30.0000000  0  6G 3G14G15G18G19G22
   1740506.26247   1330242.93842  23651673.5554   23651672.5634
     -3223.1324
    369781.65249    280390.84047  20301336.7584   20301333.6804
      -832.2894
   1556023.57848   1188526.08645  21235047.2734   21235045.1294
     -2962.0494
   1623736.79346   1240102.68842  23903664.2734   23903662.3134
     -2985.4374
    755316.62948    575278.41044  22435291.7114   22435287.5354
     -1541.6404
   1057014.72749    805482.26246  21595805.7274   21595801.4574
     -1983.6364
 04  9  1 14 47 45.0000000  0  6G 3G14G15G18G19G22
   1788896.62948   1367949.69143  23660882.1174   23660880.6484
     -3226.0244
    382391.32849    290216.56347  20303736.4064   20303733.1294
      -840.6454
   1600563.27348   1223232.30945  21243523.2734   21243521.4884
     -2969.3134
   1668545.00846   1275018.15242  23912191.5394   23912189.1214
     -2987.2144
    778575.18048    593401.94144  22439717.5944   22439713.1174
     -1550.5704
   1086818.18849    828705.71946  21601476.9774   21601472.8054
     -1986.8974
 04  9  1 14 48  0.0000000  0  6G 3G14G15G18G19G22
   1837330.99248   1405690.73443  23670099.1094   23670097.6524
     -3228.9584
    395127.30149    300140.69147  20306160.3364   20306156.8484
      -849.0654
   1645212.84848   1258024.15645  21252019.6644   21252017.7274
     -2976.6384
   1713380.91446   1309955.17642  23920722.9144   23920721.1604
     -2989.0604
    801968.64848    611630.61744  22444169.6724   22444165.3134
     -1559.5654
   1116671.65249    851968.13746  21607157.6884   21607153.9304
     -1990.2314
 04  9  1 14 48 15.0000000  0  6G 3G14G15G18G19G22
   1885807.63347   1443464.72343  23679323.6254   23679321.8444
     -3231.7764
    407988.07848    310162.07047  20308607.6094   20308604.1524
      -857.3854
   1689970.69549   1292900.37146  21260536.7504   21260535.2234
     -2983.8574
   1758243.20346   1344912.77342  23929260.0004   23929257.4924
     -2990.8194
    825495.46148    629963.17244  22448646.7344   22448642.6454
     -1568.4544
   1146573.70349    875268.42646  21612848.0084   21612844.0004
     -1993.4704
 04  9  1 14 48 30.0000000  0  6G 3G14G15G18G19G22
   1934325.04348   1481270.44943  23688556.3284   23688554.8284
     -3234.4944
    420972.28549    320279.62547  20311078.4304   20311074.8984
      -865.6144
   1734835.47349   1327859.91046  21269074.0474   21269072.2774
     -2990.9854
   1803130.61346   1379889.93842  23937802.4224   23937799.3754
     -2992.4944
    849154.00448    648398.37944  22453148.4224   22453144.7304
     -1577.2364
   1176523.02349    898605.55146  21618547.0474   21618543.3404
     -1996.6214
 04  9  1 14 48 45.0000000  0  6G 3G14G15G18G19G22
   1982882.06648   1519107.07843  23697796.4224   23697795.1724
     -3237.1354
    434079.00849    330492.66047  20313572.6564   20313569.4734
      -873.7824
   1779806.46549   1362902.19946  21277631.8054   21277630.6174
     -2998.0664
   1848042.40647   1414886.07042  23946348.6174   23946346.6454
     -2994.1204
    872943.51648    666935.63744  22457675.7424   22457671.8754
     -1585.9674
   1206519.12149    921979.12146  21624255.4534   21624251.1174
     -1999.7404
 04  9  1 14 49  0.0000000  0  7G 3G11G14G15G18G19G22
   2031479.02347   1556974.78943  23707043.8284   23707043.1524
     -3239.7974
    -25726.03914                  23583846.945

    447308.71149    340801.50847  20316089.6414   20316086.5474
      -881.9804
   1824883.92649   1398027.47346  21286210.2194   21286208.7274
     -3005.1644
   1892979.10247   1449901.66042  23954899.8054   23954896.8134
     -2995.7804
    896864.26649    685575.16444  22462227.6024   22462223.8834
     -1594.7174
   1236562.32449    945389.39546  21629972.2584   21629968.1804
     -2002.8804
 04  9  1 14 49 15.0000000  0  7G 3G11G14G15G18G19G22
   2080115.38748   1594873.22743  23716299.7274   23716298.4614
     -3242.4244
    -65858.344 4                  23576206.703
      2675.487
    460661.10949    351205.97346  20318631.0164   20318627.8634
      -890.1604
   1870067.61749   1433235.53145  21294808.0784   21294806.9024
     -3012.2464
   1937940.61746   1484936.57442  23963455.5864   23963452.7424
     -2997.4344
    920916.00048    704316.75844  22466804.5474   22466800.2344
     -1603.4494
   1266652.60249    968836.35246  21635698.5704   21635694.1954
     -2006.0184
 04  9  1 14 49 30.0000000  0  7G 3G11G14G15G18G19G22
   2128790.86748   1632802.13343  23725561.7814   23725561.1644
     -3245.0324
   -105934.238 5                  23568580.766
      2671.726
    474136.10249    361705.95747  20321195.1414   20321191.8284
      -898.3334
   1915357.37149   1468526.21145  21303426.7894   21303425.1954
     -3019.3174
   1982926.96545   1519990.86742  23972016.0314   23972013.7464
     -2999.0904
    945098.56348    723160.28944  22471406.5474   22471401.5434
     -1612.1714
   1296789.98849    992320.00046  21641433.1174   21641429.0594
     -2009.1594
 04  9  1 14 49 45.0000000  0  7G 3G11G14G15G18G19G22
   2177503.74248   1670760.18043  23734832.1094   23734831.2934
     -3247.5254
   -145954.879 4                  23560964.414
      2668.043
    487732.12949    372300.25847  20323782.3054   20323778.5514
      -906.4024
   1960751.75849   1503898.45345  21312064.5234   21312063.4574
     -3026.2924
   2027936.95346   1555063.55942  23980581.3444   23980578.6454
     -3000.6664
    969410.38748    742104.54744  22476032.5084   22476028.0354
     -1620.7884
   1326973.10249   1015839.31346  21647177.2584   21647172.6764
     -2012.2084
 04  9  1 14 50  0.0000000  0  7G 3G11G14G15G18G19G22
   2226253.62148   1708747.07443  23744108.8284   23744108.1294
     -3249.9924
   -185919.914 4                  23553358.883
      2664.336
    501449.10249    382988.80547  20326392.5004   20326389.1094
      -914.4654
   2006250.57049   1539352.03145  21320723.0314   21320721.0084
     -3033.2544
   2072970.38746   1590154.53942  23989150.5084   23989148.5084
     -3002.2294
    993851.13348    761149.26644  22480683.5634   22480678.8834
     -1629.3834
   1357201.93449   1039394.22746  21652929.5394   21652925.2074
     -2015.2554
 04  9  1 14 50 15.0000000  0  7G 3G11G14G15G18G19G22
   2275041.14548   1746763.27043  23753392.6484   23753392.0554
     -3252.5024
   -225828.164 4                  23545765.117
      2660.550
    515287.91849    393772.29746  20329026.0004   20329023.0434
      -922.5884
   2051854.64848   1574887.63745  21329401.8524   21329399.1884
     -3040.2724
   2118028.27346   1625264.55942  23997725.0234   23997723.5594
     -3003.8594
   1018421.66848    780295.10944  22485359.1414   22485354.8914
     -1638.0364
   1387477.58248   1062985.63346  21658690.6724   21658686.5944
     -2018.3774
 04  9  1 14 50 30.0000000  0  7G 3G11G14G15G18G19G22
   2323865.54748   1784808.23843  23762683.7034   23762682.8014
     -3254.9604
   -265679.777 5                  23538181.773
      2656.774
    529247.78549    404650.09847  20331682.4534   20331679.2424
      -930.6584
   2097563.27048   1610504.73045  21338099.3054   21338097.7584
     -3047.2414
   2163110.28146   1660393.32042  24006304.1254   24006302.5274
     -3005.4674
   1043121.23048    799541.51644  22490059.3754   22490054.9884
     -1646.6374
   1417799.39148   1086613.00446  21664460.2664   21664456.9694
     -2021.4544
 04  9  1 14 50 45.0000000  0  8G 3G11G25G14G15G18G19G22
   2372724.74648   1822880.32843  23771981.5004   23771980.0314
     -3257.2804
   -305476.047 5                  23530608.625
      2653.085
   -188727.30555   -135604.98852  23659523.9064   23659520.2734

    543326.78549    415620.75047  20334361.6644   20334358.5204
      -938.6004
   2143374.59848   1646201.84045  21346817.0474   21346815.0274
     -3054.0894
   2208214.63745   1695539.57042  24014887.9454   24014884.6804
     -3006.9574
   1067947.97348    818886.99244  22494784.0234   22494779.6564
     -1655.1164
   1448165.78149   1110275.10246  21670239.4844   21670235.1374
     -2024.4264
 04  9  1 14 51  0.0000000  0  8G 3G11G25G14G15G18G19G22
   2421618.52048   1860979.33642  23781284.6024   23781284.4804
     -3259.5854
   -345216.594 5                  23523045.898
      2649.370
   -233308.13345   -170343.30142  23651040.9064   23651039.7034
      2972.0554
    557525.14149    426684.40247  20337063.1804   20337060.0744
      -946.5574
   2189288.60248   1681978.96945  21355553.5554   21355552.2234
     -3060.9344
   2253341.44145   1730703.26642  24023475.0084   24023472.4654
     -3008.4544
   1092901.76648    838331.49244  22499532.6334   22499528.9654
     -1663.5864
   1478576.88748   1133972.05946  21676026.5164   21676022.2894
     -2027.4074
 04  9  1 14 51 15.0000000  0  8G 3G11G25G14G15G18G19G22
   2470548.27348   1899106.35942  23790596.0864   23790595.4224
     -3261.9844
   -384899.402 6                  23515494.445
      2645.521
   -277861.14145   -205059.94141  23642561.8984   23642562.0594
      2970.2014
    571844.25049    437842.14547  20339788.3984   20339785.0554
      -954.6074
   2235306.89848   1717837.34445  21364310.8594   21364309.6454
     -3067.8864
   2298492.21945   1765885.66442  24032066.7424   24032064.4384
     -3010.0524
   1117984.07448    857876.13744  22504305.5004   22504301.1954
     -1672.1544
   1509034.40248   1157705.17646  21681822.2424   21681817.8204
     -2030.5014
 04  9  1 14 51 30.0000000  0  8G 3G11G25G14G15G18G19G22
   2519511.65648   1937259.61342  23799914.3444   23799912.5744
     -3264.2264
   -424526.168 6                  23507954.906
      2641.784
   -322387.95745   -239756.13742  23634088.8054   23634088.5944
      2968.4544
    586281.88748    449092.25447  20342535.2504   20342532.2814
      -962.5094
   2281427.25448   1753775.25845  21373087.0234   21373085.4654
     -3074.6904
   2343665.07045   1801085.25842  24040662.6564   24040660.4964
     -3011.5234
   1143192.62548    877519.15244  22509102.8054   22509098.4694
     -1680.5704
   1539536.20348   1181472.79346  21687626.4774   21687622.4414
     -2033.4534
 04  9  1 14 51 45.0000000  0  8G 3G11G25G14G15G18G19G22
   2568508.75448   1975439.15242  23809237.6644   23809236.2194
     -3266.4734
   -464096.203 6                  23500424.281
      2638.002
   -366887.88745   -274431.41042  23625621.3284   23625620.0594
      2966.6624
    600838.44948    460435.01647  20345305.5474   20345302.8674
      -970.4374
   2327649.91449   1789792.87945  21381883.1724   21381881.7114
     -3081.5114
   2388860.43444   1836302.35541  24049263.0784   24049261.2074
     -3013.0244
   1168527.63748    897260.67644  22513923.7114   22513919.2624
     -1689.0014
   1570082.75449   1205275.28945  21693439.3984   21693434.8914
     -2036.4374
 04  9  1 14 52  0.0000000  0  8G 3G11G25G14G15G18G19G22
   2617539.07048   2013644.57042  23818567.8914   23818566.4304
     -3268.6884
   -503609.320 6                  23492905.211
      2634.208
   -411360.50846   -309085.35542  23617158.0164   23617157.4384
      2964.8414
    615513.61348    471870.21147  20348097.9454   20348094.9964
      -978.3444
   2373974.60249   1825889.99245  21390699.2344   21390696.5904
     -3088.3124
   2434078.16045   1871536.87141  24057868.2344   24057865.9104
     -3014.5154
   1193988.70349    917100.46144  22518769.3054   22518764.3634
     -1697.4044
   1600673.91049   1229112.54346  21699260.1334   21699256.2114
     -2039.4104
 04  9  1 14 52 15.0000000  0  8G 3G11G25G14G15G18G19G22
   2666602.10547   2051875.48442  23827904.4454   23827903.1954
     -3270.8694
   -543065.187 6                  23485397.758
      2630.391
   -455805.62146   -343717.86342  23608700.3524   23608699.3754
      2963.0084
    630307.13748    483397.62147  20350913.5084   20350910.2704
      -986.2354
   2420401.01248   1862066.42245  21399533.0314   21399531.5944
     -3095.0944
   2479318.10545   1906788.75442  24066476.7894   24066474.3634
     -3015.9964
   1219575.64848    937038.30544  22523638.1414   22523633.0664
     -1705.7964
   1631309.58648   1252984.48846  21705090.0634   21705085.7894
     -2042.3784
 04  9  1 14 52 30.0000000  0  8G 3G11G25G14G15G18G19G22
   2715697.13347   2090131.31342  23837247.1954   23837245.7114
     -3273.0024
   -582464.043 6                  23477899.922
      2626.590
   -500223.20346   -378328.95342  23600248.0704   23600246.5474
      2961.1724
    645218.52348    495016.87947  20353751.0234   20353747.9414
      -994.0924
   2466928.68048   1898321.71145  21408387.6024   21408385.4224
     -3101.8454
   2524579.87944   1942057.65241  24075088.8984   24075087.2544
     -3017.4524
   1245287.90249    957073.82444  22528530.7814   22528527.1604
     -1714.1504
   1661989.45349   1276890.85946  21710928.8134   21710923.8634
     -2045.3244
 04  9  1 14 52 45.0000000  0  8G 3G11G25G14G15G18G19G22
   2764823.87547   2128411.86342  23846595.4774   23846594.1214
     -3275.1164
   -621805.598 7                  23470414.125
      2622.770
   -544612.98046   -412918.38342  23591800.8054   23591799.1524
      2959.3184
    660247.45748    506727.73447  20356610.8984   20356608.2584
     -1001.9294
   2513557.32848   1934655.69945  21417260.3134   21417258.6054
     -3108.5774
   2569863.65245   1977343.61341  24083706.8204   24083704.4304
     -3018.9184
   1271125.08248    977206.67644  22533447.2274   22533443.9344
     -1722.4794
   1692713.48049   1300831.64146  21716775.4774   21716770.4774
     -2048.2684
 04  9  1 14 53  0.0000000  0  8G 3G11G25G14G15G18G19G22
   2813981.23847   2166716.25042  23855949.7274   23855947.7854
     -3277.1584
   -661090.254 6                  23462936.148
      2618.977
   -588975.35546   -447486.46542  23583359.0944   23583357.4694
      2957.4924
    675393.17248    518529.59046  20359492.9774   20359489.9184
     -1009.7144
   2560286.18049   1971067.75445  21426153.0084   21426151.0664
     -3115.2574
   2615168.64845   2012646.20741  24092327.7734   24092326.2074
     -3020.3334
   1297086.41048    997436.25844  22538386.7814   22538383.6024
     -1730.7554
   1723480.89848   1324806.25846  21722630.4924   21722625.4774
     -2051.1614
 04  9  1 14 53 15.0000000  0  8G 3G11G25G14G15G18G19G22
   2863170.26246   2205045.34042  23865310.2274   23865309.0044
     -3279.2684
   -700316.03147  -1389707.35251  23455473.5474   23455471.5044
      2615.0524
   -633308.42646   -482031.69942  23574921.8594   23574920.5984
      2955.5384
    690656.92248    530423.41047  20362397.8524   20362394.1844
     -1017.5834
   2607116.46149   2007558.87145  21435064.1954   21435062.6454
     -3122.0194
   2660496.27345   2047966.39542  24100953.8594   24100952.0784
     -3021.8424
   1323172.90648   1017763.35944  22543351.3834   22543347.7274
     -1739.1004
   1754293.16449   1348815.80546  21728493.6414   21728488.7274
     -2054.1514
 04  9  1 14 53 30.0000000  0  8G 3G11G25G14G15G18G19G22
   2912390.10947   2243398.44542  23874674.8914   23874675.0004
     -3281.3234
   -739483.25447  -1420227.27741  23448019.5944   23448018.0514
      2611.1484
   -677612.53146   -516554.35242  23566491.2274   23566489.8954
      2953.6074
    706037.97348    542408.64547  20365324.5474   20365321.3204
     -1025.4034
   2654047.37949   2044128.35945  21443995.1724   21443993.4574
     -3128.7284
   2705846.10546   2083303.94542  24109584.1644   24109581.8714
     -3023.3224
   1349383.82448   1038187.43444  22548338.9844   22548335.6804
     -1747.3954
   1785149.71149   1372859.85546  21734365.0704   21734360.4384
     -2057.1034
 04  9  1 14 53 45.0000000  0  8G 3G11G25G14G15G18G19G22
   2961640.15247   2281775.04742  23884048.1804   23884047.2934
     -3283.3364
   -778591.95347  -1450701.62941  23440577.3914   23440574.8444
      2607.2474
   -721887.36746   -551054.21143  23558066.8594   23558065.2704
      2951.6564
    721535.91848    554484.96947  20368273.9144   20368270.6564
     -1033.1964
   2701078.46949   2080775.94945  21452944.8444   21452943.1484
     -3135.4064
   2751217.79345   2118658.41042  24118217.5394   24118216.5634
     -3024.7794
   1375718.73848   1058708.12544  22553351.0634   22553346.6334
     -1755.6614
   1816050.31649   1396938.24246  21740245.5234   21740241.0124
     -2060.0404
 04  9  1 14 54  0.0000000  0  8G 3G11G25G14G15G18G19G22
   3010920.27747   2320175.10942  23893425.1804   23893425.2234
     -3285.3424
   -817641.69947  -1481129.96141  23433146.2034   23433143.6174
      2603.3164
   -766132.39546   -585530.84042  23549647.0704   23549645.5824
      2949.6684
    737150.91048    566652.48447  20371244.8834   20371241.9534
     -1040.9994
   2748209.80949   2117501.63745  21461913.4924   21461911.7154
     -3142.0894
   2796611.37946   2154030.01642  24126856.3834   24126854.6644
     -3026.2394
   1402177.62548   1079325.41444  22558385.9454   22558382.2704
     -1763.9264
   1846995.35949   1421051.23846  21746133.7114   21746129.8444
     -2063.0034
 04  9  1 14 54 15.0000000  0  8G 3G11G25G14G15G18G19G22
   3060228.53147   2358597.07842  23902809.4384   23902807.9384
     -3287.2174
   -856633.73847  -1511513.39841  23425726.5944   23425723.1024
      2599.4694
   -810348.78946   -619985.17642  23541232.8444   23541231.3874
      2947.7604
    752881.09448    578909.76647  20374238.4384   20374235.5554
     -1048.6794
   2795439.66049   2154304.08645  21470901.2034   21470899.2304
     -3148.6574
   2842025.30146   2189417.44942  24135497.9924   24135496.0204
     -3027.5954
   1428758.61748   1100037.87144  22563444.6414   22563440.1414
     -1772.0664
   1877983.03949   1445197.46946  21752030.7664   21752026.3444
     -2065.8454
 04  9  1 14 54 30.0000000  0  8G 3G11G25G14G15G18G19G22
   3109565.60947   2397041.53942  23912197.1414   23912196.5704
     -3289.1394
   -895566.81247  -1541850.89842  23418318.3364   23418314.4064
      2595.5384
   -854535.17646   -654416.08642  23532824.2194   23532823.1804
      2945.7594
    768727.21548    591257.39146  20377253.6804   20377250.9384
     -1056.4084
   2842768.75849   2191183.88745  21479907.4774   21479905.6174
     -3155.2734
   2887460.73045   2224821.62942  24144143.9224   24144142.1214
     -3029.0294
   1455462.40248   1120845.98844  22568525.4844   22568520.6994
     -1780.2524
   1909014.45349   1469377.78146  21757935.6414   21757931.3524
     -2068.7614
 04  9  1 14 54 45.0000000  0  8G 3G11G25G14G15G18G19G22
   3158931.75047   2435508.62142  23921590.7734   23921590.7704
     -3291.0764
   -934439.78147  -1572141.54342  23410920.7664   23410916.5554
      2591.5314
   -898690.54746   -688822.85942  23524421.6804   23524421.5314
      2943.6914
    784689.92248    603695.85547  20380291.4144   20380288.7504
     -1064.1804
   2890197.78149   2228141.52345  21488933.4774   21488930.8554
     -3161.9354
   2932918.14846   2260242.94542  24152794.0784   24152791.6374
     -3030.4954
   1482289.53548   1141750.24644  22573630.5554   22573626.7274
     -1788.4764
   1940090.15249   1493592.58645  21763849.3594   21763845.0634
     -2071.7134
 04  9  1 14 55  0.0000000  0  8G 3G11G25G14G15G18G19G22
   3208326.21547   2473997.78942  23930991.1254   23930990.6024
     -3292.9644
   -973252.86347  -1602385.53942  23403534.7274   23403531.3954
      2587.5394
   -942815.07847   -723205.59442  23516025.8524   23516024.2934
      2941.6354
    800768.60249    616224.68447  20383350.9384   20383348.1454
     -1071.9124
   2937726.02749   2265176.50445  21497977.1254   21497975.3134
     -3168.5504
   2978397.37545   2295681.22742  24161448.4924   24161446.5634
     -3031.9484
   1509239.35248   1162750.06644  22578758.6254   22578755.5784
     -1796.6544
   1971209.68049   1517841.55945  21769771.6254   21769766.7544
     -2074.6354
 04  9  1 14 55 15.0000000  0  8G 3G11G25G14G15G18G19G22
   3257747.70747   2512508.01242  23940395.2274   23940395.4734
     -3294.7664
  -1012006.93047  -1632583.52042  23396159.8984   23396156.6994
      2583.6044
   -986909.37546   -757564.75042  23507633.8754   23507633.8634
      2939.6204
    816962.12149    628843.00847  20386433.1254   20386429.6644
     -1079.5684
   2985352.32449   2302287.86345  21507040.3204   21507038.4694
     -3175.0864
   3023897.25846   2331135.66042  24170107.5164   24170104.3554
     -3033.3264
   1536310.73048   1183844.62944  22583909.9614   22583906.7034
     -1804.7594
   2002372.20349   1542124.02746  21775701.3524   21775696.7894
     -2077.5024
 04  9  1 14 55 30.0000000  0  8G 3G11G25G14G15G18G19G22
   3307195.68447   2551038.85542  23949805.0314   23949805.1804
     -3296.5324
  -1050701.50647  -1662735.13742  23388796.0784   23388793.4184
      2579.6384
  -1030973.22347   -791900.21143  23499249.5084   23499248.3984
      2937.5904
    833270.05948    641550.48847  20389536.4384   20389533.1724
     -1087.1964
   3033076.29349   2339475.35945  21516121.7664   21516120.1644
     -3181.5984
   3069417.68046   2366606.10542  24178769.4924   24178767.4454
     -3034.6954
   1563502.98448   1205033.36744  22589084.7584   22589080.6524
     -1812.8174
   2033577.44149   1566439.78545  21781639.7894   21781635.0124
     -2080.3494
 04  9  1 14 55 45.0000000  0  7G 3G11G25G14G15G19G22
   3356670.56647   2589590.68042  23959219.8674   23959219.8524
     -3298.3264
  -1089335.70747  -1692839.63342  23381443.9924   23381441.6604
      2575.6134
  -1075005.26647   -826210.88342  23490870.3444   23490868.7734
      2935.4704
    849693.10248    654347.66447  20392661.1564   20392658.3204
     -1094.8704
   3080898.52349   2376739.38745  21525222.9064   21525220.8714
     -3188.1494
   1590816.71148   1226316.77044  22594283.1174   22594278.5274
     -1820.9154
   2064826.28549   1590789.53546  21787586.3054   21787581.5784
     -2083.2564
 04  9  1 14 56  0.0000000  0  7G 3G11G25G14G15G19G22
   3406171.98047   2628163.16842  23968639.3914   23968639.0704
     -3300.0944
  -1127909.14847  -1722896.90642  23374104.4454   23374100.7344
      2571.5634
  -1119005.43747   -860496.71542  23482497.8674   23482495.6454
      2933.3454
    866230.83648    667234.20746  20395808.0474   20395805.1844
     -1102.5164
   3128818.62149   2414079.69145  21534341.0944   21534339.8054
     -3194.6734
   1618251.50048   1247694.53544  22599503.5474   22599499.6844
     -1828.9864
   2096118.56649   1615173.10246  21793540.7584   21793536.5944
     -2086.1524
 04  9  1 14 56 15.0000000  0  7G 3G11G25G14G15G19G22
   3455700.06647   2666756.49642  23978064.7274   23978063.5314
     -3301.8724
  -1166421.16046  -1752906.27342  23366775.5084   23366772.1484
      2567.4674
  -1162972.70347   -894756.93443  23474131.2814   23474130.0234
      2931.1514
    882883.65648    680210.42646  20398976.9534   20398973.8594
     -1110.1884
   3176837.14549   2451496.69545  21543478.8204   21543477.1564
     -3201.2354
   1645807.82848   1269166.96544  22604747.2034   22604743.2934
     -1837.0894
   2127454.89549   1639591.02046  21799504.0634   21799499.4144
     -2089.0894
 04  9  1 14 56 30.0000000  0  7G 3G11G25G14G15G19G22
   3505254.31647   2705370.16442  23987494.8524   23987494.2234
     -3303.6174
  -1204871.54747  -1782867.61342  23359459.0234   23359455.3054
      2563.3594
  -1206907.12546   -928991.53942  23465771.1884   23465769.8444
      2928.9614
    899651.25848    693276.07847  20402167.9454   20402164.5664
     -1117.8404
   3224953.69149   2488990.07445  21552635.5784   21552633.7344
     -3207.7704
   1673485.12948   1290733.66444  22610014.2194   22610010.0164
     -1845.1534
   2158834.98449   1664043.02346  21805475.1334   21805470.9694
     -2092.0064
 04  9  1 14 56 45.0000000  0  7G 3G11G25G14G15G19G22
   3554835.83647   2744005.05542  23996928.8134   23996929.7344
     -3305.4354
  -1243258.57846  -1812779.57842  23352154.7344   23352150.4414
      2559.1354
  -1250806.68746   -963198.96542  23457416.5314   23457415.8324
      2926.6374
    916535.04348    706432.27347  20405380.7734   20405377.7234
     -1125.5864
   3273169.50449   2526560.80945  21561810.6414   21561808.6954
     -3214.3874
   1701284.77048   1312395.69944  22615303.9384   22615299.6804
     -1853.3094
   2190260.29349   1688530.25446  21811455.2814   21811451.1644
     -2095.0214
 04  9  1 14 57  0.0000000  0  7G 3G11G25G14G15G19G22
   3604443.34046   2782660.21542  24006368.8834   24006369.4884
     -3307.1674
  -1281582.78946  -1842642.57842  23344861.2424   23344857.6214
      2554.9474
  -1294671.83647   -997379.57042  23449069.3364   23449067.9964
      2924.3434
    933533.80548    719678.05546  20408615.5864   20408612.2734
     -1133.2514
   3321483.59049   2564208.10245  21571004.6484   21571002.3014
     -3220.9394
   1729205.52348   1334152.10944  22620617.3054   22620613.5394
     -1861.3844
   2221729.98449   1713052.09046  21817443.8364   21817439.6374
     -2097.9794
 04  9  1 14 57 15.0000000  0  7G 3G11G25G14G15G19G22
   3654077.36746   2821336.03542  24015814.7344   24015814.8674
     -3308.9354
  -1319843.03547  -1872455.74242  23337580.6724   23337577.5164
      2550.6834
  -1338501.52046  -1031532.55543  23440728.7274   23440728.0124
      2921.9794
    950648.29348    733014.02047  20411872.3364   20411869.2304
     -1140.9664
   3369896.55949   2601932.46945  21580217.0474   21580215.0234
     -3227.5314
   1757248.03948   1356003.40644  22625953.7114   22625949.4694
     -1869.5014
   2253244.82849   1737609.09046  21823441.2584   21823436.3914
     -2100.9904
 04  9  1 14 57 30.0000000  0  7G 3G11G25G14G15G19G22
   3703734.96547   2860030.21542  24025264.5634   24025264.0434
     -3310.5074
  -1358041.49247  -1902220.77742  23330311.5784   23330308.6374
      2546.5644
  -1382297.87947  -1065659.55943  23432394.7114   23432393.7034
      2919.7574
    967875.84848    746438.08647  20415150.8054   20415147.6024
     -1148.5044
   3418405.67249   2639731.74645  21589448.1644   21589446.2894
     -3233.9414
   1785409.46948   1377947.34844  22631312.4924   22631308.6094
     -1877.4294
   2284802.41448   1762199.41046  21829446.3364   21829441.6724
     -2103.8394
 04  9  1 14 57 45.0000000  0  7G 3G11G25G14G15G19G22
   3753417.25048   2898743.66042  24034719.5314   24034718.4654
     -3312.1524
  -1396176.55547  -1931936.42642  23323054.4924   23323051.2464
      2542.3384
  -1426059.19547  -1099759.27042  23424066.7194   23424065.4534
      2917.4214
    985217.56648    759951.10947  20418450.7584   20418447.4614
     -1156.1154
   3467012.12549   2677606.87545  21598697.3364   21598695.9534
     -3240.4304
   1813690.97748   1399984.85544  22636694.5394   22636689.7584
     -1885.4344
   2316404.05148   1786824.03945  21835459.8364   21835455.6564
     -2106.7764
 04  9  1 14 58  0.0000000  0  7G 3G11G25G14G15G19G22
   3803123.34447   2937475.65242  24044177.2504   24044176.6564
     -3313.7404
  -1434248.53947  -1961602.86342  23315809.9064   23315806.3134
      2538.1324
  -1469785.60947  -1133831.78143  23415746.2974   23415745.4964
      2915.0944
   1002672.75849    773552.54747  20421772.3914   20421769.1914
     -1163.6794
   3515715.23449   2715557.31645  21607964.9614   21607963.8914
     -3246.8744
   1842091.69548   1422115.26644  22642098.9844   22642095.3594
     -1893.3814
   2348049.10949   1811482.53146  21841481.4534   21841477.4104
     -2109.6714
 04  9  1 14 58 15.0000000  0  7G 3G11G25G14G15G19G22
   3852853.31346   2976226.23442  24053641.7424   24053639.7384
     -3315.3314
  -1472256.60247  -1991219.52042  23308576.5474   23308573.6844
      2533.8714
  -1513476.26247  -1167876.43042  23407431.9534   23407430.7544
      2912.7104
   1020241.71549    787242.64547  20425115.6564   20425112.4344
     -1171.2644
   3564515.16448   2753583.20345  21617251.5704   21617250.6764
     -3253.3294
   1870611.84848   1444338.75844  22647525.4844   22647522.0394
     -1901.3434
   2379738.18049   1836175.28146  21847511.6484   21847507.6604
     -2112.6054
 04  9  1 14 58 30.0000000  0  7G 3G11G25G14G15G19G22
   3902605.69947   3014994.32442  24063108.3364   24063107.6094
     -3316.8264
  -1510201.41047  -2020786.90242  23301356.7424   23301352.8834
      2529.6544
  -1557131.82447  -1201893.74242  23399124.6094   23399123.2544
      2910.3714
   1037923.16048    801020.38746  20428480.2504   20428477.3524
     -1178.7634
   3613410.67249   2791683.54345  21626556.7584   21626555.6174
     -3259.7014
   1899250.06648   1466654.24644  22652975.6254   22652972.1254
     -1909.2154
   2411470.15249   1860901.49245  21853550.1644   21853545.8554
     -2115.4654
 04  9  1 14 58 45.0000000  0  7G 3G11G25G14G15G19G22
   3952379.90246   3053779.39542  24072579.5314   24072579.5594
     -3318.2804
  -1548083.18047  -2050305.12542  23294147.5164   23294143.9264
      2525.4514
  -1600752.29747  -1235883.71142  23390824.2194   23390822.1884
      2908.0324
   1055716.48848    814885.31347  20431866.1174   20431862.9414
     -1186.2224
   3662401.15648   2829857.92645  21635879.0864   21635877.7974
     -3266.0324
   1928005.64548   1489061.16444  22658447.4304   22658443.9384
     -1917.0394
   2443244.62549   1885660.80145  21859597.0164   21859592.5554
     -2118.2984
 04  9  1 14 59  0.0000000  0  7G 3G11G25G14G15G19G22
   4002176.07446   3092581.55942  24082056.5234   24082055.1564
     -3319.7454
  -1585901.08248  -2079773.61342  23286951.1564   23286947.6054
      2521.1934
  -1644336.93047  -1269845.76643  23382530.0234   23382528.5164
      2905.6424
   1073622.10549    828837.73846  20435273.5704   20435269.9734
     -1193.7084
   3711486.93048   2868106.53945  21645219.7504   21645219.1294
     -3272.3854
   1956878.97348   1511559.84844  22663941.7274   22663938.4964
     -1924.8894
   2475062.06349   1910453.60245  21865651.5164   21865646.9104
     -2121.1624
 04  9  1 14 59 15.0000000  0  7G 3G11G25G14G15G19G22
   4051993.10547   3131400.00442  24091536.0784   24091535.1604
     -3321.1354
  -1623655.48848  -2109192.67242  23279766.8984   23279762.4224
      2516.9604
  -1687886.04347  -1303780.11742  23374243.3834   23374241.8984
      2903.2744
   1091639.07049    842876.92247  20438702.1094   20438698.7974
     -1201.1314
   3760667.21149   2906428.80545  21654578.1724   21654576.9344
     -3278.6854
   1985869.09448   1534149.51244  22669458.9304   22669455.7894
     -1932.6754
   2506921.77349   1935279.34045  21871713.9614   21871709.7154
     -2123.9814
 04  9  1 14 59 30.0000000  0  7G 3G11G25G14G15G19G22
   4101830.64147   3170234.43842  24101020.0704   24101019.4694
     -3322.5024
  -1661346.14847  -2138562.05942  23272594.5784   23272590.3404
      2512.7114
  -1731399.35247  -1337686.56242  23365962.1884   23365961.2194
      2900.8874
   1109767.13349    857002.68447  20442151.5864   20442148.4304
     -1208.5374
   3809941.66049   2944824.44145  21663955.1884   21663953.4964
     -3284.9634
   2014975.64148   1556829.91044  22674997.6724   22674993.6134
     -1940.4364
   2538823.80949   1960138.04345  21877784.7424   21877780.9264
     -2126.8024
 04  9  1 14 59 45.0000000  0  7G 3G11G25G14G15G19G22
   4151688.84847   3209084.94942  24110507.5164   24110507.8134
     -3323.8804
  -1698972.26248  -2167881.13342  23265434.1174   23265430.0864
      2508.4084
  -1774875.92247  -1371564.40642  23357689.2974   23357687.5124
      2898.4384
   1128006.75049    871215.37147  20445622.6564   20445619.5634
     -1215.9744
   3859310.59849   2983293.70345  21673349.9774   21673348.6334
     -3291.2624
   2044198.89148   1579601.25444  22680558.6644   22680554.7894
     -1948.2174
   2570768.60949   1985030.09445  21883863.7504   21883859.4144
     -2129.6534
 04  9  1 15  0  0.0000000  0  7G 3G11G25G14G15G19G22
   4201567.80946   3247951.62142  24119998.9614   24119998.3324
     -3325.2644
  -1736533.09048  -2197149.31242  23258286.4304   23258283.6094
      2504.0554
  -1818314.99247  -1405413.03142  23349422.9534   23349422.1024
      2895.9384
   1146358.07049    885515.09047  20449114.6884   20449111.7034
     -1223.4214
   3908774.14548   3021836.71945  21682761.9454   21682760.7544
     -3297.5704
   2073538.98448   1602463.64844  22686141.8284   22686138.4064
     -1956.0064
   2602756.51649   2009955.71946  21889950.7274   21889946.2664
     -2132.5274
 04  9  1 15  0 15.0000000  0  7G 3G11G25G14G15G19G22
   4251465.45745   3286832.89142  24129494.5634   24129493.6524
     -3326.5104
  -1774029.97748  -2226367.68442  23251150.9384   23251148.3014
      2499.7924
  -1861717.93447  -1439233.49243  23341163.1414   23341162.5204
      2893.5294
   1164819.19949    899900.37947  20452627.6954   20452624.9654
     -1230.7424
   3958330.64849   3060452.12945  21692192.6564   21692190.7584
     -3303.7674
   2102994.08248   1625415.65244  22691746.9614   22691743.8524
     -1963.6734
   2634785.85949   2034913.63746  21896045.8754   21896041.4384
     -2135.2904
 04  9  1 15  0 30.0000000  0  7G 3G11G25G14G15G19G22
   4301382.40645   3325729.17642  24138993.4224   24138993.0044
     -3327.7974
  -1811461.63748  -2255535.21142  23244028.0314   23244026.0554
      2495.4444
  -1905083.30947  -1473024.68443  23332911.6094   23332910.6604
      2891.0254
   1183390.90648    914371.83247  20456161.7664   20456158.5274
     -1238.1144
   4007980.80948   3099140.52345  21701640.5944   21701639.3324
     -3310.0114
   2132564.73848   1648457.68844  22697374.3834   22697370.7344
     -1971.3774
   2666857.73449   2059904.69546  21902148.5474   21902144.9574
     -2138.1254
 04  9  1 15  0 45.0000000  0  7G 3G11G25G14G15G19G22
   4351315.94945   3364638.43842  24148494.3284   24148494.2624
     -3328.9034
  -1848830.24248  -2284653.59043  23236916.8594   23236915.0394
      2491.2404
  -1948413.16847  -1506788.19543  23324666.2584   23324665.3674
      2888.6574
   1202070.73449    928927.54347  20459716.9534   20459713.1374
     -1245.3224
   4057721.87948   3137899.79345  21711105.8134   21711104.9304
     -3316.0714
   2162248.28148   1671587.69944  22703022.7424   22703019.1334
     -1978.9034
   2698969.62949   2084926.93845  21908259.6954   21908255.1914
     -2140.7934
 04  9  1 15  1  0.0000000  0  7G 3G11G25G14G15G19G22
   4401267.26246   3403561.47342  24158000.5704   24157999.8404
     -3330.0874
  -1886133.93748  -2313721.39542  23229818.3674   23229816.5084
      2486.9134
  -1991705.61747  -1540522.55543  23316428.2194   23316426.7894
      2886.1634
   1220859.91049    943568.45347  20463291.9224   20463288.7734
     -1252.6124
   4107555.26649   3176730.95345  21720589.4924   21720588.1294
     -3322.2264
   2192045.98448   1694806.66044  22708693.8914   22708690.1724
     -1986.5144
   2731123.13349   2109981.60945  21914378.1414   21914373.6724
     -2143.5674
 04  9  1 15  1 15.0000000  0  7G 3G11G25G14G15G19G22
   4451236.80545   3442498.75442  24167509.4614   24167509.5594
     -3331.3034
  -1923371.36348  -2342737.57443  23222732.3834   23222730.0904
      2482.4954
  -2034959.41447  -1574226.80543  23308196.9384   23308195.5314
      2883.5864
   1239759.16449    958295.14147  20466888.3284   20466885.4454
     -1259.9504
   4157481.70348   3215634.66445  21730089.2344   21730088.5354
     -3328.4294
   2221958.40648   1718115.02344  22714385.0944   22714382.0204
     -1994.1614
   2763319.10249   2135069.35945  21920504.8284   21920500.4964
     -2146.3984
 04  9  1 15  1 30.0000000  0  7G 3G11G25G14G15G19G22
   4501223.84045   3481449.64842  24177021.2894   24177021.7424
     -3332.4694
  -1960542.90248  -2371702.42643  23215658.8914   23215656.1764
      2478.1034
  -2078174.79747  -1607901.11342  23299973.3674   23299972.0904
      2881.0264
   1258767.74248    973107.00847  20470505.2814   20470502.5314
     -1267.2394
   4207500.48048   3254610.30145  21739608.2274   21739607.3634
     -3334.5854
   2251984.86748   1741512.21944  22720099.2114   22720095.5124
     -2001.7644
   2795557.02349   2160189.80145  21926639.8754   21926635.3284
     -2149.1954
 04  9  1 15  1 45.0000000  0  7G 3G11G25G14G15G19G22
   4551228.33246   3520414.16042  24186537.1024   24186537.2274
     -3333.6334
  -1997647.91848  -2400615.44143  23208598.3284   23208595.0044
      2473.6684
  -2121350.89146  -1641544.80543  23291756.8834   23291755.8284
      2878.4064
   1277885.87148    988004.24247  20474143.5394   20474140.5784
     -1274.5424
   4257611.79748   3293658.04345  21749144.1174   21749142.6524
     -3340.7544
   2282125.41848   1764998.34444  22725835.0084   22725831.6994
     -2009.3704
   2827837.32049   2185343.28945  21932782.2584   21932778.4964
     -2152.0204
 04  9  1 15  2  0.0000000  0  7G 3G11G25G14G15G19G22
   4601249.44145   3559391.60942  24196056.3674   24196055.3054
     -3334.7414
  -2034686.45748  -2429476.61343  23201550.0554   23201547.3284
      2469.2364
  -2164487.65647  -1675157.86743  23283548.4384   23283547.6724
      2875.7844
   1297112.98449   1002986.40246  20477802.3284   20477799.4304
     -1281.8084
   4307814.93448   3332777.33245  21758697.1724   21758696.1294
     -3346.8764
   2312379.34448   1788572.80144  22731591.6414   22731588.3014
     -2016.9284
   2860159.56649   2210529.43845  21938932.8594   21938929.2154
     -2154.8164
 04  9  1 15  2 15.0000000  0  7G 3G11G25G14G15G19G22
   4651286.38745   3598381.42642  24205577.6484   24205576.9924
     -3335.7964
  -2071658.77048  -2458286.20343  23194514.2814   23194511.8674
      2464.8214
  -2207585.50447  -1708740.59843  23275347.3754   23275345.7664
      2873.1904
   1316448.30548   1018052.87946  20481481.7114   20481478.6804
     -1289.0214
   4358109.11348   3371967.57845  21768267.4694   21768266.3364
     -3352.9454
   2342745.84848   1812234.99244  22737370.5474   22737366.8244
     -2024.4344
   2892523.05149   2235747.70746  21945091.8134   21945087.8164
     -2157.5664
 04  9  1 15  2 30.0000000  0  7G 3G11G25G14G15G19G22
   4701338.67245   3637383.16842  24215102.2504   24215100.1954
     -3336.8194
  -2108564.66448  -2487044.02343  23187491.7734   23187488.8444
      2460.3934
  -2250644.19546  -1742292.82043  23267153.2664   23267152.2304
      2870.5794
   1335891.48848   1033203.41446  20485181.8914   20485178.8054
     -1296.2124
   4408494.07848   3411228.53945  21777856.0314   21777854.0554
     -3358.9984
   2373224.51648   1835984.57044  22743170.2194   22743167.3324
     -2031.9114
   2924927.73049   2260998.10946  21951258.5314   21951254.1334
     -2160.3124
 04  9  1 15  2 45.0000000  0  8G 3G11G25G14G15G 1G19G22
   4751405.92245   3676396.59042  24224629.8754   24224627.9384
     -3337.8174
  -2145403.62548  -2515749.73043  23180481.4304   23180478.2664
      2455.9314
  -2293663.18747  -1775814.09843  23258967.7584   23258965.8954
      2867.9334
   1355442.59048   1048438.03146  20488902.1564   20488898.9144
     -1303.4074
   4458969.78148   3450560.22744  21787461.1954   21787459.2814
     -3365.0474
   -118100.90656    -81756.82452  24120407.2734   24120406.2624

   2403815.30148   1859821.52744  22748991.4774   22748987.8244
     -2039.3864
   2957373.87549   2286280.80546  21957432.5004   21957428.3874
     -2163.0764
 04  9  1 15  3  0.0000000  0  8G 3G11G25G14G15G 1G19G22
   4801487.41046   3715421.07842  24234160.2194   24234159.0314
     -3338.7664
  -2182176.12148  -2544403.64143  23173483.8754   23173481.2504
      2451.5004
  -2336642.68447  -1809304.60543  23250788.5394   23250787.2814
      2865.3004
   1375100.73048   1063756.05546  20492643.0164   20492639.6024
     -1310.5434
   4509535.39549   3489961.98444  21797084.0004   21797081.4304
     -3371.0414
   -160820.62547   -115044.90242  24112278.2274   24112276.6644
      2847.9814
   2434517.18048   1883745.05544  22754834.2894   22754830.1524
     -2046.7924
   2989860.82049   2311595.28946  21963614.8984   21963610.6094
     -2165.7964
 04  9  1 15  3 15.0000000  0  8G 3G11G25G14G15G 1G19G22
   4851581.76646   3754455.62542  24243693.3984   24243693.0474
     -3339.6244
  -2218882.78148  -2573006.25043  23166499.3364   23166495.8634
      2447.1114
  -2379583.34447  -1842764.85542  23242617.1484   23242616.2114
      2862.7114
   1394864.80949   1079156.63346  20496403.9614   20496400.5824
     -1317.6054
   4560189.85249   3529432.95345  21806722.8984   21806720.8794
     -3376.9644
   -203496.56647   -148298.87942  24104157.7344   24104156.7344
      2845.0634
   2465329.08648   1907754.28944  22760697.6094   22760693.5664
     -2054.1274
   3022387.69949   2336940.88346  21969804.0944   21969800.3874
     -2168.4594
 04  9  1 15  3 30.0000000  0  8G 3G11G25G14G15G 1G19G22
   4901689.80946   3793500.80942  24253227.6334   24253228.6334
     -3340.5364
  -2255522.21948  -2601556.44943  23159526.7664   23159523.8404
      2442.6294
  -2422483.69147  -1876193.71143  23234453.7344   23234452.1884
      2860.0234
   1414735.68049   1094640.42646  20500185.2894   20500182.1254
     -1324.7254
   4610933.93449   3568973.75844  21816379.8364   21816377.0594
     -3382.9394
   -246127.52047   -181517.78542  24096044.6484   24096044.1764
      2842.0644
   2496251.67648   1931849.81344  22766581.8984   22766578.5234
     -2061.5064
   3054955.48049   2362318.38346  21976002.0234   21975997.7504
     -2171.1854
 04  9  1 15  3 45.0000000  0  8G 3G11G25G14G15G 1G19G22
   4951810.59445   3832555.96142  24262766.3444   24262766.1454
     -3341.3864
  -2292094.55148  -2630054.36343  23152567.0864   23152564.0594
      2438.1554
  -2465343.80947  -1909591.18043  23226297.4774   23226296.7234
      2857.3414
   1434712.64549   1110206.88346  20503986.9454   20503983.7114
     -1331.7984
   4661766.86748   3608583.82844  21826051.6804   21826050.8954
     -3388.8624
   -288713.85946   -214701.96942  24087941.0474   24087939.8874
      2839.0894
   2527284.19548   1956030.96944  22772487.1334   22772483.8834
     -2068.8354
   3087563.71549   2387727.37546  21982206.6644   21982202.5044
     -2173.8824
 04  9  1 15  4  0.0000000  0  8G 3G11G25G14G15G 1G19G22
   5001943.98846   3871620.87542  24272306.2814   24272305.0634
     -3342.2264
  -2328599.32848  -2658499.65243  23145620.6174   23145617.3164
      2433.6524
  -2508163.28947  -1942957.01243  23218149.6024   23218148.8634
      2854.6324
   1454795.57448   1125855.91447  20507808.4064   20507805.3164
     -1338.8624
   4712688.60248   3648263.06344  21835741.6644   21835741.2074
     -3394.7824
   -331255.23046   -247851.07442  24079845.0944   24079844.6254
      2836.0914
   2558426.48448   1980297.66444  22778413.5084   22778410.0514
     -2076.1534
   3120212.41049   2413167.91045  21988419.6094   21988415.3594
     -2176.5804
 04  9  1 15  4 15.0000000  0  8G 3G11G25G14G15G 1G19G22
   5052089.27345   3910695.11742  24281847.4224   24281848.0904
     -3343.0194
  -2365036.60548  -2686892.33643  23138686.7114   23138683.9344
      2429.1524
  -2550941.89847  -1976290.98843  23210008.3674   23210008.3204
      2851.9074
   1474984.12149   1141587.24247  20511650.4144   20511647.3014
     -1345.9034
   4763698.68848   3688011.12944  21845449.7894   21845448.1524
     -3400.6724
   -373751.79346   -280965.26242  24071758.6174   24071757.2074
      2833.1044
   2589678.00048   2004649.45744  22784359.9534   22784356.4734
     -2083.4344
   3152901.26649   2438639.73445  21994639.7664   21994636.0824
     -2179.2574
 04  9  1 15  4 30.0000000  0  8G 3G11G25G14G15G 1G19G22
   5102245.48445   3949777.83642  24291392.0004   24291392.8984
     -3343.7474
  -2401406.44948  -2715232.46543  23131765.2584   23131762.8094
      2424.6564
  -2593679.96147  -2009593.35943  23201875.9454   23201875.4804
      2849.2044
   1495277.50449   1157400.27047  20515511.9774   20515509.2734
     -1352.8924
   4814796.30148   3727827.43444  21855172.7664   21855172.2074
     -3406.5084
   -416203.89846   -314044.79742  24063680.3594   24063678.5634
      2830.1404
   2621037.91448   2029085.75844  22790327.7814   22790323.6524
     -2090.6614
   3185629.88349   2464142.55145  22000868.2664   22000864.0514
     -2181.9084
 04  9  1 15  4 45.0000000  0  8G 3G11G25G14G15G 1G19G22
   5152413.92246   3988870.05942  24300939.3674   24300940.0314
     -3344.5624
  -2437707.10948  -2743518.68443  23124857.5784   23124855.1484
      2420.0444
  -2636375.61747  -2042862.68043  23193751.2424   23193750.9304
      2846.3774
   1515676.88348   1173295.87946  20519393.5554   20519390.9344
     -1359.9594
   4865982.77747   3767712.96144  21864912.8754   21864912.6174
     -3412.4324
   -458609.88746   -347088.44942  24055610.9694   24055609.3674
      2827.0664
   2652507.30148   2053607.32844  22796315.7344   22796312.6414
     -2097.9594
   3218399.63749   2489677.41045  22007103.6804   22007100.1214
     -2184.6504
 04  9  1 15  5  0.0000000  0  8G 3G11G25G14G15G 1G19G22
   5202594.36346   4027971.68442  24310488.9224   24310488.6804
     -3345.3634
  -2473938.29348  -2771750.75043  23117962.8834   23117960.8054
      2415.4124
  -2679028.18047  -2076098.44143  23185634.8594   23185634.1254
      2843.5044
   1536182.43848   1189274.22747  20523295.6644   20523292.6564
     -1367.0374
   4917258.09048   3807667.72344  21874671.1954   21874670.0394
     -3418.3544
   -500969.25446   -380095.71542  24047549.7664   24047549.2194
      2823.9584
   2684086.25848   2078214.27744  22802325.4064   22802322.1604
     -2105.2644
   3251210.86749   2515244.57846  22013347.6174   22013343.9494
     -2187.4154
 04  9  1 15  5 15.0000000  0  8G 3G11G25G14G15G 1G19G22
   5252786.67246   4067082.55942  24320040.8674   24320040.9494
     -3346.1544
  -2510099.56248  -2799928.36344  23111082.4774   23111078.9924
      2410.7514
  -2721637.19147  -2109300.26643  23177526.3754   23177525.9024
      2840.6014
   1556793.94548   1205335.14147  20527218.1414   20527215.1374
     -1374.1014
   4968622.11748   3847691.59044  21884445.4534   21884444.0204
     -3424.2684
   -543281.84046   -413066.53942  24039498.1644   24039497.6414
      2820.8394
   2715774.50848   2102906.39144  22808355.7504   22808352.3444
     -2112.5504
   3284063.61349   2540844.10946  22019599.7504   22019595.6644
     -2190.1834
 04  9  1 15  5 30.0000000  0  8G 3G11G25G14G15G 1G19G22
   5302990.69946   4106202.54742  24329593.4924   24329594.4264
     -3346.9354
  -2546190.25448  -2828050.98844  23104213.6884   23104211.0514
      2406.0464
  -2764202.10247  -2142467.68743  23169426.1644   23169425.4654
      2837.6614
   1577511.61748   1221478.77047  20531160.3204   20531157.7854
     -1381.1784
   5020074.89148   3887784.65645  21894235.7734   21894235.3014
     -3430.1854
   -585547.16446   -446000.60242  24031454.4694   24031454.3014
      2817.6884
   2747572.03548   2127683.64844  22814406.8364   22814402.8324
     -2119.8354
   3316958.17649   2566476.22345  22025859.0474   22025855.2934
     -2192.9714
 04  9  1 15  5 45.0000000  0  8G 3G11G25G14G15G 1G19G22
   5353205.08246   4145330.60542  24339148.4224   24339149.1374
     -3347.6264
  -2582211.07848  -2856119.16043  23097359.5164   23097356.6644
      2401.3884
  -2806723.69947  -2175601.39843  23161335.3754   23161334.8284
      2834.7734
   1598334.12548   1237704.09446  20535122.9304   20535119.9024
     -1388.1674
   5071615.24648   3927945.93045  21904043.6724   21904042.5784
     -3436.0244
   -627766.13346   -478898.46542  24023419.6954   24023420.3094
      2814.5984
   2779477.42248   2152544.95744  22820478.7734   22820474.3094
     -2127.0264
   3349893.42249   2592140.03545  22032126.6644   22032122.7274
     -2195.6834
 04  9  1 15  6  0.0000000  0  8G 3G11G25G14G15G 1G19G22
   5403430.69547   4184467.43442  24348706.6954   24348706.7734
     -3348.3744
  -2618160.47748  -2884131.68743  23090518.5084   23090515.5274
      2396.6274
  -2849200.25847  -2208699.99243  23153251.9844   23153251.4494
      2831.7714
   1619262.56349   1254011.95747  20539105.5084   20539102.3404
     -1395.2294
   5123244.14148   3968176.18445  21913869.5164   21913867.9264
     -3441.9264
   -669937.16046   -511759.04742  24015396.0634   24015395.5944
      2811.4024
   2811491.71948   2177491.16444  22826570.3594   22826566.6724
     -2134.2864
   3382870.52349   2617836.46946  22038401.8444   22038398.0634
     -2198.4734
 04  9  1 15  6 15.0000000  0  8G 3G11G25G14G15G 1G19G22
   5453665.83246   4223611.64542  24358266.3444   24358265.9734
     -3349.0094
  -2654039.75848  -2912089.57843  23083690.5314   23083687.8914
      2391.9524
  -2891632.89847  -2241764.37943  23145176.9144   23145177.1454
      2828.8434
   1640295.12548   1270400.95746  20543107.8284   20543104.5354
     -1402.1714
   5174959.89548   4008474.14844  21923710.0704   21923708.7814
     -3447.7174
   -712061.78146   -544583.39842  24007379.7504   24007380.8714
      2808.3084
   2843613.19148   2202520.84444  22832683.1724   22832678.3914
     -2141.4324
   3415888.16049   2643564.48045  22044685.0164   22044680.9304
     -2201.1764
 04  9  1 15  6 30.0000000  0  8G 3G11G25G14G15G 1G19G22
   5503912.06347   4262764.53142  24367827.2034   24367826.5704
     -3349.7494
  -2689846.62548  -2939991.01644  23076876.9144   23076874.2664
      2387.1244
  -2934019.39847  -2274792.80543  23137111.6954   23137110.8594
      2825.7674
   1661433.58248   1286872.47346  20547130.2814   20547127.2304
     -1409.2304
   5226764.17248   4048841.09044  21933567.7894   21933567.1294
     -3453.6184
   -754137.82046   -577369.92242  23999373.1024   23999373.5004
      2805.0694
   2875843.46948   2227635.32044  22838816.2814   22838811.6254
     -2148.6854
   3448948.26649   2669325.58645  22050976.1804   22050972.2034
     -2204.0074
 04  9  1 15  6 45.0000000  0  8G 3G11G25G14G15G 1G19G22
   5554167.82846   4301924.82842  24377390.6024   24377390.3834
     -3350.3844
  -2725581.90249  -2967836.70744  23070077.2974   23070073.8984
      2382.3524
  -2976360.37547  -2307785.74243  23129053.7814   23129054.0554
      2822.7324
   1682676.60949   1303425.48446  20551172.8524   20551169.4224
     -1416.2024
   5278655.66448   4089276.00044  21943442.2344   21943441.6454
     -3459.4334
   -796166.18046   -610119.28542  23991375.3444   23991374.9884
      2801.8914
   2908181.05548   2252833.42244  22844969.5704   22844965.8364
     -2155.8394
   3482049.59449   2695118.82045  22057275.1724   22057270.9454
     -2206.7554
 04  9  1 15  7  0.0000000  0  8G 3G11G25G14G15G 1G19G22
   5604432.88346   4341092.34842  24386956.4844   24386955.2344
     -3351.0044
  -2761244.96948  -2995626.11344  23063290.5314   23063287.9804
      2377.5384
  -3018655.30547  -2340742.81643  23121006.0164   23121004.6724
      2819.6624
   1704024.22749   1320059.98846  20555235.2344   20555231.8244
     -1423.1744
   5330634.42648   4129778.88745  21953334.0474   21953333.3524
     -3465.2514
   -838146.49246   -642831.22342  23983387.6954   23983387.4534
      2798.6884
   2940625.91448   2278115.11344  22851143.9144   22851139.5434
     -2162.9914
   3515192.39549   2720944.36345  22063581.9844   22063577.8634
     -2209.5204
 04  9  1 15  7 15.0000000  0  8G 3G11G25G14G15G 1G19G22
   5654706.03947   4380266.21942  24396523.0784   24396522.1334
     -3351.5444
  -2796836.63748  -3023359.85244  23056517.3204   23056515.0594
      2372.7784
  -3060904.86747  -2373664.55143  23112966.1024   23112965.1604
      2816.6374
   1725475.37149   1336775.15247  20559317.3594   20559313.7304
     -1430.0764
   5382699.20348   4170348.82044  21963241.1254   21963240.2154
     -3470.9854
   -880079.66446   -675506.39842  23975407.3524   23975407.0204
      2795.5454
   2973176.80548   2303479.41044  22857337.7814   22857334.3634
     -2170.0594
   3548375.80549   2746801.55145  22069896.3364   22069892.2384
     -2212.2274
 04  9  1 15  7 30.0000000  0  8G 3G11G25G14G15G 1G19G22
   5704987.94947   4419446.89142  24406090.9384   24406090.3244
     -3352.1274
  -2832355.64548  -3051036.98444  23049758.3834   23049755.8714
      2367.9344
  -3103107.88747  -2406549.98843  23104934.2814   23104934.1804
      2813.5354
   1747030.69549   1353571.51247  20563419.0704   20563415.6484
     -1437.0224
   5434850.77748   4210986.37144  21973165.6024   21973164.8674
     -3476.7724
   -921964.42246   -708143.84842  23967436.7034   23967436.5664
      2792.3174
   3005834.32848   2328926.81644  22863553.2274   22863548.6994
     -2177.1684
   3581600.68049   2772691.06345  22076219.4534   22076214.6954
     -2214.9924
 04  9  1 15  7 45.0000000  0  8G 3G11G25G14G15G 1G19G22
   5755278.54347   4458634.35942  24415661.5944   24415661.2114
     -3352.7064
  -2867801.27348  -3078656.94544  23043013.7664   23043010.9734
      2363.0424
  -3145263.37947  -2439398.43443  23096912.7424   23096912.1644
      2810.3664
   1768690.35249   1370449.16447  20567540.6414   20567537.5474
     -1443.9774
   5487089.28148   4251691.66844  21983106.3674   21983104.8714
     -3482.5674
   -963800.25047   -740743.22742  23959476.2504   23959474.9064
      2789.0554
   3038598.67248   2354457.42644  22869787.4064   22869783.8754
     -2184.2904
   3614867.59049   2798613.29345  22082549.2894   22082545.1844
     -2217.7944
 04  9  1 15  8  0.0000000  0  8G 3G11G25G14G15G 1G19G22
   5805577.22747   4497828.10242  24425231.9774   24425232.5004
     -3353.2464
  -2903173.49249  -3106219.70744  23036282.6024   23036279.2704
      2358.1484
  -3187371.46548  -2472209.93043  23088900.3754   23088899.3954
      2807.2064
   1790453.83248   1387407.70747  20571682.1414   20571679.2734
     -1450.8994
   5539414.19148   4292464.30144  21993063.6334   21993061.8014
     -3488.3274
  -1005587.37547   -773304.59442  23951524.6954   23951523.1844
      2785.8084
   3071469.05548   2380070.68844  22876042.9454   22876038.4574
     -2191.3594
   3648175.85249   2824567.79745  22088888.3284   22088883.6914
     -2220.5514
 04  9  1 15  8 15.0000000  0  8G 3G11G25G14G15G 1G19G22
   5855883.85547   4537028.02342  24434805.9144   24434805.3524
     -3353.7754
  -2938471.87149  -3133724.93744  23029565.7114   23029561.9694
      2353.2254
  -3229431.54348  -2504983.99243  23080896.7034   23080896.0594
      2804.0054
   1812321.05549   1404447.08647  20575843.3914   20575840.1294
     -1457.8154
   5591825.36348   4333304.14144  22003036.7734   22003035.6684
     -3494.0784
  -1047325.48446   -805827.80142  23943581.0944   23943580.3754
      2782.5414
   3104445.36748   2405766.48444  22882317.7194   22882314.2664
     -2198.4214
   3681525.83649   2850554.76645  22095234.1414   22095230.2504
     -2223.3324
 04  9  1 15  8 30.0000000  0  8G 3G11G25G14G15G 1G19G22
   5906197.92247   4576233.74642  24444380.1094   24444380.4304
     -3354.2714
  -2973696.09049  -3161172.40644  23022862.6954   23022858.9144
      2348.2814
  -3271443.31647  -2537720.43043  23072902.0234   23072901.2704
      2800.7854
   1834291.74649   1421567.10547  20580024.0784   20580021.2274
     -1464.7134
   5644322.58648   4374211.02044  22013026.2894   22013025.7034
     -3499.8154
  -1089014.40646   -838312.71942  23935648.3054   23935647.5744
      2779.2614
   3137527.19948   2431544.54344  22888613.0864   22888608.9734
     -2205.4554
   3714917.43449   2876574.18445  22101588.6414   22101583.9574
     -2226.1074
 04  9  1 15  8 45.0000000  0  8G 3G11G25G14G15G 1G19G22
   5956518.39847   4615444.47342  24453956.5704   24453956.1994
     -3354.6984
  -3008846.71549  -3188562.51644  23016173.8834   23016169.8914
      2343.3754
  -3313407.03947  -2570419.39843  23064915.9774   23064916.0744
      2797.5824
   1856365.18049   1438767.17646  20584224.5394   20584221.6214
     -1471.5624
   5696904.96948   4415184.26244  22023032.5474   22023032.3404
     -3505.4924
  -1130654.61347   -870759.63742  23927724.2734   23927723.5164
      2776.0144
   3170713.71948   2457404.12944  22894927.7664   22894923.4534
     -2212.4354
   3748350.07049   2902625.58245  22107950.4144   22107946.0784
     -2228.8424
 04  9  1 15  9  0.0000000  0  8G 3G11G25G14G15G 1G19G22
   6006845.99247   4654660.75042  24463532.7114   24463533.1334
     -3355.1734
  -3043922.52348  -3215894.32043  23009499.0394   23009495.0744
      2338.3874
  -3355321.52047  -2603080.02343  23056939.8914   23056939.8284
      2794.2994
   1878541.97349   1456047.78546  20588444.7664   20588441.3404
     -1478.4534
   5749573.12948   4456224.34044  22033055.6644   22033054.9774
     -3511.2114
  -1172244.99647   -903167.71142  23919810.0084   23919807.6914
      2772.6924
   3204005.45348   2483345.71944  22901263.4144   22901259.2854
     -2219.4494
   3781824.64149   2928709.64845  22114320.4774   22114316.3324
     -2231.6384
 04  9  1 15  9 15.0000000  0  7G11G25G14G15G 1G19G22
  -3078923.84848  -3243168.06243  23002838.0394   23002834.5944
      2333.4224
  -3397187.16048  -2635702.57443  23048973.1804   23048973.0634
      2791.0434
   1900821.09849   1473408.12946  20592684.4224   20592681.3954
     -1485.2754
   5802326.12948   4497330.55944  22043093.8204   22043093.4884
     -3516.8674
  -1213786.22747   -935537.50842  23911905.2504   23911902.6334
      2769.4154
   3237401.25848   2509368.39144  22907617.7424   22907614.8754
     -2226.3874
   3815340.27749   2954825.71545  22120698.4534   22120694.6174
     -2234.3764
 04  9  1 15  9 30.0000000  0  7G11G25G14G15G 1G19G22
  -3113850.24248  -3270383.42643  22996191.3834   22996188.1254
      2328.4264
  -3439003.46547  -2668286.69543  23041016.1484   23041015.5044
      2787.7544
   1923202.62549   1490848.28146  20596943.4304   20596940.6994
     -1492.1024
   5855163.89148   4538502.80144  22053148.5004   22053147.8134
     -3522.5174
  -1255277.94947   -967868.69142  23904009.5864   23904008.0904
      2766.1154
   3270901.10548   2535472.14144  22913993.5784   22913989.7504
     -2233.3234
   3848897.28949   2980974.02345  22127083.3674   22127080.0354
     -2237.1344
 04  9  1 15  9 45.0000000  0  7G11G25G14G15G 1G19G22
  -3148700.68448  -3297539.61743  22989559.7114   22989556.7304
      2323.3634
  -3480769.32047  -2700831.52043  23033067.9064   23033066.8914
      2784.3904
   1945687.03549   1508368.59847  20601222.1884   20601219.4224
     -1498.9614
   5908086.94548   4579741.48844  22063219.6884   22063218.6604
     -3528.2044
  -1296719.16847  -1000160.58242  23896123.7274   23896122.5554
      2762.7484
   3304505.40248   2561657.28944  22920388.5634   22920383.9384
     -2240.2864
   3882496.25049   3007154.99645  22133477.3754   22133473.6804
     -2239.9314
 04  9  1 15 10  0.0000000  0  7G11G25G14G15G 1G19G22
  -3183474.30948  -3324635.93744  22982942.8754   22982939.8634
      2318.2424
  -3522483.72747  -2733336.23043  23025130.3754   23025128.8714
      2780.9604
   1968274.64549   1525969.32846  20605520.3204   20605517.3834
     -1505.8414
   5961095.68048   4621046.95744  22073306.7734   22073306.5394
     -3533.9164
  -1338109.21147  -1032412.57442  23888246.3984   23888246.6684
      2759.3364
   3338214.44547   2587924.03944  22926802.6644   22926798.3914
     -2247.2704
   3916137.81649   3033369.19945  22139879.3284   22139875.6804
     -2242.7714
 04  9  1 15 10 15.0000000  0  7G11G25G14G15G 1G19G22
  -3218170.40249  -3351671.86344  22976340.2734   22976337.4734
      2313.0734
  -3564145.98447  -2765800.28143  23017201.5704   23017201.2344
      2777.4844
   1990965.66049   1543650.63346  20609838.3594   20609835.3054
     -1512.7344
   6014190.24248   4662419.33244  22083409.7894   22083409.5314
     -3539.6374
  -1379447.54347  -1064624.26642  23880380.2814   23880380.1994
      2755.8894
   3372028.29347   2614272.47344  22933237.4614   22933233.9494
     -2254.2574
   3949822.43449   3059616.93845  22146289.2734   22146285.3404
     -2245.6414
 04  9  1 15 10 30.0000000  0  7G11G25G14G15G 1G19G22
  -3252789.01248  -3378647.39544  22969753.0004   22969749.6524
      2307.9074
  -3605756.07447  -2798223.71943  23009284.1884   23009282.9184
      2774.0064
   2013759.62149   1561412.15246  20614175.8284   20614172.6644
     -1519.5974
   6067370.05948   4703858.07444  22093530.8054   22093529.0354
     -3545.3214
  -1420734.30547  -1096795.73442  23872524.0704   23872523.3094
      2752.4514
   3405946.31647   2640702.08244  22939691.5944   22939687.8984
     -2261.2024
   3983549.72749   3085897.93445  22152707.2114   22152703.6454
     -2248.4864
 04  9  1 15 10 45.0000000  0  7G11G25G14G15G 1G19G22
  -3287330.36748  -3405562.73844  22963179.8204   22963176.6994
      2302.7574
  -3647314.17648  -2830606.63743  23001375.7584   23001374.6684
      2770.5404
   2036655.64849   1579253.20347  20618533.0474   20618529.8484
     -1526.4024
   6120634.31648   4745362.68844  22103665.9304   22103664.8834
     -3550.9514
  -1461969.90647  -1128927.38742  23864677.2114   23864676.8164
      2749.0404
   3439967.64148   2667212.17244  22946165.2894   22946161.8364
     -2268.0884
   4017319.09049   3112211.71945  22159133.6564   22159129.8634
     -2251.2914
 04  9  1 15 11  0.0000000  0  7G11G25G14G15G 1G19G22
  -3321793.82048  -3432417.37944  22956622.1254   22956618.3054
      2297.5644
  -3688819.45748  -2862948.41043  22993477.8284   22993476.4494
      2767.0194
   2059654.00049   1597173.98847  20622909.2974   20622906.6884
     -1533.2234
   6173983.28948   4786933.26244  22113818.0944   22113816.7504
     -3556.5984
  -1503153.80547  -1161018.71142  23856840.7734   23856839.5824
      2745.5934
   3474092.44948   2693802.89544  22952659.4924   22952655.8794
     -2274.9874
   4051131.03549   3138558.67245  22165567.6414   22165563.8984
     -2254.1304
 04  9  1 15 11 15.0000000  0  7G11G25G14G15G 1G19G22
  -3356178.80548  -3459210.87143  22950078.5314   22950074.8984
      2292.3324
  -3730271.42647  -2895248.62943  22985589.8444   22985589.4224
      2763.4654
   2082754.66449   1615174.49647  20627305.1644   20627302.2974
     -1540.0444
   6227416.78548   4828569.71544  22123986.5784   22123984.2154
     -3562.2334
  -1544285.63347  -1193069.51242  23849013.4924   23849012.1994
      2742.1224
   3508320.52048   2720474.08644  22959172.3054   22959169.2664
     -2281.8714
   4084985.69149   3164938.89545  22172010.1094   22172006.3524
     -2256.9774
 04  9  1 15 11 30.0000000  0  7G11G25G14G15G 1G19G22
  -3390485.64548  -3485943.48044  22943549.9694   22943546.4344
      2287.1234
  -3771670.47748  -2927507.61743  22977711.6024   22977711.1604
      2759.9374
   2105956.78949   1633254.07047  20631720.4924   20631717.4614
     -1546.8084
   6280933.97748   4870271.38344  22134170.6254   22134169.0594
     -3567.8134
  -1585365.86747  -1225080.10542  23841196.9224   23841195.6024
      2738.6824
   3542650.85948   2747224.97344  22965706.0634   22965702.4184
     -2288.6894
   4118882.34849   3191351.87145  22178460.2114   22178457.0314
     -2259.7774
 04  9  1 15 11 45.0000000  0  7G11G25G14G15G 1G19G22
  -3424713.87948  -3512614.83243  22937036.6094   22937032.8794
      2281.8824
  -3813016.03147  -2959724.93043  22969843.7344   22969842.9384
      2756.3704
   2129260.31649   1651412.66046  20636154.7734   20636151.8954
     -1553.5684
   6334534.85948   4912038.26644  22144370.7114   22144368.2424
     -3573.3924
  -1626394.18447  -1257050.26642  23833388.2114   23833387.5824
      2735.2214
   3577083.36348   2774055.46544  22972257.9924   22972255.5904
     -2295.5004
   4152821.30949   3217797.80945  22184918.6414   22184914.8714
     -2262.5974
 04  9  1 15 12  0.0000000  0  7G11G25G14G15G 1G19G22
  -3458864.35248  -3539225.59844  22930537.7424   22930534.8634
      2276.6984
  -3854308.71548  -2991901.04343  22961985.6724   22961985.3524
      2752.8464
   2152663.95749   1669649.26247  20640608.8594   20640605.6764
     -1560.2434
   6388218.05949   4953869.28544  22154586.2504   22154584.2934
     -3578.8804
  -1667371.48447  -1288980.63342  23825591.0634   23825590.0274
      2731.8204
   3611616.59047   2800964.43844  22978828.6334   22978826.5664
     -2302.2154
   4186801.34049   3244275.73845  22191384.9614   22191381.1374
     -2265.3354
 04  9  1 15 12 15.0000000  0  7G11G25G14G15G 1G19G22
  -3492936.35948  -3565775.20744  22924054.4774   22924051.4144
      2271.4674
  -3895547.73448  -3024035.30143  22954138.2504   22954137.6294
      2749.2684
   2176167.98049   1687964.08646  20645080.9844   20645078.3284
     -1566.9354
   6441983.87548   4995764.69144  22164817.6644   22164815.7934
     -3584.3884
  -1708297.19947  -1320870.78542  23817803.1254   23817802.3484
      2728.3814
   3646250.83248   2827952.12144  22985420.4534   22985417.0394
     -2308.9494
   4220823.10949   3270786.18845  22197859.0314   22197855.2624
     -2268.1184
 04  9  1 15 12 30.0000000  0  7G11G25G14G15G 1G19G22
  -3526929.39148  -3592263.28144  22917585.8284   22917583.1214
      2266.2024
  -3936732.68448  -3056127.47743  22946301.3364   22946299.1644
      2745.6634
   2199772.20749   1706356.97746  20649573.4064   20649570.3364
     -1573.6154
   6495832.19548   5037724.39144  22175063.9304   22175062.8014
     -3589.8884
  -1749171.03146  -1352720.51642  23810025.0394   23810024.1294
      2724.9224
   3680985.70748   2855018.25044  22992029.5394   22992026.4774
     -2315.6584
   4254886.54349   3297329.11745  22204341.1024   22204337.2584
     -2270.8964
 04  9  1 15 12 45.0000000  0  7G11G25G14G15G 1G19G22
  -3560843.44948  -3618689.83644  22911131.9144   22911129.1334
      2260.9374
  -3977863.43448  -3088177.40643  22938474.3984   22938473.0004
      2742.0504
   2223476.21149   1724827.62546  20654083.5704   20654080.8324
     -1580.2674
   6549762.55548   5079748.00444  22185327.6884   22185325.4144
     -3595.3574
  -1789993.04747  -1384529.88742  23802256.8754   23802256.1524
      2721.4684
   3715820.78548   2882162.43444  22998658.5394   22998655.7584
     -2322.3394
   4288991.43849   3323904.33645  22210831.2274   22210826.9344
     -2273.6604
 04  9  1 15 13  0.0000000  0  7G11G25G14G15G 1G19G22
  -3594678.81248  -3645055.05543  22904693.4384   22904690.8914
      2255.6914
  -4018940.10548  -3120185.18743  22930656.9774   22930656.0984
      2738.4454
   2247279.21149   1743375.41446  20658613.2344   20658610.3244
     -1586.8674
   6603774.08649   5121834.86744  22195605.3834   22195603.4144
     -3600.7694
  -1830763.60546  -1416299.16442  23794498.2504   23794497.6024
      2718.0374
   3750755.05948   2909383.91044  23005306.3984   23005303.6374
     -2328.9524
   4323137.27349   3350511.47345  22217329.0314   22217324.6844
     -2276.3894
 04  9  1 15 13 15.0000000  0  7G11G25G14G15G 1G19G22
  -3628434.20748  -3671357.94544  22898269.8594   22898268.3244
      2250.3604
  -4059961.46548  -3152149.87943  22922851.6564   22922849.9534
      2734.7574
   2271182.07849   1762001.02346  20663161.6804   20663159.2274
     -1593.5244
   6657867.55549   5163985.59844  22205898.7194   22205898.2504
     -3606.2314
  -1871481.69147  -1448027.53542  23786749.6334   23786749.7154
      2714.5394
   3785789.31348   2936683.30944  23011973.9924   23011970.3014
     -2335.6174
   4357325.10249   3377151.31345  22223835.1954   22223830.5824
     -2279.1894
 04  9  1 15 13 30.0010000  0  7G11G25G14G15G 1G19G22
  -3662112.89848  -3697601.07844  22891860.7314   22891858.7784
      2245.2464
  -4100931.26248  -3184074.37943  22915054.8024   22915054.5324
      2731.3204
   2295184.77049   1780704.41446  20667729.4814   20667727.0714
     -1600.1794
   6712044.96948   5206201.73444  22216208.3964   22216207.6224
     -3611.8284
  -1912151.11746  -1479717.97742  23779010.6854   23779010.8564
      2711.2954
   3820924.18048   2964061.10244  23018659.7394   23018656.3064
     -2342.3244
   4391555.74249   3403824.52045  22230348.9664   22230344.6854
     -2282.0434
 04  9  1 15 13 45.0010000  0  7G11G25G14G15G 1G19G22
  -3695709.34048  -3723780.13343  22885467.6694   22885465.3844
      2239.7634
  -4141842.86748  -3215953.53543  22907269.5054   22907268.0634
      2727.4404
   2319284.61349   1799483.50447  20672315.4034   20672312.8104
     -1606.6564
   6766299.57448   5248478.02044  22226532.3104   22226531.9464
     -3616.9744
  -1952765.53947  -1511365.59842  23771282.3724   23771282.7204
      2707.6284
   3856155.41448   2991513.97344  23025363.4584   23025360.0914
     -2348.7494
   4425825.46149   3430528.18045  22236869.9504   22236865.2084
     -2284.6484
 04  9  1 15 14  0.0010000  0  7G11G25G14G15G 1G19G22
  -3729225.78548  -3749896.84443  22879089.6614   22879087.0914
      2234.4304
  -4182698.94147  -3247789.44943  22899494.4894   22899494.1464
      2723.7384
   2343482.58649   1818339.05946  20676920.0134   20676917.2714
     -1613.1984
   6820634.48449   5290816.86344  22236872.0914   22236872.6104
     -3622.3274
  -1993327.91047  -1542972.62942  23763562.9744   23763563.5914
      2704.1584
   3891484.66448   3019043.23044  23032086.8414   23032083.3064
     -2355.2834
   4460136.15249   3457263.77045  22243398.8334   22243394.4234
     -2287.3794
 04  9  1 15 14 15.0010000  0  7G11G25G14G15G 1G19G22
  -3762662.52048  -3775951.43444  22872726.9034   22872724.0954
      2229.1164
  -4223499.98848  -3279582.44543  22891731.5524   22891730.0324
      2720.0704
   2367778.00049   1837270.54747  20681543.3564   20681540.5834
     -1619.6944
   6875048.87949   5333217.63744  22247227.0284   22247226.5094
     -3627.6264
  -2033838.66447  -1574539.47742  23755854.2784   23755853.6884
      2700.7174
   3926910.97348   3046648.11344  23038828.5444   23038824.4784
     -2361.7544
   4494487.21949   3484030.80545  22249936.4974   22249931.6184
     -2290.0714
 04  9  1 15 14 30.0010000  0  7G11G25G14G15G 1G19G22
  -3796018.85548  -3801943.38744  22866379.2784   22866377.2164
      2223.7564
  -4264244.90648  -3311331.72743  22883977.3414   22883976.4314
      2716.3284
   2392171.10249   1856278.14847  20686185.1774   20686182.7284
     -1626.2074
   6929542.84048   5375680.43444  22257596.8334   22257596.2634
     -3632.9314
  -2074297.23846  -1606065.60242  23748155.0834   23748154.3064
      2697.2384
   3962434.43448   3074328.69544  23045588.2714   23045583.2514
     -2368.2314
   4528879.07449   3510829.64145  22256480.8564   22256476.0954
     -2292.7904
 04  9  1 15 14 45.0010000  0  7G11G25G14G15G 1G19G22
  -3829294.04348  -3827872.12143  22860047.6464   22860044.3564
      2218.3464
  -4304933.11348  -3343036.80543  22876234.6304   22876234.0524
      2712.5474
   2416661.92249   1875361.89847  20690845.6224   20690843.1534
     -1632.7214
   6984116.71148   5418205.50444  22267981.8254   22267981.5364
     -3638.2584
  -2114702.94946  -1637550.57842  23740466.3414   23740465.6614
      2693.7144
   3998055.22748   3102085.12544  23052367.1854   23052362.9814
     -2374.7204
   4563312.25049   3537660.66045  22263032.6534   22263028.5364
     -2295.5454
 04  9  1 15 15  0.0010000  0  7G11G25G14G15G 1G19G22
  -3862488.82848  -3853738.18043  22853730.5054   22853728.1774
      2212.9864
  -4345565.16448  -3374698.14143  22868502.5914   22868501.7084
      2708.8034
   2441249.37549   1894520.94547  20695524.7164   20695521.7004
     -1639.1644
   7038769.16848   5460791.78944  22278381.6774   22278381.5444
     -3643.4974
  -2155056.64147  -1668994.98842  23732787.4424   23732786.9384
      2690.2464
   4033772.05948   3129916.38744  23059163.8804   23059159.6184
     -2381.1224
   4597785.61749   3564523.02045  22269593.1144   22269588.7164
     -2298.2244
 04  9  1 15 15 15.0010000  0  7G11G25G14G15G 1G19G22
  -3895602.55948  -3879541.08243  22847429.5994   22847426.3294
      2207.5824
  -4386140.44548  -3406315.22743  22860781.0524   22860780.3334
      2705.0194
   2465933.45749   1913755.28546  20700222.1464   20700218.5564
     -1645.6054
   7093500.27748   5503439.37544  22288796.9894   22288796.6534
     -3648.7414
  -2195357.82846  -1700398.53542  23725117.7864   23725117.8534
      2686.7464
   4069584.89848   3157822.46944  23065978.3414   23065974.5994
     -2387.5234
   4632299.67249   3591417.07045  22276160.7714   22276156.3174
     -2300.9374
 04  9  1 15 15 30.0010000  0  7G11G25G14G15G 1G19G22
  -3928635.14848  -3905280.77044  22841143.7394   22841141.0754
      2202.1734
  -4426658.81648  -3437887.96144  22853071.5524   22853070.5244
      2701.2254
   2490713.77049   1933064.60947  20704937.2244   20704934.4624
     -1652.0214
   7148309.65248   5546147.91844  22299226.9354   22299226.7084
     -3653.9584
  -2235606.68446  -1731761.30142  23717459.2784   23717458.8884
      2683.2574
   4105493.11748   3185802.85544  23072811.5134   23072807.2714
     -2393.8814
   4666854.05549   3618342.52745  22282736.5674   22282732.6184
     -2303.6264
 04  9  1 15 15 45.0010000  0  7G11G25G14G15G 1G19G22
  -3961585.87948  -3930956.66444  22834872.9194   22834871.6184
      2196.7154
  -4467119.27748  -3469415.58644  22845372.1384   22845370.8414
      2697.3644
   2515590.60949   1952449.14847  20709671.3724   20709668.2284
     -1658.4564
   7203197.48049   5588917.62944  22309671.5914   22309671.0714
     -3659.1894
  -2275802.41046  -1763082.65642  23709809.3414   23709809.8064
      2679.7154
   4141497.06348   3213857.85544  23079662.9504   23079658.7124
     -2400.2634
   4701449.35249   3645299.89545  22289319.5364   22289315.2514
     -2306.3534
 04  9  1 15 16  0.0010000  0  7G11G25G14G15G 1G19G22
  -3994454.26248  -3956568.37544  22828618.3254   22828615.9664
      2191.2264
  -4507521.49648  -3500897.83244  22837683.5364   22837682.0634
      2693.4814
   2540563.89149   1971908.84046  20714423.4664   20714420.6384
     -1664.8854
   7258163.64848   5631748.34044  22320131.8804   22320130.5834
     -3664.4114
  -2315944.88747  -1794362.49242  23702171.3334   23702170.3994
      2676.1654
   4177596.37148   3241987.16844  23086532.2164   23086528.5834
     -2406.6214
   4736085.61349   3672289.17245  22295910.3564   22295906.4464
     -2309.0844
 04  9  1 15 16 15.0010000  0  7G11G25G14G15G 1G19G22
  -4027239.60248  -3982115.40244  22822379.8964   22822377.6854
      2185.6894
  -4547864.72748  -3532334.08644  22830006.9424   22830006.5214
      2689.5494
   2565633.99649   1991443.98447  20719194.1774   20719191.4784
     -1671.3404
   7313208.35948   5674640.30544  22330606.1224   22330605.9314
     -3669.6474
  -2356033.46147  -1825600.32843  23694542.3494   23694542.1144
      2672.5724
   4213791.23048   3270190.93044  23093420.0284   23093415.8374
     -2412.9914
   4770763.29749   3699310.72745  22302510.0284   22302505.3064
     -2311.8464
 04  9  1 15 16 30.0010000  0  7G11G25G14G15G 1G19G22
  -4059942.39548  -4007598.09444  22816156.6924   22816154.5524
      2180.1864
  -4588149.46948  -3563724.80944  22822340.7784   22822338.9154
      2685.6494
   2590799.73049   2011053.64846  20723982.8334   20723980.1034
     -1677.7164
   7368330.60248   5717592.65644  22341095.8644   22341095.0364
     -3674.8164
  -2396068.78147  -1856796.68042  23686924.1534   23686923.7594
      2669.0214
   4250080.46148   3298468.19544  23100325.5914   23100321.9354
     -2419.2824
   4805481.55549   3726363.89545  22309116.1144   22309111.8564
     -2314.5514
 04  9  1 15 16 45.0010000  0  7G11G25G14G15G 1G19G22
  -4092561.64849  -4033015.69544  22809949.4424   22809947.6264
      2174.6174
  -4628374.41048  -3595068.92644  22814686.2244   22814683.9664
      2681.6634
   2616061.62549   2030738.22746  20728790.0674   20728787.3134
     -1684.1264
   7423530.86748   5760605.82444  22351599.9194   22351599.3104
     -3680.0184
  -2436049.87947  -1887950.78942  23679315.9744   23679315.4504
      2665.4074
   4286464.48048   3326819.35244  23107249.1384   23107246.1574
     -2425.6014
   4840241.18049   3753449.30545  22315730.7314   22315726.9074
     -2317.3084
 04  9  1 15 17  0.0010000  0  7G11G25G14G15G 1G19G22
  -4125097.18748  -4058368.04344  22803758.1924   22803755.4584
      2169.0364
  -4668539.55948  -3626366.42243  22807042.8644   22807041.6304
      2677.6774
   2641419.23849   2050497.40247  20733615.7714   20733612.8844
     -1690.5084
   7478808.68848   5803679.37544  22362119.0444   22362118.0404
     -3685.1884
  -2475976.95747  -1919062.79342  23671718.2314   23671718.0564
      2661.8054
   4322942.69948   3355243.89844  23114190.9584   23114187.6494
     -2431.8814
   4875041.92249   3780566.73845  22322353.2474   22322349.4154
     -2320.0494
 04  9  1 15 17 15.0010000  0  7G11G25G14G15G 1G19G22
  -4157548.92248  -4083655.11744  22797582.8884   22797580.2744
      2163.4494
  -4708644.82448  -3657617.25443  22799411.2244   22799409.1384
      2673.6844
   2666872.10249   2070330.80146  20738458.9504   20738456.4624
     -1696.8584
   7534163.63348   5846813.04744  22372652.9354   22372651.6694
     -3690.3304
  -2515849.93047  -1950132.64842  23664131.1384   23664130.4894
      2658.1984
   4359514.69948   3383741.53944  23121150.2314   23121147.1494
     -2438.1334
   4909883.62549   3807716.11745  22328983.2714   22328979.3534
     -2322.7804
 04  9  1 15 17 30.0010000  0  7G11G25G14G15G 1G19G22
  -4189915.91049  -4108876.15244  22791423.2864   22791420.9584
      2157.7994
  -4748688.87148  -3688820.38744  22791790.7004   22791789.7714
      2669.6034
   2692420.84849   2090238.90646  20743320.6534   20743318.1494
     -1703.2504
   7589596.23848   5890007.25444  22383200.9034   22383201.3174
     -3695.5074
  -2555667.98847  -1981159.70742  23656553.8334   23656553.6264
      2654.5374
   4396180.84048   3412312.53144  23128127.7004   23128123.9584
     -2444.4094
   4944767.05949   3834897.99245  22335621.3644   22335617.9074
     -2325.5624
 04  9  1 15 17 45.0010000  0  7G11G25G14G15G 1G19G22
  -4222198.66848  -4134031.55544  22785280.4894   22785278.3254
      2152.1844
  -4788672.36348  -3719976.35243  22784181.7634   22784180.4464
      2665.5664
   2718064.45348   2110220.92646  20748200.6694   20748197.6424
     -1709.5744
   7645105.39548   5933261.11344  22393764.6854   22393762.9114
     -3700.6104
  -2595431.76647  -2012144.46542  23648986.4584   23648986.4664
      2650.9184
   4432939.93048   3440955.94944  23135122.3724   23135119.0134
     -2450.6064
   4979691.50049   3862111.82845  22342267.1694   22342263.5054
     -2328.2964
 04  9  1 15 18  0.0010000  0  7G11G25G14G15G 1G19G22
  -4254397.13748  -4159121.27044  22779153.4354   22779151.4934
      2146.5654
  -4828595.19548  -3751085.03143  22776584.5364   22776584.0484
      2661.5224
   2743802.33649   2130276.41047  20753098.6384   20753095.6494
     -1715.8594
   7700690.58248   5976574.16044  22404342.9194   22404341.3104
     -3705.6794
  -2635141.42647  -2043087.06242  23641430.4274   23641429.8604
      2647.3114
   4469791.29748   3469671.27344  23142134.8964   23142132.2864
     -2456.7584
   5014656.43849   3889357.21945  22348920.7944   22348917.7084
     -2330.9964
 04  9  1 15 18 15.0010000  0  7G11G25G14G15G 1G19G22
  -4286509.73448  -4184144.06244  22773042.3724   22773040.3214
      2140.8404
  -4868455.80148  -3782145.25043  22768999.8494   22768998.1574
      2657.3744
   2769635.45749   2150406.10247  20758014.4274   20758011.3844
     -1722.2084
   7756352.71548   6019947.24644  22414934.1924   22414933.2674
     -3710.8094
  -2674795.66447  -2073986.48842  23633884.1144   23633883.5604
      2643.6164
   4506736.05148   3498459.34044  23149165.3174   23149162.0404
     -2462.9844
   5049663.19949   3916635.18445  22355582.6464   22355578.5484
     -2333.7844
 04  9  1 15 18 30.0010000  0  7G11G25G14G15G 1G19G22
  -4318537.54748  -4209100.81644  22766947.7474   22766944.8604
      2135.1884
  -4908255.20748  -3813157.75843  22761425.7164   22761424.7204
      2653.2944
   2795562.30949   2170608.84846  20762948.0524   20762945.3764
     -1728.4574
   7812090.28548   6063379.06344  22425541.0674   22425540.5604
     -3715.8384
  -2714395.62948  -2104843.60943  23626349.0134   23626348.1534
      2639.9984
   4543772.27048   3527318.71144  23156213.3804   23156210.1264
     -2469.0814
   5084710.43049   3943944.69145  22362251.8174   22362248.3214
     -2336.4824
 04  9  1 15 18 45.0010000  0  7G11G25G14G15G 1G19G22
  -4350480.68748  -4233991.56644  22760868.7864   22760866.2314
      2129.5434
  -4947993.20348  -3844122.45344  22753864.5054   22753863.9384
      2649.2004
   2821582.41049   2190884.24246  20767899.7784   20767896.8534
     -1734.6734
   7867902.72748   6106869.25444  22436161.6774   22436160.6964
     -3720.8294
  -2753941.32447  -2135658.44943  23618823.7784   23618823.1814
      2636.3804
   4580899.49648   3556248.99244  23163278.2164   23163274.9424
     -2475.1484
   5119797.85548   3971285.53145  22368928.8104   22368924.7744
     -2339.1624
 04  9  1 15 19  0.0010000  0  7G11G25G14G15G 1G19G22
  -4382338.44148  -4258815.78544  22754806.6144   22754803.9194
      2123.8504
  -4987669.31248  -3875038.87544  22746314.3174   22746313.5604
      2645.0744
   2847695.77349   2211232.31646  20772868.9974   20772866.2204
     -1740.8914
   7923790.06348   6150417.78544  22446796.7864   22446796.1494
     -3725.8224
  -2793432.46547  -2166430.77043  23611308.4354   23611308.4194
      2632.7434
   4618117.73448   3585250.17244  23170360.6924   23170357.7204
     -2481.2164
   5154925.78549   3998657.93445  22375613.5674   22375609.6694
     -2341.8624
 04  9  1 15 19 15.0010000  0  7G11G25G14G15G 1G19G22
  -4414109.45348  -4283572.41844  22748760.2004   22748757.9744
      2118.0674
  -5027281.91048  -3905905.82844  22738776.4274   22738775.9194
      2640.8404
   2873903.28549   2231653.75047  20777856.0834   20777853.5324
     -1747.1674
   7979753.24648   6194025.39844  22457445.3724   22457445.8024
     -3730.8794
  -2832867.74247  -2197159.56643  23603804.4504   23603804.1104
      2629.0184
   4655427.51248   3614322.69544  23177460.6464   23177457.1614
     -2487.3184
   5190095.39149   4026062.78545  22382306.1384   22382301.8804
     -2344.6404
 04  9  1 15 19 30.0010000  0  7G11G25G14G15G 1G19G22
  -4445794.00448  -4308261.67644  22742731.4504   22742728.9544
      2112.3034
  -5066831.41448  -3936723.61744  22731250.1144   22731249.6774
      2636.6344
   2900204.14149   2252147.91046  20782860.7634   20782858.3494
     -1753.3904
   8035791.39548   6237691.45344  22468110.4664   22468109.2514
     -3735.8774
  -2872247.58647  -2227845.17243  23596311.2944   23596310.6144
      2625.3234
   4692828.03148   3643465.91444  23184578.1924   23184574.2394
     -2493.3684
   5225306.00449   4053499.62545  22389006.4814   22389002.0364
     -2347.3744
 04  9  1 15 19 45.0010000  0  7G11G25G14G15G 1G19G22
  -4477392.55148  -4332883.93744  22736718.4274   22736715.9784
      2106.5704
  -5106318.11748  -3967492.46544  22723735.7314   22723734.8214
      2632.4474
   2926597.44149   2272714.10947  20787883.3104   20787880.6884
     -1759.5534
   8091903.43848   6281415.08244  22478786.9974   22478787.4584
     -3740.8034
  -2911572.65646  -2258488.06643  23588826.6464   23588827.3104
      2621.6714
   4730318.36348   3672679.10944  23191712.2554   23191708.5444
     -2499.3554
   5260556.89149   4080967.82045  22395714.5834   22395710.9354
     -2350.0594
 04  9  1 15 20  0.0010000  0  7G11G25G14G15G 1G19G22
  -4508904.28948  -4357438.54744  22730721.6774   22730719.9384
      2100.7834
  -5145741.19148  -3998211.73444  22716233.7314   22716233.3684
      2628.2054
   2953083.35249   2293352.48047  20792923.5214   20792920.6924
     -1765.7274
   8148089.60948   6325196.48844  22489479.0604   22489479.2284
     -3745.7454
  -2950842.28546  -2289087.78543  23581354.2314   23581354.7164
      2617.9754
   4767898.36748   3701962.19944  23198863.6694   23198859.8064
     -2505.3344
   5295848.55949   4108467.82045  22402430.2864   22402425.7314
     -2352.7784
 04  9  1 15 20 15.0010000  0  7G11G25G14G15G 1G19G22
  -4540329.00848  -4381925.32444  22724741.2314   22724740.2204
      2094.9814
  -5185100.21148  -4028881.09044  22708744.6924   22708743.7244
      2623.9354
   2979661.77749   2314062.93046  20797980.9034   20797978.4814
     -1771.8954
   8204349.78148   6369035.53544  22500185.2714   22500185.2744
     -3750.6784
  -2990056.23447  -2319644.11342  23573892.7714   23573892.1884
      2614.2634
   4805567.94148   3731315.06644  23206031.7084   23206028.8924
     -2511.3054
   5331181.08649   4135999.64145  22409153.4664   22409149.9194
     -2355.5024
 04  9  1 15 20 30.0010000  0  7G11G25G14G15G 1G19G22
  -4571666.91848  -4406344.46543  22718777.8024   22718776.1884
      2089.1944
  -5224395.52348  -4059500.79744  22701266.8174   22701266.1464
      2619.6884
   3006331.87549   2334844.82046  20803055.9894   20803053.2864
     -1778.0074
   8260683.07048   6412931.54344  22510906.0134   22510905.5954
     -3755.5534
  -3029215.02347  -2350157.45743  23566440.7554   23566439.6534
      2610.5864
   4843326.05548   3760736.94144  23213217.3564   23213213.3924
     -2517.2084
   5366553.83249   4163562.79745  22415884.9354   22415881.0874
     -2358.1834
 04  9  1 15 20 45.0010000  0  7G11G25G14G15G 1G19G22
  -4602917.15648  -4430695.28144  22712831.5134   22712829.4584
      2083.3494
  -5263626.26648  -4090070.20744  22693801.1694   22693800.5094
      2615.3834
   3033093.81649   2355698.27046  20808149.1144   20808146.0364
     -1784.1294
   8317089.69148   6456884.73444  22521639.0994   22521639.0364
     -3760.4414
  -3068317.98847  -2380627.29342  23558999.9664   23558998.1344
      2606.8644
   4881172.96548   3790228.00444  23220418.7554   23220415.0404
     -2523.1274
   5401967.24649   4191157.63745  22422623.7164   22422619.9074
     -2360.8944
 04  9  1 15 21  0.0010000  0  7G11G25G14G15G 1G19G22
  -4634080.24248  -4454978.21144  22706901.7784   22706898.4894
      2077.5394
  -5302792.71548  -4120589.52044  22686348.2554   22686347.0094
      2611.0974
   3059946.75449   2376622.62546  20813258.9424   20813255.9314
     -1790.1964
   8373568.74248   6500894.32844  22532386.9584   22532386.5054
     -3765.2704
  -3107365.75047  -2411054.13742  23551569.2244   23551567.6694
      2603.1844
   4919107.50448   3819787.35944  23227637.2244   23227634.0994
     -2528.9694
   5437420.64548   4218783.64145  22429370.5994   22429366.2084
     -2363.5604
 04  9  1 15 21 15.0010000  0  7G11G25G14G15G 1G19G22
  -4665154.45348  -4479191.90244  22700988.7784   22700985.2474
      2071.6144
  -5341893.16048  -4151057.38344  22678907.8494   22678905.9504
      2606.6964
   3086891.90249   2397618.84846  20818386.4894   20818383.3924
     -1796.3434
   8430121.30948   6544961.22344  22543148.4584   22543148.0174
     -3770.1714
  -3146356.68747  -2441436.67242  23544149.3724   23544148.7124
      2599.3964
   4957130.71548   3849415.79743  23234873.2784   23234870.2904
     -2534.8814
   5472915.43848   4246441.90645  22436124.7394   22436120.8104
     -2366.3204
 04  9  1 15 21 30.0010000  0  7G11G25G14G15G 1G19G22
  -4696140.00848  -4503336.50044  22695091.5444   22695088.4034
      2065.7044
  -5380927.87948  -4181474.03544  22671479.2634   22671477.9074
      2602.3154
   3113928.44149   2418686.27046  20823531.1534   20823528.5634
     -1802.4364
   8486746.73048   6589084.87944  22553923.8964   22553923.6814
     -3775.0284
  -3185291.18746  -2471775.24642  23536740.9894   23536739.8964
      2595.6334
   4995241.90248   3879112.78543  23242124.8414   23242121.5674
     -2540.7464
   5508451.16848   4274132.06345  22442886.9424   22442883.0094
     -2369.0494
 04  9  1 15 21 45.0010000  0  7G11G25G14G15G 1G19G22
  -4727036.79348  -4527411.91044  22689212.7474   22689209.5324
      2059.7864
  -5419896.53948  -4211839.21544  22664064.4194   22664063.5604
      2597.9114
   3141056.12549   2439824.71546  20828693.3104   20828690.5134
     -1808.5124
   8543444.55547   6633264.95344  22564712.8104   22564712.7434
     -3779.8554
  -3224169.25047  -2502069.84042  23529341.5914   23529340.4274
      2591.8714
   5033440.48848   3908877.87944  23249394.4114   23249390.6694
     -2546.5724
   5544027.75448   4301854.05945  22449657.2944   22449652.9584
     -2371.7724
 04  9  1 15 22  0.0010000  0  7G11G25G14G15G 1G19G22
  -4757844.46948  -4551417.87144  22683349.6614   22683346.6424
      2053.8454
  -5458798.69148  -4242152.55544  22656660.8564   22656659.4854
      2593.4774
   3168274.82049   2461034.08646  20833873.1534   20833870.0874
     -1814.5804
   8600214.73848   6677501.44544  22575515.6464   22575515.6304
     -3784.6794
  -3262990.53547  -2532320.19142  23521954.2394   23521953.2204
      2588.0864
   5071726.34848   3938710.98044  23256679.7474   23256676.6104
     -2552.3914
   5579645.29748   4329607.96945  22456435.0284   22456431.1034
     -2374.5034
 04  9  1 15 22 15.0010000  0  7G11G25G14G15G 1G19G22
  -4788562.78548  -4575354.23444  22677504.4584   22677500.9584
      2047.8884
  -5497634.21948  -4272413.98844  22649271.2864   22649269.7084
      2589.0354
   3195584.10549   2482314.03146  20839069.8964   20839066.7124
     -1820.6194
   8657056.75847   6721793.85944  22586332.6924   22586332.7124
     -3789.4684
  -3301755.20347  -2562526.41842  23514577.1304   23514576.5284
      2584.3114
   5110098.80548   3968611.57444  23263982.0754   23263978.6534
     -2558.1644
   5615303.36748   4357393.46945  22463220.7474   22463215.8994
     -2377.2054
 04  9  1 15 22 30.0010000  0  7G11G25G14G15G 1G19G22
  -4819191.67648  -4599220.91444  22671676.1224   22671672.8174
      2041.9264
  -5536403.08247  -4302623.47344  22641893.1304   22641892.2554
      2584.5914
   3222983.39549   2503664.12146  20844283.8334   20844281.0484
     -1826.6194
   8713970.20748   6766141.96944  22597163.0754   22597162.5834
     -3794.2304
  -3340463.31247  -2592688.58643  23507211.3024   23507211.3134
      2580.5414
   5148557.37148   3998579.24644  23271300.4274   23271296.4034
     -2563.9044
   5651001.98848   4385210.55145  22470013.9354   22470009.5604
     -2379.9084
 04  9  1 15 22 45.0010000  0  7G11G25G14G15G 1G19G22
  -4849731.60948  -4623018.27344  22665864.5914   22665861.7824
      2035.9964
  -5575105.45747  -4332781.15644  22634528.6774   22634527.3994
      2580.1584
   3250471.91849   2525083.74646  20849514.6064   20849512.0324
     -1832.5684
   8770954.08648   6810544.94144  22608006.9894   22608006.4234
     -3798.9254
  -3379115.40247  -2622807.08642  23499856.6304   23499856.6884
      2576.8064
   5187101.01248   4028613.20343  23278635.0214   23278631.2084
     -2569.5764
   5686740.43848   4413058.68845  22476814.7004   22476810.2474
     -2382.5634
 04  9  1 15 23  0.0010000  0  7G11G25G14G15G 1G19G22
  -4880181.89549  -4646745.75844  22660070.2634   22660067.5524
      2030.0194
  -5613740.46548  -4362886.33244  22627176.4274   22627174.6574
      2575.6674
   3278049.88349   2546573.05547  20854762.6064   20854759.8294
     -1838.5314
   8828008.55548   6855002.94144  22618863.5214   22618862.8024
     -3803.6314
  -3417710.93747  -2652881.50442  23492512.5524   23492511.5754
      2573.0364
   5225729.78148   4058713.50043  23285985.9194   23285982.3684
     -2575.2514
   5722519.14548   4440938.18045  22483622.9504   22483619.3134
     -2385.2474
 04  9  1 15 23 15.0010000  0  7G11G25G14G15G 1G19G22
  -4910541.79749  -4670402.83244  22654293.1064   22654290.3334
      2023.9934
  -5652307.66448  -4392938.67644  22619837.9894   22619835.8134
      2571.1474
   3305717.35249   2568132.10946  20860027.4354   20860024.7714
     -1844.4984
   8885133.62548   6899515.93044  22629734.3804   22629733.2434
     -3808.3384
  -3456249.46547  -2682911.55142  23485178.6464   23485177.4074
      2569.2354
   5264443.53948   4088880.05943  23293353.2394   23293349.3254
     -2580.9174
   5758338.41048   4468849.27745  22490438.9034   22490435.2674
     -2387.9514
 04  9  1 15 23 30.0010000  0  7G11G25G14G15G 1G19G22
  -4940809.72749  -4693988.21544  22648533.4744   22648530.1424
      2017.8624
  -5690805.39548  -4422936.88344  22612511.6304   22612509.8214
      2566.5154
   3333475.47749   2589761.80946  20865309.7784   20865306.8254
     -1850.5424
   8942330.50848   6944084.89544  22640618.3414   22640617.8414
     -3813.1264
  -3494729.36747  -2712895.89143  23477856.2944   23477855.7554
      2565.3274
   5303243.54748   4119113.77744  23300736.8104   23300732.6924
     -2586.6674
   5794199.73048   4496793.13744  22497263.2864   22497259.6964
     -2390.7554
 04  9  1 15 23 45.0010000  0  7G11G25G14G15G 1G19G22
  -4970986.27349  -4717502.41844  22642791.3334   22642787.2744
      2011.7704
  -5729234.03148  -4452881.27744  22605199.0994   22605196.8994
      2561.9094
   3361323.10249   2611461.26247  20870608.9504   20870605.9814
     -1856.5084
   8999597.98048   6988708.87544  22651516.4274   22651514.6144
     -3817.8324
  -3533151.41047  -2742835.12542  23470544.8964   23470544.4274
      2561.4704
   5342128.47748   4149413.69943  23308135.9974   23308132.1344
     -2592.3294
   5830102.08248   4524768.98445  22504095.2864   22504091.9464
     -2393.4904
 04  9  1 15 24  0.0010000  0  7G11G25G14G15G 1G19G22
  -5001071.54749  -4740945.51244  22637066.2714   22637062.7244
      2005.6854
  -5767593.73848  -4482771.93744  22597899.5284   22597897.8604
      2557.3144
   3389259.62549   2633229.97746  20875924.6464   20875922.1534
     -1862.4354
   9056935.48448   7033387.39144  22662427.5604   22662426.4784
     -3822.5004
  -3571515.93046  -2772729.54742  23463243.4114   23463243.5404
      2557.6354
   5381097.56648   4179779.18844  23315552.4744   23315548.3884
     -2597.9394
   5866045.12948   4552776.53545  22510934.7784   22510931.3294
     -2396.2034
 04  9  1 15 24 15.0010000  0  7G11G25G14G15G 1G19G22
  -5031064.91049  -4764316.96544  22631357.9114   22631355.0754
      1999.5584
  -5805883.56648  -4512608.15644  22590613.5054   22590612.6104
      2552.6554
   3417285.27749   2655068.14547  20881258.0834   20881255.0834
     -1868.3774
   9114343.20348   7078120.62944  22673351.5134   22673351.6534
     -3827.1814
  -3609822.35247  -2802578.69542  23455955.2864   23455954.3684
      2553.7614
   5420150.95748   4210210.36344  23322983.4034   23322979.8174
     -2603.5594
   5902029.23048   4580816.08245  22517782.3024   22517779.2554
     -2398.9404
 04  9  1 15 24 30.0010000  0  7G11G25G14G15G 1G19G22
  -5060966.75848  -4787617.09444  22625667.8334   22625665.7984
      1993.4574
  -5844104.01248  -4542390.28944  22583340.3724   22583339.2744
      2548.0304
   3445399.02049   2676974.94546  20886608.1924   20886605.5674
     -1874.2494
   9171820.06348   7122907.77043  22684289.0994   22684288.5914
     -3831.7914
  -3648071.24247  -2832383.02042  23448676.5364   23448675.2944
      2549.9264
   5459287.42248   4240706.27044  23330430.9194   23330426.9934
     -2609.0984
   5938053.90648   4608887.23445  22524637.7314   22524634.2164
     -2401.6454
 04  9  1 15 24 45.0010000  0  7G11G25G14G15G 1G19G22
  -5090775.43049  -4810844.62144  22619995.4274   22619992.5634
      1987.2454
  -5882253.50848  -4572117.15244  22576080.2164   22576079.3804
      2543.3004
   3473601.89549   2698951.20347  20891974.4894   20891972.2394
     -1880.1924
   9229367.09848   7167749.54744  22695240.2084   22695240.3494
     -3836.4694
  -3686261.26647  -2862141.45742  23441408.2634   23441408.6614
      2546.0024
   5498507.87548   4271267.61743  23337894.5674   23337890.3684
     -2614.6974
   5974120.16048   4636990.80144  22531501.0994   22531497.8174
     -2404.4174
 04  9  1 15 25  0.0010000  0  7G11G25G14G15G 1G19G22
  -5120491.62548  -4834000.09444  22614340.9504   22614338.1854
      1981.0804
  -5920332.53548  -4601789.10944  22568834.5364   22568833.1654
      2538.6024
   3501892.87949   2720996.11346  20897358.2944   20897355.9354
     -1886.0664
   9286983.14848   7212645.12943  22706204.7084   22706203.1964
     -3841.0704
  -3724393.05947  -2891854.53142  23434152.5214   23434152.3254
      2542.1204
   5537811.16448   4301893.53143  23345373.5214   23345369.7674
     -2620.2194
   6010227.19148   4665126.13344  22538372.1694   22538368.4934
     -2407.1354
 04  9  1 15 25 15.0010000  0  7G11G25G14G15G 1G19G22
  -5150115.81249  -4857083.86744  22608703.3494   22608700.3334
      1974.9464
  -5958341.45348  -4631406.43744  22561600.8884   22561600.3604
      2533.9284
   3530271.17649   2743109.06646  20902758.3724   20902756.3804
     -1891.8864
   9344667.29748   7257593.77743  22717181.0674   22717181.2204
     -3845.6104
  -3762467.16847  -2921522.67243  23426907.2634   23426907.3494
      2538.2744
   5577196.36748   4332583.27044  23352868.5054   23352865.5244
     -2625.6804
   6046374.36349   4693292.73445  22545250.4354   22545247.0214
     -2409.8114
 04  9  1 15 25 30.0010000  0  7G11G25G14G15G 1G19G22
  -5179646.89149  -4880095.10244  22603084.0834   22603080.4854
      1968.7394
  -5996279.21148  -4660968.29344  22554382.2244   22554381.6464
      2529.1844
   3558737.13749   2765290.31646  20908175.3024   20908173.3764
     -1897.7314
   9402420.01248   7302595.84843  22728171.1224   22728171.1344
     -3850.1814
  -3800482.74247  -2951145.17643  23419673.7394   23419672.7744
      2534.3724
   5616663.81348   4363337.09043  23360378.6614   23360375.5134
     -2631.1634
   6082562.39148   4721491.19145  22552137.0214   22552134.0484
     -2412.5354
 04  9  1 15 25 45.0010000  0  7G11G25G14G15G 1G19G22
  -5209084.96948  -4903033.87944  22597481.8414   22597478.1224
      1962.5394
  -6034146.00848  -4690474.87944  22547176.5054   22547175.3494
      2524.4534
   3587289.88349   2787539.20746  20913609.3884   20913606.6424
     -1903.5164
   9460240.48048   7347650.73044  22739174.7084   22739173.5674
     -3854.6984
  -3838440.29747  -2980722.49243  23412450.2244   23412449.4704
      2530.5044
   5656212.53948   4394154.22343  23367904.2244   23367900.0604
     -2636.5824
   6118790.73848   4749721.03945  22559031.0754   22559027.9114
     -2415.2234
 04  9  1 15 26  0.0010000  0  7G11G25G14G15G 1G19G22
  -5238429.33248  -4925899.60544  22591897.7244   22591894.6184
      1956.2914
  -6071941.06248  -4719925.54744  22539983.5674   22539983.4894
      2519.6704
   3615929.88349   2809856.07846  20919059.1694   20919056.2004
     -1909.3334
   9518129.01247   7392758.63743  22750189.3804   22750189.5484
     -3859.2354
  -3876339.14848  -3010254.07443  23405238.6224   23405237.0404
      2526.5904
   5695842.68848   4425034.83643  23375446.5364   23375442.2314
     -2642.0104
   6155059.92249   4777982.73845  22565933.2864   22565929.4074
     -2417.9464
 04  9  1 15 26 15.0010000  0  7G11G25G14G15G 1G19G22
  -5267680.75849  -4948692.93044  22586332.1224   22586328.8804
      1950.0954
  -6109664.91448  -4749320.73044  22532805.0214   22532804.3964
      2514.9234
   3644655.91849   2832240.00046  20924525.5604   20924522.4354
     -1915.0694
   9576084.36748   7437918.61743  22761218.4974   22761218.3764
     -3863.6904
  -3914180.11748  -3039740.52743  23398037.7784   23398036.7634
      2522.7314
   5735553.04348   4455977.91443  23383002.7164   23382999.1224
     -2647.3574
   6191369.05549   4806275.53945  22572842.9034   22572838.4744
     -2420.6094
 04  9  1 15 26 30.0010000  0  7G11G25G14G15G 1G19G22
  -5296837.79749  -4971412.70344  22580784.0754   22580780.5364
      1943.8034
  -6147316.01648  -4778659.24244  22525640.0214   22525640.0174
      2510.0734
   3673468.82449   2854691.61346  20930008.1304   20930005.1614
     -1920.8604
   9634107.37148   7483131.30943  22772259.4274   22772259.2044
     -3868.2004
  -3951961.96147  -3069180.92643  23390848.4894   23390846.7434
      2518.7904
   5775344.25448   4486984.00043  23390574.5674   23390571.5674
     -2652.7474
   6227719.14548   4834600.25845  22579760.0914   22579755.9664
     -2423.3394
 04  9  1 15 26 45.0010000  0  7G11G25G14G15G 1G19G22
  -5325901.80948  -4994059.98844  22575252.7164   22575250.2944
      1937.6014
  -6184895.84848  -4807942.20344  22518489.2084   22518489.3104
      2505.3224
   3702366.69549   2877209.43046  20935507.2004   20935504.2674
     -1926.5254
   9692196.04348   7528395.16043  22783313.6464   22783313.1654
     -3872.5784
  -3989686.18048  -3098576.40643  23383669.3174   23383667.8254
      2514.9484
   5815214.28948   4518051.54743  23398161.7004   23398158.6614
     -2658.0024
   6264108.56649   4862955.63745  22586684.0134   22586680.9194
     -2425.9614
 04  9  1 15 27  0.0010000  0  7G11G25G14G15G 1G19G22
  -5354871.54348  -5016633.79344  22569739.9814   22569737.4354
      1931.3164
  -6222403.06248  -4837168.57044  22511351.7784   22511351.3454
      2500.4814
   3731350.42649   2899794.14146  20941022.5674   20941020.1614
     -1932.2494
   9750351.29348   7573710.88743  22794380.4424   22794379.8414
     -3877.0174
  -4027351.60247  -3127926.09043  23376501.4424   23376501.4424
      2511.0284
   5855164.04348   4549181.16843  23405763.5604   23405760.5444
     -2663.3174
   6300538.28949   4891342.40645  22593616.9504   22593613.1384
     -2428.6484
 04  9  1 15 27 15.0010000  0  7G11G25G14G15G 1G19G22
  -5383746.40648  -5039133.65644  22564244.8254   22564242.8964
      1924.9914
  -6259836.83248  -4866337.74644  22504228.3724   22504228.0364
      2495.5854
   3760420.09849   2922445.82446  20946554.5284   20946551.7394
     -1937.9784
   9808573.12148   7619078.53543  22805459.4974   22805459.8294
     -3881.4554
  -4064957.75047  -3157229.56243  23369344.9894   23369345.2674
      2507.0774
   5895193.36348   4580372.79743  23413382.0444   23413378.0484
     -2668.6214
   6337008.79749   4919760.97345  22600557.1534   22600552.8804
     -2431.3674
 04  9  1 15 27 30.0010000  0  7G11G25G14G15G 1G19G22
  -5412525.19949  -5061558.70344  22558768.7474   22558765.7354
      1918.5864
  -6297196.18448  -4895448.89144  22497118.9034   22497118.3064
      2490.6234
   3789576.29749   2945164.93046  20952102.6774   20952099.9034
     -1943.7474
   9866862.09848   7664498.44543  22816551.7244   22816551.7284
     -3885.9324
  -4102503.71548  -3186486.15643  23362200.3804   23362199.5094
      2503.0644
   5935302.70748   4611626.80143  23421013.2474   23421010.5014
     -2673.9564
   6373520.82049   4948211.87545  22607504.5834   22607501.1224
     -2434.1354
 04  9  1 15 27 45.0010000  0  7G11G25G14G15G 1G19G22
  -5441208.92249  -5083909.67244  22553310.4194   22553307.2314
      1912.2484
  -6334481.82849  -4924502.64144  22490023.7864   22490022.7904
      2485.7104
   3818817.59449   2967950.34846  20957667.3024   20957664.0604
     -1949.4204
   9925216.72348   7709969.57043  22827656.3644   22827656.0754
     -3890.3084
  -4139990.50447  -3215696.63343  23355067.4974   23355066.2514
      2499.1194
   5975490.46948   4642941.91843  23428660.8174   23428658.1144
     -2679.1844
   6410073.14548   4976694.19545  22614460.4584   22614456.7004
     -2436.8224
 04  9  1 15 28  0.0010000  0  7G11G25G14G15G 1G19G22
  -5469797.84049  -5106186.77044  22547870.0214   22547867.0014
      1905.9284
  -6371694.14548  -4953499.21144  22482942.3724   22482941.5524
      2480.8214
   3848143.17249   2990801.43846  20963247.6534   20963244.5914
     -1955.0394
   9983636.17648   7755491.17244  22838772.6924   22838773.3844
     -3894.6304
  -4177418.61748  -3244861.41043  23347945.1144   23347943.8334
      2495.2084
   6015755.73448   4674317.40643  23436322.9974   23436320.4234
     -2684.3514
   6446665.18449   5005207.46144  22621423.5834   22621419.9274
     -2439.4694
 04  9  1 15 28 15.0010000  0  7G11G25G14G15G 1G19G22
  -5498290.95748  -5128389.20344  22542447.8644   22542445.5404
      1899.5414
  -6408831.87549  -4982437.70344  22475876.1144   22475874.5244
      2475.8494
   3877553.57449   3013718.62546  20968844.3334   20968841.1814
     -1960.6934
  10042121.02348   7801063.71543  22849902.0994   22849903.0054
     -3898.9904
  -4214787.12547  -3273979.70743  23340833.6854   23340832.5134
      2491.2344
   6056098.88748   4705753.59043  23444000.4974   23443996.8294
     -2689.5434
   6483297.84449   5033752.35944  22628395.1384   22628390.2084
     -2442.1774
 04  9  1 15 28 30.0010000  0  7G11G25G14G15G 1G19G22
  -5526687.86748  -5150516.64544  22537044.0444   22537042.2904
      1893.1274
  -6445894.74248  -5011317.85244  22468822.5604   22468821.1854
      2470.8584
   3907048.48849   3036701.68046  20974457.2164   20974453.8994
     -1966.3284
  10100670.90647   7846686.96943  22861044.0214   22861044.8764
     -3903.3264
  -4252095.87548  -3303051.45743  23333733.8494   23333733.4234
      2487.2504
   6096519.61748   4737250.23043  23451692.2554   23451689.0444
     -2694.7154
   6519970.84849   5062328.72344  22635373.0754   22635368.8414
     -2444.8674
 04  9  1 15 28 45.0010000  0  7G11G25G14G15G 1G19G22
  -5554988.25848  -5172568.89844  22531658.7244   22531656.5794
      1886.6934
  -6482882.30549  -5040139.30544  22461784.7244   22461782.3884
      2465.8384
   3936627.83249   3059750.51246  20980085.7004   20980082.5994
     -1971.9564
  10159285.68048   7892360.78143  22872198.5754   22872198.1034
     -3907.6524
  -4289344.65647  -3332076.48843  23326645.6384   23326645.9664
      2483.2524
   6137017.71548   4768807.12943  23459399.3494   23459396.4584
     -2699.8734
   6556684.49649   5090936.71144  22642359.8334   22642355.5634
     -2447.5774
 04  9  1 15 29  0.0010000  0  7G11G25G14G15G 1G19G22
  -5583192.40249  -5194546.14144  22526291.8254   22526290.0444
      1880.2764
  -6519794.84048  -5068902.31644  22454759.7084   22454758.3214
      2460.8364
   3966290.89149   3082864.57446  20985730.7084   20985727.5174
     -1977.5374
  10217964.62148   7938084.59843  22883364.3884   22883364.1654
     -3911.9294
  -4326533.98447  -3361055.17243  23319568.4584   23319568.6344
      2479.2894
   6177592.28148   4800423.63343  23467120.6304   23467117.5874
     -2704.9714
   6593438.25049   5119575.99244  22649354.0284   22649350.1534
     -2450.2504
 04  9  1 15 29 15.0010000  0  7G11G25G14G15G 1G19G22
  -5611299.10249  -5216447.47344  22520943.4114   22520940.9664
      1873.7804
  -6556631.05949  -5097605.85544  22447750.5284   22447749.4464
      2455.7484
   3996038.21949   3106044.29746  20991391.3724   20991388.3134
     -1983.1554
  10276708.22348   7983858.78944  22894543.0054   22894542.8964
     -3916.2404
  -4363662.82047  -3389986.71543  23312503.6224   23312503.3644
      2475.2564
   6218243.63348   4832099.97743  23474856.1144   23474852.6384
     -2710.0904
   6630232.89849   5148247.12544  22656355.8494   22656351.7044
     -2452.9774
 04  9  1 15 29 30.0010000  0  7G11G25G14G15G 1G19G22
  -5639308.10549  -5238272.69544  22515612.9974   22515610.7004
      1867.2674
  -6593390.77048  -5126249.77044  22440754.6304   22440754.2044
      2450.6474
   4025869.59449   3129289.51646  20997068.3564   20997065.1184
     -1988.7584
  10335516.20348   8029683.12544  22905734.2474   22905734.2244
     -3920.5324
  -4400731.09447  -3418871.06643  23305449.8804   23305449.2244
      2471.2184
   6258971.52348   4863835.96143  23482606.6694   23482603.2084
     -2715.1934
   6667068.39149   5176950.09844  22663364.8024   22663361.3294
     -2455.6994
 04  9  1 15 29 45.0010000  0  7G11G25G14G15G 1G19G22
  -5667220.29748  -5260022.44144  22510301.2164   22510298.6464
      1860.8134
  -6630074.55549  -5154834.52344  22433774.1924   22433773.2714
      2445.5864
   4055783.78949   3152599.27346  21002760.5604   21002758.1344
     -1994.2804
  10394387.25848   8075556.64843  22916937.2714   22916936.5834
     -3924.7374
  -4437739.62948  -3447708.88743  23298407.3724   23298406.5324
      2467.2364
   6299774.56348   4895630.51643  23490370.8174   23490366.8294
     -2720.2034
   6703943.80949   5205684.14545  22670382.5284   22670378.4704
     -2458.3614
 04  9  1 15 30  0.0010000  0  7G11G25G14G15G 1G19G22
  -5695034.57449  -5281695.91044  22505008.8804   22505005.2944
      1854.2854
  -6666681.39148  -5183359.30144  22426808.1774   22426806.6654
      2440.4564
   4085781.25849   3175973.92246  21008468.9354   21008466.0094
     -1999.8314
  10453321.96548   8121479.73844  22928151.6534   22928151.8134
     -3928.9804
  -4474687.55948  -3476499.48043  23291376.3254   23291375.5914
      2463.1954
   6340653.19148   4927483.93043  23498149.7714   23498146.1814
     -2725.2424
   6740859.85249   5234449.88744  22677406.8644   22677402.9114
     -2461.0704
 04  9  1 15 30 15.0010000  0  7G11G25G14G15G 1G19G22
  -5722751.24249  -5303293.32044  22499734.3334   22499731.7474
      1847.7784
  -6703211.50049  -5211824.32844  22419856.7944   22419855.8454
      2435.3414
   4115861.20749   3199412.83646  21014192.9814   21014189.9314
     -2005.3304
  10512319.42648   8167451.75043  22939378.5674   22939378.3804
     -3933.1644
  -4511575.38748  -3505243.27043  23284356.5604   23284356.5834
      2459.1894
   6381606.41048   4959395.49243  23505942.1464   23505939.5994
     -2730.2154
   6777816.07049   5263246.92244  22684439.7084   22684435.4584
     -2463.7484
 04  9  1 15 30 30.0010000  0  7G11G25G14G15G 1G19G22
  -5750369.78949  -5324814.24244  22494478.5604   22494476.5834
      1841.2364
  -6739664.32849  -5240229.11344  22412919.7784   22412918.7784
      2430.1894
   4146023.64149   3222916.02046  21019932.3724   21019930.0364
     -2010.8294
  10571379.65248   8213472.67643  22950617.6304   22950617.1774
     -3937.3484
  -4548402.73847  -3533939.89843  23277348.4664   23277348.4424
      2455.1574
   6422634.07848   4991365.06343  23513749.8334   23513746.9544
     -2735.1784
   6814812.62149   5292075.39144  22691479.8884   22691476.5994
     -2466.4374
 04  9  1 15 30 45.0010000  0  7G11G25G14G15G 1G19G22
  -5777890.83649  -5346259.20744  22489241.9894   22489239.1144
      1834.7364
  -6776040.48849  -5268574.16444  22405998.3884   22405995.9934
      2425.0774
   4176267.41849   3246482.60246  21025687.4274   21025685.3174
     -2016.2524
  10630501.36748   8259541.48443  22961868.4114   22961867.7044
     -3941.4484
  -4585170.35248  -3562589.98443  23270351.4354   23270351.7744
      2451.1744
   6463734.87948   5023391.60944  23521572.1464   23521568.4744
     -2740.0534
   6851848.55549   5320934.53544  22698527.5054   22698523.9584
     -2469.0624
 04  9  1 15 31  0.0010000  0  7G11G25G14G15G 1G19G22
  -5805313.10548  -5367627.23844  22484023.6304   22484020.4624
      1828.1514
  -6812338.59449  -5296858.38344  22399090.8334   22399089.5484
      2419.8744
   4206593.29749   3270113.14546  21031458.7164   21031456.4154
     -2021.7254
  10689685.29748   8305658.79343  22973130.2084   22973130.0794
     -3945.5954
  -4621877.27047  -3591192.76243  23263366.8644   23263366.7004
      2447.1284
   6504909.45348   5055475.66044  23529407.1924   23529404.3724
     -2744.9724
   6888924.85549   5349825.14144  22705583.0834   22705579.0674
     -2471.7534
 04  9  1 15 31 15.0010000  0  7G11G25G14G15G 1G19G22
  -5832636.67248  -5388918.34044  22478823.5914   22478820.9354
      1821.5714
  -6848558.78549  -5325081.91044  22392198.1144   22392196.7434
      2414.6794
   4237000.73449   3293807.23446  21037244.7634   21037242.5094
     -2027.1624
  10748930.95748   8351824.19143  22984404.3494   22984403.8494
     -3949.7114
  -4658523.57448  -3619748.31643  23256393.3804   23256393.2904
      2443.0874
   6546157.13348   5087616.68444  23537256.7394   23537252.6654
     -2749.8454
   6926041.23849   5378746.97744  22712645.9974   22712642.7824
     -2474.4264
 04  9  1 15 31 30.0010000  0  7G11G25G14G15G 1G19G22
  -5859861.59848  -5410132.53144  22473642.9354   22473640.8294
      1814.9954
  -6884701.03549  -5353244.67645  22385321.0674   22385319.7244
      2409.4834
   4267489.16049   3317564.44547  21043046.6534   21043044.1964
     -2032.5624
  10808237.69548   8398037.20344  22995689.9504   22995689.7634
     -3953.7834
  -4695109.46548  -3648256.79343  23249431.0214   23249431.0914
      2439.0594
   6587477.32448   5119814.19143  23545119.9114   23545114.9784
     -2754.6794
   6963197.44949   5407699.86344  22719715.6464   22719713.2394
     -2477.0814
 04  9  1 15 31 45.0010000  0  7G11G25G14G15G 1G19G22
  -5886986.37149  -5431268.74244  22468481.8644   22468479.4464
      1808.3184
  -6920763.71949  -5381345.46544  22378458.4894   22378457.5634
      2404.1794
   4298059.58649   3341385.55946  21048864.1534   21048861.4974
     -2038.0284
  10867606.39148   8444298.46944  23006987.5364   23006986.9114
     -3957.9134
  -4731633.68047  -3676717.19543  23242480.0524   23242480.5634
      2434.9484
   6628870.83248   5152068.82843  23552996.3104   23552992.7394
     -2759.5674
   7000394.53949   5436684.59044  22726794.7314   22726791.4544
     -2479.8064
 04  9  1 15 32  0.0010000  0  7G11G25G14G15G 1G19G22
  -5914011.23848  -5452327.09045  22463339.1464   22463337.5054
      1801.6584
  -6956747.05549  -5409384.40644  22371610.8414   22371609.6534
      2398.8894
   4328711.31649   3365270.01246  21054697.0054   21054694.3844
     -2043.4494
  10927036.34448   8490607.46543  23018296.7944   23018295.9114
     -3961.9974
  -4768096.53548  -3705129.83243  23235542.8104   23235541.9544
      2430.8574
   6670336.70748   5184379.87543  23560886.9034   23560883.3134
     -2764.3924
   7037632.04748   5465700.77744  22733881.3024   22733877.0364
     -2482.5014
 04  9  1 15 32 15.0010000  0  7G11G25G14G15G 1G19G22
  -5940936.28949  -5473307.63744  22458215.3494   22458213.3964
      1795.0034
  -6992650.85949  -5437361.39144  22364778.7244   22364776.9384
      2393.5874
   4359443.87549   3389217.44946  21060545.4274   21060542.6884
     -2048.8374
  10986526.98848   8536963.77743  23029617.4744   23029616.7314
     -3966.0434
  -4804498.15248  -3733494.71543  23228615.0914   23228615.3104
      2426.7744
   6711874.41848   5216746.87943  23568791.1614   23568787.8254
     -2769.1814
   7074909.78549   5494748.35944  22740974.9894   22740971.9464
     -2485.1834
 04  9  1 15 32 30.0010000  0  7G11G25G14G15G 1G19G22
  -5967760.31649  -5494209.45744  22453110.6064   22453108.5794
      1788.2684
  -7028474.07049  -5465275.58244  22357961.4354   22357959.6494
      2388.2144
   4390257.67649   3413228.19146  21066408.8884   21066406.5674
     -2054.2534
  11046078.83248   8583367.77743  23040949.8724   23040949.1224
     -3970.1234
  -4840837.64548  -3761811.19543  23221699.9974   23221700.1264
      2422.6334
   6753484.39148   5249170.18843  23576709.0364   23576705.9154
     -2773.9984
   7112228.59049   5523827.92244  22748076.6854   22748073.0794
     -2487.9204
 04  9  1 15 32 45.0010000  0  7G11G25G14G15G 1G19G22
  -5994482.86748  -5515032.23844  22448025.1854   22448022.4894
      1781.5034
  -7064216.21149  -5493126.57044  22351160.0214   22351158.5284
      2382.8094
   4421152.65649   3437302.20746  21072287.7164   21072285.4814
     -2059.6654
  11105691.77748   8629819.37943  23052293.9114   23052293.1344
     -3974.1964
  -4877114.77748  -3790079.06643  23214796.6384   23214796.2044
      2418.4764
   6795166.35948   5281649.60543  23584641.2314   23584637.9074
     -2778.7984
   7149588.47749   5552939.49644  22755186.1304   22755182.7824
     -2490.6594
 04  9  1 15 33  0.0010000  0  7G11G25G14G15G 1G19G22
  -6021105.19148  -5535776.90644  22442959.4114   22442955.8254
      1774.8224
  -7099878.39149  -5520915.28144  22344374.0444   22344372.2784
      2377.4794
   4452127.23049   3461438.22746  21078182.0914   21078179.6384
     -2064.9724
  11165364.12548   8676317.28143  23063648.7554   23063648.8994
     -3978.1574
  -4913330.85948  -3818299.37143  23207904.6694   23207904.9074
      2414.4054
   6836918.50448   5314183.70743  23592586.2004   23592583.3104
     -2783.4764
   7186988.10549   5582082.05144  22762302.7784   22762299.2594
     -2493.3094
 04  9  1 15 33 15.0010000  0  7G11G25G14G15G 1G19G22
  -6047626.27049  -5556442.69544  22437913.0284   22437909.5014
      1768.0724
  -7135459.76248  -5548641.03544  22337602.2474   22337601.0244
      2372.0914
   4483181.82449   3485636.60246  21084091.6534   21084088.7744
     -2070.3064
  11225096.24248   8722861.75043  23075015.4424   23075016.0324
     -3982.1414
  -4949485.14848  -3846471.53943  23201024.9974   23201024.8964
      2410.2864
   6878741.09448   5346772.69144  23600544.2164   23600542.8764
     -2788.1734
   7224428.10249   5611256.04345  22769427.3964   22769424.0714
     -2496.0004
 04  9  1 15 33 30.0010000  0  7G11G25G14G15G 1G19G22
  -6074045.79749  -5577029.34044  22432885.5834   22432882.1144
      1761.3024
  -7170959.81649  -5576303.38344  22330847.5364   22330846.2204
      2366.6704
   4514316.24649   3509897.18046  21090016.6224   21090013.4894
     -2075.6284
  11284888.07847   8769452.71943  23086393.5834   23086393.9464
     -3986.1224
  -4985577.35548  -3874595.33243  23194156.6064   23194156.9854
      2406.1474
   6920633.86748   5379416.35543  23608517.0134   23608514.2244
     -2792.8524
   7261908.57049   5640461.59044  22776559.5604   22776555.6854
     -2498.6984
 04  9  1 15 33 45.0010000  0  7G11G25G14G15G 1G19G22
  -6100364.48849  -5597537.39544  22427877.3494   22427874.2354
      1754.5794
  -7206379.12548  -5603902.84044  22324106.8724   22324106.5564
      2361.2874
   4545529.30949   3534219.03946  21095955.9584   21095953.4584
     -2080.8714
  11344738.30148   8816089.22743  23097783.0834   23097783.7474
     -3990.0154
  -5021608.35948  -3902671.41843  23187300.3644   23187299.6224
      2402.0674
   6962595.52748   5412113.73443  23616502.2164   23616498.8534
     -2797.4444
   7299428.61749   5669697.95745  22783699.8414   22783696.5014
     -2501.3364
 04  9  1 15 34  0.0010000  0  7G11G25G14G15G 1G19G22
  -6126581.26249  -5617966.05544  22422887.9274   22422885.3534
      1747.7854
  -7241716.75048  -5631438.63744  22317382.5914   22317381.8684
      2355.8424
   4576821.59849   3558602.62946  21101910.5214   21101908.4074
     -2086.1534
  11404647.41048   8862771.58643  23109182.6694   23109183.1774
     -3993.9414
  -5057577.35248  -3930699.19543  23180456.1854   23180455.4034
      2397.9334
   7004626.42647   5444865.03943  23624499.1694   23624497.0134
     -2802.0604
   7336988.87549   5698965.65245  22790847.2084   22790844.0174
     -2504.0174
 04  9  1 15 34 15.0010000  0  7G11G25G14G15G 1G19G22
  -6152696.11349  -5638315.26244  22417919.0134   22417915.9584
      1740.9904
  -7276972.29348  -5658910.48444  22310673.4194   22310673.0754
      2350.3704
   4608192.78149   3583047.69146  21107880.7634   21107877.8724
     -2091.4124
  11464615.05548   8909499.57443  23120594.2864   23120594.7284
     -3997.8434
  -5093484.22348  -3958678.57843  23173623.6064   23173622.9744
      2393.7914
   7046726.25448   5477670.03943  23632511.2634   23632508.3254
     -2806.6554
   7374589.39149   5728264.74245  22798002.8644   22797998.8494
     -2506.7014
 04  9  1 15 34 30.0010000  0  7G11G25G14G15G 1G19G22
  -6178708.38749  -5658584.57844  22412969.3564   22412964.8294
      1734.1524
  -7312145.19949  -5686317.91844  22303980.2944   22303979.5994
      2344.8604
   4639642.85949   3607554.24246  21113865.0134   21113862.7244
     -2096.6724
  11524641.23848   8956273.17643  23132017.4424   23132017.8724
     -4001.7464
  -5129328.61748  -3986609.27043  23166802.3104   23166800.9314
      2389.6264
   7088894.69948   5510528.53143  23640536.0054   23640532.3884
     -2811.2304
   7412230.37949   5757595.35244  22805165.1614   22805162.0524
     -2509.3994
 04  9  1 15 34 45.0010000  0  7G11G25G14G15G 1G19G22
  -6204618.11349  -5678774.00444  22408038.5054   22408034.3844
      1727.3154
  -7347235.47748  -5713661.00444  22297302.8334   22297302.2744
      2339.3524
   4671171.26249   3632121.81646  21119864.7784   21119862.4814
     -2101.8934
  11584725.35948   9003091.91843  23143451.2004   23143451.2864
     -4005.6084
  -5165110.75048  -4014491.44143  23159992.7004   23159991.5564
      2385.4764
   7131131.21148   5543440.05143  23648573.9034   23648569.9854
     -2815.7674
   7449911.53149   5786957.27045  22812335.4584   22812332.4894
     -2512.0774
 04  9  1 15 35  0.0010000  0  7G11G25G14G15G 1G19G22
  -6230424.80549  -5698883.12544  22403127.9664   22403123.5324
      1720.4464
  -7382242.55548  -5740939.23044  22290641.1144   22290640.1854
      2333.8054
   4702778.16449   3656750.56646  21125879.4354   21125877.2714
     -2107.1274
  11644867.46948   9049955.86343  23154895.6924   23154895.6884
     -4009.4744
  -5200830.08248  -4042324.70343  23153196.2784   23153195.1614
      2381.2894
   7173435.68448   5576404.52343  23656624.0754   23656620.3724
     -2820.2984
   7487633.06349   5816350.65645  22819514.1144   22819510.2164
     -2514.7694
 04  9  1 15 35 15.0010000  0  7G11G25G14G15G 1G19G22
  -6256128.50049  -5718911.99644  22398236.4504   22398233.1224
      1713.5804
  -7417166.59449  -5768152.75445  22283995.7004   22283994.4464
      2328.2694
   4734462.76649   3681439.84446  21131909.2864   21131906.5564
     -2112.3074
  11705066.73848   9096864.33643  23166350.6464   23166351.6854
     -4013.2854
  -5236487.09048  -4070109.37143  23146410.1064   23146410.2864
      2377.1344
   7215807.24248   5609421.27343  23664687.2164   23664683.3764
     -2824.7714
   7525394.60949   5845775.21945  22826699.6064   22826696.3964
     -2517.4364
 04  9  1 15 35 30.0010000  0  7G11G25G14G15G 1G19G22
  -6281728.34049  -5738859.89545  22393364.9814   22393362.3644
      1706.6564
  -7452006.41048  -5795300.64844  22277365.3174   22277364.2784
      2322.6544
   4766225.64149   3706190.13346  21137953.3174   21137950.8534
     -2117.5254
  11765323.71147   9143817.78142  23177817.7394   23177817.8064
     -4017.1324
  -5272080.90648  -4097844.78943  23139637.0134   23139636.2244
      2372.9214
   7258246.37547   5642490.71143  23672762.6694   23672759.6614
     -2829.2764
   7563196.99648   5875231.60244  22833892.7314   22833889.2784
     -2520.1594
 04  9  1 15 35 45.0010000  0  7G11G25G14G15G 1G19G22
  -6307224.45749  -5758726.97345  22388513.1534   22388510.8254
      1699.7414
  -7486762.18749  -5822383.06644  22270752.0674   22270750.0284
      2317.0524
   4798065.98049   3731000.78146  21144012.0214   21144009.8334
     -2122.6894
  11825637.64848   9190815.60943  23189295.4354   23189295.4784
     -4020.9294
  -5307611.80548  -4125531.19143  23132876.3884   23132875.0404
      2368.7274
   7300752.35247   5675612.23043  23680851.1534   23680848.9034
     -2833.7324
   7601039.67249   5904719.38744  22841094.2164   22841090.9114
     -2522.8454
 04  9  1 15 36  0.0010000  0  7G11G25G14G15G 1G19G22
  -6332616.43049  -5778512.93444  22383681.2084   22383677.9034
      1692.7984
  -7521433.56649  -5849399.68044  22264154.2394   22264152.2824
      2311.4254
   4829983.82849   3755871.82046  21150085.7004   21150083.3804
     -2127.8574
  11886008.36747   9237857.70343  23200783.8334   23200784.1464
     -4024.7154
  -5343079.64148  -4153168.46943  23126126.4194   23126126.2004
      2364.5224
   7343324.80947   5708785.52343  23688952.2004   23688948.9704
     -2838.1644
   7638922.82849   5934238.69544  22848303.5604   22848299.1144
     -2525.5444
 04  9  1 15 36 15.0010000  0  7G11G25G14G15G 1G19G22
  -6357905.54749  -5798218.72344  22378868.7714   22378866.4464
      1685.9414
  -7556021.82849  -5876351.58244  22257572.5214   22257570.6424
      2305.8844
   4861977.35249   3780801.84446  21156174.0284   21156171.1144
     -2132.9024
  11946433.91848   9284942.48843  23212282.5604   23212282.7314
     -4028.3704
  -5378485.91448  -4180757.74243  23119388.9034   23119388.5014
      2360.4184
   7385961.68047   5742009.02043  23697066.4274   23697064.0674
     -2842.4584
   7676844.78949   5963788.25444  22855519.4504   22855516.5014
     -2528.1314
 04  9  1 15 36 30.0010000  0  7G11G25G14G15G 1G19G22
  -6383090.10249  -5817843.07044  22374076.3104   22374072.7474
      1678.9704
  -7590525.12548  -5903237.26244  22251006.3884   22251004.7284
      2300.2204
   4894047.67649   3805791.69146  21162276.5284   21162273.8104
     -2138.0224
  12006915.60947   9332071.04343  23223791.5994   23223792.1774
     -4032.1134
  -5413829.07448  -4208297.86744  23112662.9424   23112662.8644
      2356.2114
   7428664.02747   5775283.50043  23705191.1144   23705190.0094
     -2846.8234
   7714807.04749   5993369.21145  22862743.9504   22862740.2984
     -2530.8174
 04  9  1 15 36 45.0010000  0  7G11G25G14G15G 1G19G22
  -6408169.07049  -5837385.11744  22369303.5754   22369300.7554
      1671.9314
  -7624942.23849  -5930055.76244  22244457.5214   22244455.2634
      2294.4744
   4926195.56349   3830841.98046  21168394.3024   21168391.8214
     -2143.1924
  12067453.98048   9379243.76243  23235311.5134   23235311.9854
     -4035.8914
  -5449108.05148  -4235787.95343  23105949.3804   23105949.6694
      2351.9324
   7471432.51647   5808609.55543  23713330.3104   23713328.1614
     -2851.2334
   7752810.58249   6022982.32044  22869975.2474   22869971.5674
     -2533.5694
 04  9  1 15 37  0.0010000  0  7G11G25G14G15G 1G19G22
  -6433142.09849  -5856844.62144  22364552.0134   22364548.5284
      1664.8684
  -7659272.94548  -5956806.96544  22237924.3724   22237922.1924
      2288.7144
   4958420.69149   3855952.46146  21174526.4504   21174524.4424
     -2148.3424
  12128048.73448   9426460.38343  23246842.4974   23246842.7634
     -4039.6504
  -5484322.81647  -4263228.02343  23099249.4894   23099248.2434
      2347.6514
   7514266.72748   5841986.80943  23721481.3414   23721479.2784
     -2855.6144
   7790855.25049   6052627.52045  22877215.4584   22877212.2474
     -2536.3114
 04  9  1 15 37 15.0010000  0  7G11G25G14G15G 1G19G22
  -6458009.46149  -5876221.79744  22359819.9194   22359816.7714
      1657.8244
  -7693517.32448  -5983490.87144  22231407.9034   22231406.0604
      2282.9594
   4990722.45349   3881122.64846  21180673.4664   21180670.8374
     -2153.4514
  12188699.12548   9473720.37543  23258383.8564   23258384.7314
     -4043.3594
  -5519473.72747  -4290618.34443  23092559.6064   23092559.7514
      2343.3944
   7557165.74647   5875414.57843  23729645.4584   23729642.7044
     -2859.9354
   7828940.57849   6082304.36344  22884462.4034   22884459.1694
     -2539.0224
 04  9  1 15 37 30.0010000  0  7G11G25G14G15G 1G19G22
  -6482771.34449  -5895516.77745  22355107.7164   22355104.8254
      1650.7924
  -7727675.65249  -6010107.74244  22224907.0914   22224905.4584
      2277.2224
   5023100.03949   3906351.92246  21186834.7394   21186832.2944
     -2158.5064
  12249404.42248   9521023.17243  23269935.9744   23269936.5874
     -4047.0204
  -5554561.11348  -4317959.15243  23085883.5754   23085882.3844
      2339.1594
   7600128.75048   5908892.18843  23737820.6854   23737818.1924
     -2864.2004
   7867066.07449   6112012.50845  22891717.8964   22891714.4114
     -2541.7004
 04  9  1 15 37 45.0010000  0  7G11G25G14G15G 1G19G22
  -6507427.27349  -5914729.16844  22350415.9354   22350412.9034
      1643.7294
  -7761747.37949  -6036657.09844  22218423.9034   22218422.0754
      2271.4484
   5055553.43449   3931640.28546  21193010.8564   21193008.1384
     -2163.5604
  12310164.59048   9568368.74242  23281497.7004   23281498.7434
     -4050.6784
  -5589584.72348  -4345250.27343  23079218.1224   23079217.3254
      2334.9074
   7643155.57447   5942419.55143  23746008.6534   23746005.1814
     -2868.4554
   7905232.05949   6141752.20745  22898980.7944   22898976.9074
     -2544.3994
 04  9  1 15 38  0.0010000  0  7G11G25G14G15G 1G19G22
  -6531977.74249  -5933859.41444  22345743.8804   22345740.9544
      1636.6984
  -7795732.82049  -6063139.25844  22211956.7554   22211955.2124
      2265.6964
   5088081.70749   3956986.97746  21199200.1614   21199198.1304
     -2168.5524
  12370978.67648   9615756.28942  23293070.6854   23293071.4934
     -4054.2724
  -5624545.08248  -4372492.12143  23072565.3644   23072564.8804
      2330.6914
   7686245.12548   5975995.79743  23754208.5674   23754205.4354
     -2872.6374
   7943437.74249   6171522.84045  22906251.4814   22906247.0674
     -2547.0464
 04  9  1 15 38 15.0010000  0  7G11G25G14G15G 1G19G22
  -6556421.60549  -5952906.58644  22341091.8964   22341089.4154
      1629.5914
  -7829630.96549  -6089553.36745  22205506.3724   22205504.9744
      2259.8764
   5120685.49249   3982392.51646  21205404.5754   21205402.2984
     -2173.5864
  12431847.23048   9663186.28542  23304653.3334   23304653.6264
     -4057.9044
  -5659441.33248  -4399683.99643  23065924.5444   23065924.9584
      2326.4174
   7729397.91847   6009621.30143  23762419.8174   23762417.8964
     -2876.8534
   7981684.01249   6201325.10945  22913529.1534   22913525.1494
     -2549.7514
 04  9  1 15 38 30.0010000  0  7G11G25G14G15G 1G19G22
  -6580758.71949  -5971870.55544  22336461.1854   22336458.1884
      1622.4744
  -7863441.46149  -6115899.21144  22199072.2864   22199070.9664
      2254.0334
   5153364.30549   4007856.52046  21211623.1694   21211620.7474
     -2178.5874
  12492769.74648   9710658.34042  23316247.0754   23316246.8294
     -4061.5014
  -5694273.44948  -4426825.89143  23059296.3334   23059296.2284
      2322.1414
   7772613.44148   6043295.70743  23770644.3884   23770641.2714
     -2881.0354
   8019970.72749   6231158.90644  22920814.2944   22920810.4544
     -2552.4484
 04  9  1 15 38 45.0010000  0  7G11G25G14G15G 1G19G22
  -6604988.62549  -5990751.01644  22331850.4194   22331846.9274
      1615.3274
  -7897163.70349  -6142176.26645  22192654.7394   22192653.9274
      2248.1494
   5186118.32449   4033379.12146  21217856.2554   21217853.2284
     -2183.6014
  12553746.28148   9758172.48842  23327850.5284   23327850.1224
     -4065.1024
  -5729040.92248  -4453917.43043  23052679.7554   23052680.7314
      2317.8324
   7815891.64548   6077018.94143  23778879.7944   23778877.2864
     -2885.2144
   8058298.24249   6261024.49245  22928108.0754   22928104.3024
     -2555.1684
 04  9  1 15 39  0.0010000  0  7G11G25G14G15G 1G19G22
  -6629111.64549  -6009548.18444  22327259.9504   22327256.0954
      1608.2014
  -7930798.06648  -6168384.83244  22186254.4034   22186253.5714
      2242.2914
   5218946.62149   4058959.59846  21224103.1464   21224099.8924
     -2188.5534
  12614775.96548   9805728.02343  23339463.7864   23339463.8884
     -4068.6464
  -5763744.41448  -4480959.07443  23046076.5994   23046077.3214
      2313.5664
   7859231.44548   6110790.16443  23787127.2864   23787123.4814
     -2889.3204
   8096665.75449   6290921.23044  22935409.1854   22935406.1774
     -2557.8344
 04  9  1 15 39 15.0010000  0  7G11G25G14G15G 1G19G22
  -6653127.55549  -6028261.86744  22322690.2084   22322686.8494
      1601.0614
  -7964344.19948  -6194524.64845  22179870.3884   22179869.8804
      2236.4094
   5251848.99649   4084597.81346  21230364.0674   21230361.2044
     -2193.4924
  12675858.41048   9853324.66843  23351087.5364   23351087.7164
     -4072.1634
  -5798383.79347  -4507950.79743  23039484.3724   23039484.9314
      2309.2924
   7902632.51648   6144609.14543  23795386.2554   23795382.6034
     -2893.4054
   8135073.35548   6320849.18844  22942718.2864   22942714.7474
     -2560.5074
 04  9  1 15 39 30.0010000  0  7G11G25G14G15G 1G19G22
  -6677036.33249  -6046892.09044  22318140.1614   22318136.7634
      1593.9184
  -7997801.98848  -6220595.64845  22173503.6224   22173503.0524
      2230.5194
   5284825.04349   4110293.42246  21236639.2784   21236636.6814
     -2198.4034
  12736993.32448   9900962.21943  23362721.1384   23362720.9074
     -4075.6614
  -5832959.13347  -4534892.60943  23032905.6224   23032905.1694
      2305.0234
   7946094.31648   6178475.43043  23803656.2314   23803652.5484
     -2897.4534
   8173520.82849   6350808.26244  22950034.2084   22950029.9544
     -2563.1654
 04  9  1 15 39 45.0010000  0  7G11G25G14G15G 1G19G22
  -6700837.74249  -6065438.64844  22313610.7784   22313607.0674
      1586.7614
  -8031171.26248  -6246597.64845  22167153.6774   22167152.9814
      2224.6184
   5317874.43849   4136046.18046  21242928.8254   21242925.7784
     -2203.2934
  12798180.29348   9948640.35243  23374364.9894   23374364.4854
     -4079.1314
  -5867470.36748  -4561784.47343  23026338.3964   23026337.9424
      2300.7494
   7989616.38748   6212388.69543  23811938.3564   23811934.8684
     -2901.4714
   8212008.10949   6380798.32044  22957357.8334   22957354.5174
     -2565.8194
 04  9  1 15 40  0.0010000  0  7G11G25G14G15G 1G19G22
  -6724531.97349  -6083901.70344  22309102.3334   22309098.7314
      1579.6154
  -8064452.14148  -6272530.79745  22160820.5214   22160819.8684
      2218.7254
   5350996.43849   4161855.52346  21249231.6924   21249228.5284
     -2208.1334
  12859418.48048   9996358.35943  23386018.3564   23386017.7314
     -4082.5464
  -5901917.98048  -4588626.77043  23019782.9114   23019782.5054
      2296.5084
   8033197.80948   6246348.19143  23820231.8644   23820228.6654
     -2905.4284
   8250534.59448   6410818.93044  22964689.7474   22964685.5714
     -2568.4324
 04  9  1 15 40 15.0010000  0  7G11G25G14G15G 1G19G22
  -6748118.91449  -6102281.13345  22304613.5994   22304610.9424
      1572.4634
  -8097644.51649  -6298394.95745  22154504.8254   22154503.1224
      2212.8254
   5384190.62949   4187721.12946  21255548.2084   21255545.7554
     -2212.9464
  12920707.44948  10044115.95343  23397680.7554   23397680.1614
     -4085.9314
  -5936302.01248  -4615419.50843  23013239.4974   23013239.5444
      2292.2694
   8076838.01247   6280353.50843  23828535.4114   23828533.2004
     -2909.3474
   8289100.27748   6440870.07844  22972028.1464   22972024.6654
     -2571.0464
 04  9  1 15 40 30.0010000  0  7G11G25G14G15G 1G19G22
  -6771597.32849  -6120576.00445  22300145.9974   22300143.5604
      1565.2284
  -8130747.16049  -6324189.19145  22148205.5364   22148203.6964
      2206.8434
   5417457.82049   4213643.60246  21261878.9814   21261876.1034
     -2217.8134
  12982047.89848  10091913.65642  23409353.8024   23409353.2784
     -4089.3634
  -5970621.34847  -4642161.84443  23006708.6064   23006708.6224
      2287.9564
   8120537.69147   6314405.14543  23836851.4584   23836848.9934
     -2913.3124
   8327706.07048   6470952.50044  22979374.6694   22979370.9704
     -2573.7204
 04  9  1 15 40 45.0010000  0  7G11G25G14G15G 1G19G22
  -6794966.53549  -6138785.77745  22295698.8254   22295696.3024
      1557.9474
  -8163759.13749  -6349912.80145  22141923.6304   22141921.8134
      2200.7984
   5450798.30549   4239623.19146  21268223.0914   21268220.1464
     -2222.6994
  13043440.11347  10139751.71942  23421035.3174   23421035.4424
     -4092.8144
  -6004875.34848  -4668853.26243  23000190.9664   23000189.5994
      2283.6004
   8164296.75047   6348503.09043  23845178.7714   23845176.3964
     -2917.2714
   8366352.62549   6501066.68444  22986729.1534   22986724.9314
     -2576.4374
 04  9  1 15 41  0.0010000  0  7G11G25G14G15G 1G19G22
  -6818227.39849  -6156911.11345  22291272.4894   22291269.7474
      1550.7244
  -8196681.42649  -6375566.52045  22135658.2244   22135657.3134
      2194.8194
   5484210.80949   4265658.90646  21274581.1464   21274578.0174
     -2227.5004
  13104882.65646  10187628.96942  23432728.4974   23432727.5834
     -4096.1704
  -6039065.07848  -4695494.60943  22993684.2714   22993683.5444
      2279.3154
   8208113.95748   6382646.31343  23853517.1224   23853513.6814
     -2921.1474
   8405038.79748   6531211.75044  22994090.3494   22994086.9854
     -2579.0784
 04  9  1 15 41 15.0010000  0  7G11G25G14G15G 1G19G22
  -6841378.93049  -6174951.28145  22286867.0364   22286863.8134
      1543.4354
  -8229512.99648  -6401149.53945  22129411.0914   22129409.3334
      2188.7714
   5517695.65649   4291750.97746  21280953.5754   21280950.0754
     -2232.3234
  13166376.03146  10235545.83642  23444429.9894   23444429.5174
     -4099.5584
  -6073189.78548  -4722085.27743  22987190.6534   22987189.6774
      2274.9804
   8251989.51648   6416835.01243  23861866.4034   23861862.2204
     -2925.0374
   8443765.16449   6561388.11344  23001460.0444   23001456.7004
     -2581.7584
 04  9  1 15 41 30.0010000  0  7G11G25G14G15G 1G19G22
  -6864420.93049  -6192906.07845  22282481.9274   22282479.3994
      1536.1334
  -8262253.52049  -6426661.61345  22123180.8254   22123179.4314
      2182.7024
   5551252.64549   4317899.27746  21287339.3414   21287336.2244
     -2237.1334
  13227919.87145  10283501.99241  23456141.6534   23456140.1614
     -4102.9234
  -6107249.28548  -4748625.12943  22980709.3024   22980708.3104
      2270.6334
   8295923.19148   6451069.01243  23870226.9664   23870222.2944
     -2928.9124
   8482531.67649   6591595.77744  23008837.1384   23008833.8884
     -2584.4344
 04  9  1 15 41 45.0010000  0  7G11G25G14G15G 1G19G22
  -6887353.31649  -6210775.47745  22278117.9664   22278115.4934
      1528.8264
  -8294902.79749  -6452102.59045  22116967.4814   22116966.2944
      2176.6184
   5584881.40249   4344103.49646  21293738.4504   21293735.2714
     -2241.9174
  13289513.70346  10331497.16841  23467862.2944   23467861.7204
     -4106.2554
  -6141243.68048  -4775114.26243  22974240.5754   22974238.8994
      2266.2934
   8339914.39148   6485347.84443  23878597.9814   23878594.1064
     -2932.7474
   8521338.27748   6621834.65644  23016221.1534   23016217.9504
     -2587.1074
 04  9  1 15 42  0.0010000  0  7G11G25G14G15G 1G19G22
  -6910175.43449  -6228558.95345  22273775.5284   22273772.3924
      1521.4744
  -8327460.11349  -6477471.90645  22110772.5364   22110770.4934
      2170.4884
   5618582.03949   4370363.72746  21300151.6304   21300148.4744
     -2246.7094
  13351157.63346  10379531.31341  23479592.1464   23479592.4504
     -4109.5954
  -6175172.45748  -4801552.27743  22967784.4354   22967783.2514
      2261.9184
   8383963.00048   6519671.38743  23886980.1854   23886976.9814
     -2936.5744
   8560185.34048   6652105.07844  23023614.6304   23023610.4624
     -2589.8044
 04  9  1 15 42 15.0010000  0  7G11G25G14G15G 1G19G22
  -6932887.79749  -6246256.91445  22269453.5674   22269450.8564
      1514.1584
  -8359926.09449  -6502770.05545  22104594.2314   22104592.9154
      2164.3994
   5652353.55949   4396679.18846  21306577.8414   21306575.2394
     -2251.4354
  13412850.61345  10427603.71941  23491333.5524   23491332.8064
     -4112.8654
  -6209036.31648  -4827939.68743  22961340.6854   22961339.6224
      2257.5914
   8428067.91447   6554038.80943  23895373.3104   23895370.6424
     -2940.3284
   8599072.14148   6682406.46544  23031014.1694   23031010.5794
     -2592.4534
 04  9  1 15 42 30.0010000  0  7G11G25G14G15G 1G19G22
  -6955490.38349  -6263869.31245  22265152.1534   22265150.1384
      1506.8394
  -8392300.57049  -6527996.90245  22098433.5604   22098432.1734
      2158.2984
   5686195.52049   4423049.53146  21313017.8564   21313015.2004
     -2256.1314
  13474592.09844  10475713.88741  23503082.1854   23503082.0014
     -4116.0994
  -6242835.40648  -4854276.62943  22954908.4974   22954907.7824
      2253.2734
   8472228.62147   6588449.69543  23903776.9034   23903774.2554
     -2944.0474
   8637998.37948   6712738.57844  23038420.4424   23038418.5364
     -2595.0834
 04  9  1 15 42 45.0010000  0  7G11G25G14G15G 1G19G22
  -6977982.85549  -6281395.90645  22260871.4814   22260869.3064
      1499.4984
  -8424583.07849  -6553152.08645  22092290.2634   22092289.1304
      2152.1674
   5720107.86749   4449474.73046  21319471.3964   21319468.4784
     -2260.8234
  13536382.11343  10523861.77741  23514841.7634   23514840.8454
     -4119.3344
  -6276569.46548  -4880562.89144  22948489.8804   22948488.3494
      2248.9374
   8516444.72748   6622903.77343  23912190.9354   23912188.9584
     -2947.7404
   8676964.20349   6743101.54344  23045836.0914   23045832.8494
     -2597.7224
 04  9  1 15 43  0.0010000  0  6G11G25G14G 1G19G22
  -7000364.60949  -6298836.23445  22256612.9894   22256610.2124
      1492.1174
  -8456773.07849  -6578235.16045  22086164.7084   22086163.3494
      2146.0004
   5754090.51649   4475954.70746  21325937.8414   21325935.0014
     -2265.5104
  -6310238.23448  -4906798.28144  22942082.7784   22942081.3964
      2244.5854
   8560716.29347   6657401.03143  23920615.4744   23920613.4154
     -2951.4384
   8715969.84448   6773495.51644  23053258.8104   23053256.0284
     -2600.3764
 04  9  1 15 43 15.0010000  0  6G11G25G14G 1G19G22
  -7022636.05549  -6316190.62145  22252374.7244   22252372.0444
      1484.7634
  -8488870.79349  -6603246.35245  22080056.4354   22080054.7634
      2139.8484
   5788142.78949   4502488.92646  21332417.8724   21332415.1574
     -2270.1524
  -6343842.10248  -4932983.10543  22935687.7474   22935686.5874
      2240.2584
   8605042.30147   6691940.75443  23929049.9664   23929048.2674
     -2955.0674
   8755014.77748   6803920.11744  23060688.9504   23060685.1384
     -2602.9964
 04  9  1 15 43 30.0010000  0  6G11G25G14G 1G19G22
  -7044796.72349  -6333458.69145  22248157.3414   22248155.1774
      1477.3784
  -8520875.77349  -6628185.27345  22073966.5214   22073964.6264
      2133.6654
   5822264.64149   4529077.37146  21338910.9114   21338908.3134
     -2274.7904
  -6377380.69148  -4959117.06644  22929305.6384   22929303.9854
      2235.9064
   8649422.63347   6726522.77743  23937495.6224   23937493.9584
     -2958.6894
   8794099.32048   6834375.57444  23068126.6694   23068123.5714
     -2605.6364
 04  9  1 15 43 45.0010000  0  6G11G25G14G 1G19G22
  -7066846.44949  -6350640.28145  22243961.4504   22243959.2284
      1469.9824
  -8552787.82849  -6653051.79745  22067893.4114   22067891.6854
      2127.4704
   5856455.68849   4555719.73846  21345417.1224   21345414.3994
     -2279.4034
  -6410854.18448  -4985200.30143  22922935.7864   22922934.3454
      2231.5664
   8693856.65647   6761146.64143  23945951.8174   23945949.6694
     -2962.2684
   8833223.23048   6864861.72744  23075571.2474   23075568.0284
     -2608.2614
 04  9  1 15 44  0.0010000  0  6G11G25G14G 1G19G22
  -7088784.75049  -6367735.06245  22239786.7864   22239784.1924
      1462.5534
  -8584606.28949  -6677845.37945  22061838.4814   22061837.1464
      2121.2314
   5890716.03549   4582416.10546  21351937.0054   21351933.8644
     -2284.0234
  -6444262.11748  -5011232.45344  22916578.8644   22916577.4154
      2227.1964
   8738344.48846   6795812.41443  23954415.9354   23954414.8134
     -2965.8554
   8872386.80548   6895378.80144  23083023.9424   23083020.7004
     -2610.9054
 04  9  1 15 44 15.0010000  0  6G11G25G14G 1G19G22
  -7110611.36349  -6384742.83245  22235633.5134   22235630.6224
      1455.1084
  -8616330.95749  -6702565.86745  22055801.6224   22055800.2244
      2114.9784
   5925045.43049   4609166.27746  21358469.8024   21358466.3104
     -2288.6264
  -6477604.37949  -5037213.42644  22910234.1304   22910233.2084
      2222.8174
   8782885.51247   6830519.67643  23962893.5834   23962890.5914
     -2969.4024
   8911590.05948   6925926.76644  23090483.8494   23090480.0994
     -2613.5504
 04  9  1 15 44 30.0010000  0  6G11G25G14G 1G19G22
  -7132326.25849  -6401663.52744  22231501.4194   22231498.4624
      1447.6604
  -8647961.74649  -6727213.21945  22049782.3644   22049780.9744
      2108.7194
   5959443.39549   4635969.88746  21365015.0364   21365012.5714
     -2293.1984
  -6510881.10948  -5063143.32444  22903901.5444   22903901.3334
      2218.4494
   8827479.24647   6865268.00043  23971378.5754   23971376.6884
     -2972.9164
   8950832.84048   6956505.52344  23097951.9424   23097948.6384
     -2616.1854
 04  9  1 15 44 45.0010000  0  6G11G25G14G 1G19G22
  -7153929.08649  -6418496.89544  22227390.2164   22227387.7354
      1440.1894
  -8679498.35949  -6751787.17645  22043781.4114   22043779.9234
      2102.4414
   5993909.72749   4662826.76646  21371573.7634   21371571.4464
     -2297.7554
  -6544092.21148  -5089022.08644  22897580.9194   22897580.8804
      2214.0734
   8872125.34447   6900057.13343  23979874.6534   23979872.8104
     -2976.4074
   8990115.01248   6987114.98044  23105426.5284   23105423.5484
     -2618.8114
 04  9  1 15 45  0.0010000  0  6G11G25G14G 1G19G22
  -7175419.28149  -6435242.49244  22223300.5134   22223298.0754
      1432.6804
  -8710939.98449  -6776287.13345  22037798.4114   22037796.7674
      2096.1084
   6028444.66049   4689737.09446  21378145.4504   21378143.1884
     -2302.3294
  -6577237.19548  -5114849.32444  22891273.6614   22891273.6654
      2209.6664
   8916823.99647   6934887.18042  23988380.2554   23988378.0324
     -2979.9104
   9029437.03548   7017755.47744  23112909.9194   23112906.3104
     -2621.4684
 04  9  1 15 45 15.0010000  0  6G11G25G14G 1G19G22
  -7196797.25448  -6451900.66445  22219233.1384   22219230.2674
      1425.1984
  -8742287.09449  -6800713.41845  22031833.3024   22031831.9744
      2089.8074
   6063047.25049   4716700.14146  21384730.3884   21384728.2864
     -2306.8394
  -6610316.62148  -5140625.49644  22884978.5054   22884979.1224
      2205.2954
   8961573.92247   6969757.21142  23996895.9274   23996893.1184
     -2983.3284
   9068798.27748   7048426.55544  23120400.1064   23120397.0754
     -2624.0834
 04  9  1 15 45 30.0010000  0  6G11G25G14G 1G19G22
  -7218061.75849  -6468470.40245  22215186.5134   22215183.5444
      1417.6344
  -8773538.28949  -6825064.99245  22025885.9504   22025884.7824
      2083.4134
   6097718.35949   4743716.58246  21391328.3724   21391325.8334
     -2311.4074
  -6643329.33248  -5166349.66444  22878696.7554   22878696.4934
      2200.8474
   9006375.86346   7004667.76642  24005421.4034   24005418.7124
     -2986.7964
   9108199.84848   7079129.05944  23127898.0754   23127894.9974
     -2626.7714
 04  9  1 15 45 45.0010000  0  6G11G25G14G 1G19G22
  -7239213.48049  -6484952.28145  22211161.4424   22211158.5284
      1410.1154
  -8804694.14849  -6849342.24245  22019957.4274   22019955.8764
      2077.0574
   6132456.85949   4770785.53146  21397938.5834   21397936.3174
     -2315.9004
  -6676276.19948  -5192022.55544  22872427.5674   22872427.2044
      2196.4584
   9051228.45747   7039617.78942  24013956.8104   24013954.4664
     -2990.1734
   9147640.75448   7109862.18044  23135403.6144   23135400.1494
     -2629.3944
 04  9  1 15 46  0.0010000  0  6G11G25G14G 1G19G22
  -7260252.06649  -6501345.97345  22207158.1694   22207155.5794
      1402.5724
  -8835754.23049  -6873544.88345  22014046.0754   22014045.4624
      2070.6724
   6167262.66849   4797906.93046  21404561.7784   21404559.4194
     -2320.3874
  -6709156.89548  -5217643.85544  22866170.5834   22866170.3024
      2192.0464
   9096131.59446   7074607.20343  24022501.3964   24022499.5244
     -2993.5424
   9187121.13748   7140626.12944  23142915.6614   23142913.2904
     -2632.0264
 04  9  1 15 46 15.0010000  0  6G11G25G14G 1G19G22
  -7281177.49249  -6517651.50445  22203175.8254   22203173.2744
      1395.0284
  -8866718.75049  -6897673.06245  22008154.1774   22008153.1264
      2064.3014
   6202135.14549   4825080.28146  21411198.1854   21411195.4114
     -2324.8324
  -6741971.74648  -5243213.84444  22859925.7164   22859925.8374
      2187.6574
   9141084.50847   7109635.39843  24031056.1064   24031053.4894
     -2996.8614
   9226640.68048   7171420.52744  23150436.6304   23150433.4464
     -2634.6364
 04  9  1 15 46 30.0010000  0  6G11G25G14G 1G19G22
  -7301989.27749  -6533868.48445  22199215.8494   22199213.0794
      1387.4524
  -8897587.23449  -6921726.41045  22002280.0364   22002279.1384
      2057.8994
   6237074.27349   4852305.56346  21417846.8494   21417844.3174
     -2329.2754
  -6774720.38348  -5268732.26244  22853694.2474   22853693.7514
      2183.2424
   9186087.04746   7144702.28543  24039619.9424   24039617.5094
     -3000.1694
   9266199.58648   7202245.64144  23157964.4584   23157960.7044
     -2637.2604
 04  9  1 15 46 45.0010000  0  6G11G25G14G 1G19G22
  -7322687.07048  -6549996.64545  22195276.9664   22195274.4424
      1379.8534
  -8928358.94549  -6945704.35245  21996423.8494   21996423.1384
      2051.4474
   6272080.12149   4879582.84046  21424508.2864   21424505.6344
     -2333.7234
  -6807402.58248  -5294198.89144  22847475.2864   22847474.2044
      2178.8134
   9231139.10947   7179807.73043  24048192.5914   24048190.0674
     -3003.4714
   9305798.21148   7233101.69944  23165499.6384   23165496.6384
     -2639.9084
 04  9  1 15 47  0.0010000  0  6G11G25G14G 1G19G22
  -7343269.89848  -6566035.21945  22191360.3334   22191357.4314
      1372.1894
  -8959032.84849  -6969606.06245  21990587.7394   21990586.1464
      2044.9274
   6307153.20749   4906912.50446  21431182.2314   21431179.4894
     -2338.2064
  -6840017.49248  -5319613.10944  22841268.9274   22841267.4384
      2174.3274
   9276240.82847   7214951.88343  24056775.2944   24056772.7244
     -3006.7814
   9345437.05948   7263989.06644  23173043.0524   23173039.4664
     -2642.5904
 04  9  1 15 47 15.0010000  0  6G11G25G14G 1G19G22
  -7363738.92249  -6581985.09845  22187464.9354   22187462.0604
      1364.6024
  -8989610.13349  -6993432.51645  21984768.9894   21984767.1424
      2038.4864
   6342291.86749   4934293.27746  21437868.9894   21437866.4744
     -2342.5774
  -6872566.39848  -5344975.89843  22835074.8494   22835073.3964
      2169.9274
   9321390.65247   7250133.50443  24065367.7084   24065364.8604
     -3009.9884
   9385114.87149   7294906.84444  23180593.7314   23180590.2944
     -2645.1874
 04  9  1 15 47 30.0010000  0  6G11G25G14G 1G19G22
  -7384093.34849  -6597845.69945  22183591.9584   22183589.1654
      1356.9624
  -9020090.00049  -7017183.04345  21978968.5754   21978967.1884
      2031.9914
   6377496.39549   4961725.37146  21444568.2554   21444565.4974
     -2346.9684
  -6905048.75848  -5370286.80544  22828893.3884   22828892.7084
      2165.4914
   9366588.65247   7285352.71543  24073968.4894   24073966.1464
     -3013.2004
   9424832.20748   7325855.37544  23188151.7164   23188148.8964
     -2647.8224
 04  9  1 15 47 45.0010000  0  6G11G25G14G 1G19G22
  -7404333.43449  -6613617.20345  22179740.1304   22179736.8494
      1349.3394
  -9050472.73049  -7040857.88345  21973186.8564   21973185.4664
      2025.5154
   6412765.98449   4989208.16046  21451279.3804   21451277.3454
     -2351.3064
  -6937464.97748  -5395546.17644  22822724.9354   22822724.5404
      2161.0814
   9411833.89547   7320608.69943  24082578.1304   24082576.2204
     -3016.3494
   9464588.50449   7356834.28144  23195716.9034   23195713.3254
     -2650.4204
 04  9  1 15 48  0.0010000  0  6G11G25G14G 1G19G22
  -7424458.08649  -6629298.73845  22175910.4034   22175907.7824
      1341.6434
  -9080756.91849  -7064455.93045  21967424.1064   21967422.3414
      2018.9464
   6448101.49249   5016742.31646  21458003.6064   21458001.4274
     -2355.7014
  -6969813.96548  -5420753.15644  22816569.3334   22816568.5054
      2156.5994
   9457127.00447   7355901.97343  24091197.0994   24091194.9934
     -3019.5414
   9504384.70748   7387844.28144  23203290.5524   23203286.6654
     -2653.0804
 04  9  1 15 48 15.0010000  0  6G11G25G14G 1G19G22
  -7444466.94549  -6644890.05545  22172102.6464   22172100.3024
      1333.9244
  -9110942.26249  -7087976.96145  21961679.8254   21961678.5794
      2012.3564
   6483502.69949   5044327.65646  21464740.3414   21464737.7784
     -2360.0804
  -7002095.53948  -5445907.62144  22810425.7004   22810425.7394
      2152.1054
   9502467.75847   7391232.40643  24099825.5914   24099822.6654
     -3022.7174
   9544220.83649   7418885.41044  23210870.2944   23210867.6964
     -2655.7424
 04  9  1 15 48 30.0010000  0  6G11G25G14G 1G19G22
  -7464359.80949  -6660390.98445  22168317.4584   22168314.6534
      1326.1914
  -9141028.59849  -7111420.84045  21955954.4584   21955953.0714
      2005.7564
   6518969.36749   5071964.00846  21471489.8334   21471486.9704
     -2364.4454
  -7034309.70748  -5471009.55144  22804295.6614   22804295.7314
      2147.6114
   9547855.59847   7426599.50843  24108462.6464   24108459.3684
     -3025.8564
   9584096.95748   7449957.66844  23218458.8174   23218456.1734
     -2658.4084
 04  9  1 15 48 45.0010000  0  6G11G25G14G 1G19G22
  -7484137.43749  -6675802.14545  22164553.8494   22164550.1694
      1318.5094
  -9171016.63749  -7134788.12145  21950248.7314   21950246.6144
      1999.2034
   6554500.28949   5099650.42646  21478250.7554   21478248.1064
     -2368.7284
  -7066457.28948  -5496059.60944  22798178.0994   22798177.7634
      2143.1724
   9593289.21547   7462002.28142  24117108.1694   24117105.8374
     -3028.9084
   9624012.01648   7481060.28544  23226054.2864   23226050.7864
     -2661.0044
 04  9  1 15 49  0.0010000  0  6G11G25G14G 1G19G22
  -7503799.92649  -6691123.57445  22160812.5134   22160809.4384
      1310.8334
  -9200906.49249  -7158078.89845  21944560.1224   21944559.3454
      1992.6574
   6590094.89549   5127386.47346  21485024.2554   21485021.5604
     -2372.9744
  -7098538.62148  -5521058.03944  22792073.1534   22792072.7164
      2138.7554
   9638768.00447   7497440.27742  24125762.4424   24125759.4544
     -3031.9194
   9663965.73048   7512193.02744  23233657.1854   23233654.1534
     -2663.5814
 04  9  1 15 49 15.0010000  0  6G11G25G14G 1G19G22
  -7523347.09049  -6706355.11745  22157092.2784   22157090.3254
      1303.1444
  -9230697.76249  -7181292.85245  21938891.4354   21938889.9894
      1986.0854
   6625752.96949   5155171.96946  21491810.0524   21491807.1694
     -2377.2054
  -7130553.63748  -5546004.77344  22785981.0524   22785980.5214
      2134.3344
   9684291.55147   7532913.13743  24134425.5604   24134422.5994
     -3034.9034
   9703958.15248   7543355.93444  23241267.1224   23241264.5994
     -2666.1614
 04  9  1 15 49 30.0010000  0  6G11G25G14G 1G19G22
  -7542777.33249  -6721495.55545  22153395.3564   22153392.9894
      1295.3494
  -9260388.93749  -7204428.82045  21933241.1064   21933240.0674
      1979.4124
   6661475.53949   5183007.73446  21498607.7084   21498604.2714
     -2381.5054
  -7162500.93048  -5570898.77044  22779901.4894   22779901.4974
      2129.8204
   9729860.68846   7568421.50042  24143096.3964   24143094.6424
     -3037.9424
   9743990.38348   7574549.87144  23248885.5214   23248881.7514
     -2668.8154
 04  9  1 15 49 45.0010000  0  6G11G25G14G 1G19G22
  -7562090.60249  -6736544.86345  22149720.3334   22149717.4784
      1287.5514
  -9289979.75049  -7227486.57445  21927609.9664   21927608.6814
      1972.7214
   6697262.31349   5210893.52346  21505417.9664   21505414.7864
     -2385.7854
  -7194380.55948  -5595740.02344  22773835.5604   22773835.5134
      2125.3094
   9775474.94546   7603965.01642  24151776.4664   24151774.8534
     -3040.9514
   9784062.41848   7605774.79744  23256510.8174   23256507.8564
     -2671.4694
 04  9  1 15 50  0.0010000  0  6G11G25G14G 1G19G22
  -7581286.51649  -6751502.74245  22146066.9034   22146064.2434
      1279.7284
  -9319469.85249  -7250465.87545  21921998.0444   21921997.0914
      1966.0074
   6733113.19149   5238829.27046  21512239.9814   21512237.4234
     -2390.0594
  -7226192.24248  -5620528.34444  22767781.8804   22767781.0834
      2120.7794
   9821134.10547   7639543.53542  24160465.7244   24160463.6774
     -3043.9444
   9824174.46548   7637030.90644  23264143.9814   23264140.3134
     -2674.1364
 04  9  1 15 50 15.0010000  0  6G11G25G14G 1G19G22
  -7600364.59449  -6766368.77345  22142436.7784   22142434.1694
      1271.8724
  -9348858.75049  -7273366.30145  21916405.9894   21916405.0914
      1959.2604
   6769028.21949   5266815.00046  21519074.1384   21519072.0874
     -2394.3354
  -7257935.66048  -5645263.44944  22761741.0834   22761740.7744
      2116.2284
   9866838.01647   7675156.91042  24169162.0604   24169160.9464
     -3046.9274
   9864326.81348   7668318.41844  23271784.5994   23271781.1734
     -2676.8234
 04  9  1 15 50 30.0010000  0  6G11G25G14G 1G19G22
  -7619325.67249  -6781143.64145  22138828.4194   22138826.8064
      1264.0724
  -9378147.19549  -7296188.44546  21910832.4274   21910831.8334
      1952.5634
   6805006.12149   5294849.71146  21525920.9114   21525918.3534
     -2398.5274
  -7289611.79348  -5669946.15244  22755713.1064   22755712.4074
      2111.7424
   9912585.21947   7710804.05542  24177868.7784   24177865.0484
     -3049.8144
   9904518.23048   7699636.35944  23279433.2244   23279429.0284
     -2679.4284
 04  9  1 15 50 45.0010000  0  6G11G25G14G 1G19G22
  -7638168.68049  -6795826.50845  22135242.6384   22135240.7554
      1256.2014
  -9407333.98849  -7318931.39846  21905278.0604   21905277.6534
      1945.7864
   6841047.48849   5322933.87946  21532778.9744   21532776.3534
     -2402.7584
  -7321219.72748  -5694575.68444  22749698.3174   22749697.7674
      2107.1964
   9958376.19146   7746485.29342  24186582.0134   24186579.0754
     -3052.7324
   9944749.62948   7730985.49644  23287089.0134   23287084.7284
     -2682.0934
 04  9  1 15 51  0.0010000  0  6G11G25G14G 1G19G22
  -7656894.14849  -6810417.79345  22131679.3884   22131676.7904
      1248.3654
  -9436419.73449  -7341595.60545  21899743.9424   21899742.9974
      1939.0504
   6877151.27749   5351066.67645  21539649.3174   21539646.7004
     -2406.9194
  -7352760.13348  -5719152.60944  22743696.5364   22743695.7244
      2102.6944
  10004209.84447   7782199.79342  24195304.1854   24195301.0714
     -3055.5774
   9985020.30948   7762365.21544  23294752.2634   23294748.3534
     -2684.7124
 04  9  1 15 51 15.0010000  0  6G11G25G14G 1G19G22
  -7675502.54349  -6824917.84045  22128138.0834   22128135.4154
      1240.5604
  -9465404.76649  -7364181.34045  21894227.8414   21894227.0244
      1932.3354
   6913316.68049   5379247.50045  21546531.5054   21546528.5874
     -2411.0274
  -7384233.60948  -5743677.39544  22737707.2864   22737705.9384
      2098.2324
  10050085.09047   7817946.73442  24204034.5054   24204031.1814
     -3058.3504
  10025329.52348   7793774.98044  23302422.4584   23302419.4504
     -2687.2814
 04  9  1 15 51 30.0010000  0  6G11G25G14G 1G19G22
  -7693992.82449  -6839325.85545  22124619.7864   22124616.8104
      1232.6854
  -9494287.93749  -7386687.68045  21888731.6614   21888730.5094
      1925.5454
   6949544.29749   5407476.80546  21553425.5674   21553422.2634
     -2415.1744
  -7415639.23049  -5768149.29344  22731730.6304   22731730.5634
      2093.7084
  10096002.44147   7853726.46542  24212772.0364   24212769.3414
     -3061.1574
  10065678.15248   7825215.43043  23310100.5604   23310097.7164
     -2689.9094
 04  9  1 15 51 45.0010000  0  6G11G25G14G 1G19G22
  -7712363.82449  -6853640.93445  22121124.1534   22121121.3454
      1224.7334
  -9523068.07849  -7409113.77045  21883254.8964   21883253.6534
      1918.6764
   6985834.68449   5435755.03146  21560331.1534   21560327.9664
     -2419.3594
  -7446976.03948  -5792567.57444  22725768.0994   22725766.9114
      2089.1214
  10141962.29747   7889539.27742  24221517.8104   24221514.5874
     -3063.9904
  10106066.98848   7856687.21143  23317786.4034   23317783.2714
     -2692.5894
 04  9  1 15 52  0.0010000  0  6G11G25G14G 1G19G22
  -7730616.83249  -6867864.06245  22117650.3564   22117647.6224
      1216.8674
  -9551746.37149  -7431460.48845  21877797.0524   21877796.6464
      1911.8864
   7022186.33649   5464080.98445  21567248.6224   21567246.1264
     -2423.4434
  -7478245.49248  -5816933.38344  22719817.4504   22719816.1494
      2084.6304
  10187962.85947   7925383.85242  24230271.0834   24230267.7314
     -3066.7044
  10146494.59848   7888189.25043  23325479.1304   23325476.1814
     -2695.1744
 04  9  1 15 52 15.0010000  0  6G11G25G14G 1G19G22
  -7748751.31249  -6881994.82045  22114199.4354   22114196.9354
      1208.9654
  -9580322.07849  -7453727.25845  21872359.5214   21872358.9274
      1905.0474
   7058599.43849   5492454.82445  21574177.6144   21574175.0524
     -2427.5404
  -7509446.95348  -5841246.20744  22713880.4424   22713879.2314
      2080.0974
  10234004.38747   7961260.29342  24239033.0754   24239029.2394
     -3069.4354
  10186961.53148   7919721.89543  23333179.4814   23333176.2904
     -2697.7964
 04  9  1 15 52 30.0010000  0  6G11G25G14G 1G19G22
  -7766766.91849  -6896032.96545  22110771.2394   22110768.8414
      1201.0404
  -9608795.12149  -7475914.02345  21866941.3644   21866940.7984
      1898.2034
   7095073.60549   5520876.25045  21581118.2944   21581116.1614
     -2431.6114
  -7540580.53148  -5865506.12944  22707955.7084   22707954.2004
      2075.5724
  10280086.19547   7997168.14142  24247802.4034   24247799.5404
     -3072.1214
  10227467.60948   7951285.02343  23340887.9584   23340884.7474
     -2700.4054
 04  9  1 15 52 45.0010000  0  6G11G25G14G 1G19G22
  -7784663.77749  -6909978.56245  22107365.5134   22107363.9154
      1193.1244
  -9637165.33249  -7498020.67245  21861542.9744   21861541.7394
      1891.3474
   7131608.30549   5549344.82845  21588071.0604   21588068.7044
     -2435.6474
  -7571646.42649  -5889713.31644  22702044.1304   22702043.5834
      2071.0604
  10326207.44947   8033106.77042  24256579.1064   24256576.9624
     -3074.7504
  10268012.50448   7982878.41843  23348603.5994   23348599.6104
     -2702.9934
 04  9  1 15 53  0.0010000  0  6G11G25G14G 1G19G22
  -7802441.01649  -6923830.96945  22103982.8724   22103980.2984
      1185.1494
  -9665431.84849  -7520046.52745  21856164.4194   21856162.5404
      1884.4344
   7168204.10249   5577861.02746  21595034.6534   21595032.4234
     -2439.7204
  -7602643.87548  -5913867.15644  22696145.1144   22696144.5754
      2066.4974
  10372368.75446   8069076.55142  24265361.9034   24265359.9074
     -3077.4204
  10308596.96548   8014502.67643  23356326.9744   23356322.0604
     -2705.6314
 04  9  1 15 53 15.0010000  0  6G11G25G14G 1G19G22
  -7820098.82849  -6937590.31645  22100622.5134   22100619.4234
      1177.1884
  -9693594.78949  -7541991.66045  21850804.5444   21850803.5794
      1877.5294
   7204860.35549   5606424.33246  21602010.4664   21602007.6614
     -2443.7504
  -7633573.15648  -5937967.88344  22690259.6224   22690258.7634
      2061.9524
  10418569.23046   8105076.85242  24274155.0994   24274152.2554
     -3080.0324
  10349220.62148   8046157.44543  23364056.3024   23364053.4194
     -2708.2444
 04  9  1 15 53 30.0010000  0  6G11G25G14G 1G19G22
  -7837636.43449  -6951255.98845  22097285.2784   22097282.5714
      1169.1744
  -9721653.35249  -7563855.46545  21845465.4354   21845463.8924
      1870.5714
   7241577.35549   5635034.96546  21608997.6144   21608994.4974
     -2447.8004
  -7664433.63748  -5962015.00444  22684387.1304   22684386.2514
      2057.3654
  10464809.17246   8141107.96942  24282953.3174   24282951.0134
     -3082.6634
  10389884.09048   8077843.20343  23371794.3024   23371790.2244
     -2710.8984
 04  9  1 15 53 45.0010000  0  6G11G25G14G 1G19G22
  -7855053.49649  -6964827.72745  22093971.0914   22093968.1344
      1161.1384
  -9749607.21149  -7585637.68445  21840145.5134   21840144.3844
      1863.5914
   7278354.99649   5663692.86746  21615996.0604   21615993.5834
     -2451.8434
  -7695225.19148  -5986008.41044  22678527.8564   22678527.1654
      2052.7704
  10511088.21946   8177169.49242  24291760.4114   24291757.2864
     -3085.2704
  10430587.22748   8109559.91443  23379540.3024   23379536.9384
     -2713.5424
 04  9  1 15 54  0.0010000  0  6G11G25G14G 1G19G22
  -7872350.93449  -6978306.27045  22090679.2004   22090676.8294
      1153.1634
  -9777457.32049  -7607339.05146  21834846.1854   21834844.8534
      1856.6744
   7315191.88349   5692396.93046  21623005.5364   21623003.8104
     -2455.7924
  -7725948.89848  -6009948.96544  22672681.1774   22672680.3454
      2048.2474
  10557404.69946   8213260.21542  24300573.1694   24300571.4424
     -3087.7654
  10471329.01648   8141306.73043  23387293.5834   23387289.1774
     -2716.1194
 04  9  1 15 54 15.0010000  0  6G11G25G14G 1G19G22
  -7889527.81249  -6991690.85545  22087410.4274   22087408.5634
      1145.1254
  -9805202.46149  -7628958.63345  21829566.4894   21829565.0754
      1849.6764
   7352088.73849   5721147.71545  21630027.0604   21630024.5174
     -2459.7904
  -7756603.72748  -6033835.83244  22666847.6614   22666846.7204
      2043.6554
  10603759.36346   8249380.69942  24309394.6614   24309393.0094
     -3090.3114
  10512110.37548   8173084.41443  23395053.7164   23395050.1814
     -2718.7574
 04  9  1 15 54 30.0010000  0  6G11G25G14G 1G19G22
  -7906584.36749  -7004981.66445  22084164.7864   22084163.1574
      1137.1044
  -9832842.97749  -7650496.69545  21824306.7784   21824305.2714
      1842.7014
   7389044.72349   5749944.56646  21637059.7004   21637056.8684
     -2463.7324
  -7787190.25848  -6057669.49644  22661027.2164   22661026.2514
      2039.1024
  10650151.13346   8285530.07842  24318222.1774   24318221.3884
     -3092.7854
  10552930.64548   8204892.35243  23402822.2004   23402818.8294
     -2721.3514
 04  9  1 15 54 45.0010000  0  6G11G25G14G 1G19G22
  -7923520.51249  -7018178.67645  22080942.4744   22080940.2204
      1129.0764
  -9860378.76249  -7671953.14845  21819066.4584   21819064.8764
      1835.7194
   7426059.43049   5778787.18845  21644103.5214   21644100.4384
     -2467.6474
  -7817708.61748  -6081450.02744  22655219.3104   22655218.7784
      2034.5574
  10696579.45746   8321707.94942  24327057.4424   24327056.2784
     -3095.2224
  10593789.60248   8236730.46943  23410597.0834   23410592.8804
     -2723.9304
 04  9  1 15 55  0.0010000  0  6G11G25G14G 1G19G22
  -7940335.78549  -7031281.50045  22077742.3644   22077740.1464
      1121.0184
  -9887809.15649  -7693327.46145  21813846.9194   21813845.5134
      1828.6934
   7463133.07049   5807675.73446  21651158.4274   21651155.2044
     -2471.5764
  -7848158.25048  -6105177.00044  22649425.4354   22649424.8604
      2029.9764
  10743044.32846   8357914.26642  24335900.0674   24335898.4854
     -3097.6584
  10634687.78948   8268599.18043  23418379.9354   23418376.4744
     -2726.5464
 04  9  1 15 55 15.0010000  0  6G11G25G14G 1G19G22
  -7957029.19549  -7044289.34445  22074565.8104   22074562.9974
      1112.8944
  -9915133.13349  -7714618.87545  21808647.2244   21808645.6384
      1821.5984
   7500266.21149   5836610.63746  21658224.5524   21658221.3104
     -2475.5434
  -7878538.42648  -6128849.83244  22643644.2864   22643644.1884
      2025.3454
  10789546.23446   8394149.44942  24344749.1304   24344747.3564
     -3100.1274
  10675625.94148   8300499.00443  23426170.2634   23426165.5444
     -2729.2104
 04  9  1 15 55 30.0010000  0  6G11G25G14G 1G19G22
  -7973602.03949  -7057203.26245  22071411.7634   22071409.4384
      1104.8564
  -9942351.95349  -7735828.34045  21803467.3334   21803466.0674
      1814.5884
   7537457.09049   5865590.52746  21665301.7314   21665298.2864
     -2479.3924
  -7908850.55148  -6152469.66844  22637875.5994   22637875.8024
      2020.8084
  10836083.08247   8430411.85942  24353605.0674   24353602.7474
     -3102.4574
  10716602.44948   8332428.73443  23433967.6464   23433963.9504
     -2731.7674
 04  9  1 15 55 45.0010000  0  6G11G25G14G 1G19G22
  -7990054.02049  -7070023.00045  22068280.6924   22068278.2554
      1096.7994
  -9969465.22349  -7756955.54745  21798308.4424   21798307.0524
      1807.5514
   7574705.43049   5894615.19946  21672390.0444   21672387.3604
     -2483.2234
  -7939094.43448  -6176036.31244  22632120.1614   22632120.9624
      2016.2594
  10882654.72347   8466701.41442  24362467.0214   24362464.6774
     -3104.7764
  10757617.43448   8364388.44543  23441772.5524   23441769.2864
     -2734.3324
 04  9  1 15 56  0.0010000  0  6G11G25G14G 1G19G22
  -8006383.19949  -7082747.02745  22065174.0364   22065170.4354
      1088.6124
  -9996470.97749  -7777998.98445  21793169.6694   21793167.9354
      1800.3844
   7612012.87949   5923685.93446  21679488.9744   21679486.8924
     -2487.1634
  -7969268.31648  -6199548.43444  22626378.9974   22626378.4624
      2011.5924
  10929262.43847   8503019.05942  24371336.7244   24371334.6104
     -3107.1814
  10798672.67648   8396379.47743  23449585.8564   23449581.5284
     -2737.0164
 04  9  1 15 56 15.0010000  0  6G11G25G14G 1G19G22
  -8022590.36349  -7095376.00045  22062090.0994   22062087.1884
      1080.4784
 -10023369.84849  -7798959.14845  21788050.4584   21788049.0954
      1793.2584
   7649378.26649   5952801.81346  21686599.6384   21686597.5404
     -2491.0264
  -7999373.10248  -6223006.67644  22620650.1694   22620649.3994
      2006.9864
  10975904.82047   8539363.73843  24380212.2164   24380209.7554
     -3109.4924
  10839766.93448   8428401.00443  23457405.4034   23457401.8494
     -2739.6174
 04  9  1 15 56 30.0010000  0  6G11G25G14G 1G19G22
  -8038676.56249  -7107910.70745  22059028.8494   22059026.2124
      1072.4134
 -10050162.96949  -7819836.89846  21782951.8564   21782951.1494
      1786.2084
   7686799.99249   5981961.58246  21693720.9894   21693718.7044
     -2494.7824
  -8029410.02748  -6246412.05944  22614934.1614   22614933.6774
      2002.4624
  11022580.21547   8575734.14843  24389094.8174   24389092.1774
     -3111.6934
  10880899.16448   8460452.04344  23465232.2784   23465229.7244
     -2742.1494
 04  9  1 15 56 45.0010000  0  6G11G25G14G 1G19G22
  -8054640.19149  -7120349.91445  22055991.2554   22055987.8564
      1064.2424
 -10076848.60949  -7840630.89546  21777873.9584   21777872.1924
      1779.0434
   7724279.28149   6011166.21946  21700852.8724   21700850.7004
     -2498.6194
  -8059377.55148  -6269763.37144  22609231.5284   22609229.8724
      1997.8354
  11069289.82447   8612131.18043  24397983.4584   24397981.0954
     -3113.9744
  10922070.75048   8492533.75844  23473067.4504   23473064.1264
     -2744.7724
 04  9  1 15 57  0.0010000  0  6G11G25G14G 1G19G22
  -8070481.19149  -7132693.55545  22052976.5524   22052974.4624
      1056.0674
 -10103426.79349  -7861341.16046  21772816.2474   21772814.7084
      1771.8794
   7761815.72749   6040415.38746  21707995.6384   21707993.9354
     -2502.4304
  -8089275.82848  -6293060.71944  22603542.1384   22603541.2204
      1993.2184
  11116032.89547   8648554.32042  24406878.1464   24406875.9034
     -3116.2054
  10963281.40248   8524645.93043  23480909.8964   23480905.8724
     -2747.3774
 04  9  1 15 57 15.0010000  0  6G11G25G14G 1G19G22
  -8086199.85949  -7144941.87545  22049985.8564   22049982.9784
      1047.9114
 -10129897.52349  -7881967.70746  21767779.0214   21767777.3024
      1764.7154
   7799408.64549   6069708.55546  21715149.4664   21715147.1614
     -2506.1954
  -8119105.22748  -6316304.39144  22597865.7554   22597865.3104
      1988.6274
  11162808.76647   8685002.99643  24415778.7004   24415777.0754
     -3118.3914
  11004530.71548   8556788.24244  23488758.9034   23488755.8064
     -2749.9544
 04  9  1 15 57 30.0010000  0  6G11G25G14G 1G19G22
  -8101795.86349  -7157094.60245  22047017.6614   22047014.6104
      1039.7344
 -10156260.63349  -7902510.38746  21762762.2084   21762761.0324
      1757.5414
   7837057.95749   6099045.67646  21722313.9814   21722311.3804
     -2509.9544
  -8148865.60248  -6339494.28144  22592203.1144   22592201.8964
      1984.0254
  11209617.12547   8721477.02742  24424686.4034   24424684.0994
     -3120.5574
  11045818.84848   8588960.78544  23496615.6924   23496612.6924
     -2752.5424
 04  9  1 15 57 45.0010000  0  6G11G25G14G 1G19G22
  -8117269.11749  -7169151.69145  22044073.1694   22044069.2714
      1031.5504
 -10182515.87149  -7922968.98046  21757766.1774   21757764.9664
      1750.3494
   7874763.49249   6128426.60946  21729488.8254   21729486.7004
     -2513.7024
  -8178556.87948  -6362630.34444  22586552.9744   22586551.4664
      1979.4184
  11256457.63747   8757976.03543  24433600.0444   24433597.3724
     -3122.7014
  11087145.70748   8621163.48043  23504479.4424   23504476.8174
     -2755.1244
 04  9  1 15 58  0.0010000  0  6G11G25G14G 1G19G22
  -8132618.82049  -7181112.51645  22041152.4034   22041148.6814
      1023.3144
 -10208662.45349  -7943342.92646  21752790.9744   21752789.1224
      1743.1054
   7912525.55549   6157851.58245  21736675.2634   21736672.6064
     -2517.4714
  -8208178.50048  -6385712.11344  22580916.1774   22580914.3994
      1974.7754
  11303330.36347   8794500.18443  24442519.4034   24442518.2044
     -3124.8484
  11128511.87948   8653396.83644  23512351.6464   23512347.5444
     -2757.7454
 04  9  1 15 58 15.0010000  0  6G11G25G14G 1G19G22
  -8147846.33649  -7192978.12545  22038254.5134   22038251.9194
      1015.1684
 -10234701.69149  -7963633.25846  21747835.3494   21747833.6884
      1735.9494
   7950342.28949   6187319.14846  21743871.3804   21743868.1534
     -2521.1164
  -8237732.04748  -6408740.84044  22575292.2004   22575290.9464
      1970.2364
  11350233.30947   8831047.88343  24451445.7004   24451442.7514
     -3126.8634
  11169915.64848   8685659.50044  23520230.8254   23520227.5054
     -2760.2514
 04  9  1 15 58 30.0010000  0  6G11G25G14G 1G19G22
  -8162950.86349  -7204747.86745  22035380.2244   22035378.2284
      1006.9684
 -10260632.71549  -7983839.24646  21742900.8644   21742899.6144
      1728.7354
   7988214.04349   6216829.59446  21751077.9664   21751074.8994
     -2524.7844
  -8267216.78148  -6431715.94144  22569680.8724   22569680.9974
      1965.6494
  11397166.64848   8867619.27743  24460376.6694   24460374.2984
     -3128.8894
  11211357.78948   8717952.05144  23528117.0054   23528113.9584
     -2762.8094
 04  9  1 15 58 45.0010000  0  6G11G25G14G 1G19G22
  -8177932.03148  -7216421.52045  22032529.0754   22032526.6774
       998.7454
 -10286455.02049  -8003960.50045  21737987.0054   21737985.7434
      1721.4874
   8026140.89849   6246382.98846  21758295.0444   21758291.9974
     -2528.4574
  -8296632.26247  -6454637.08244  22564083.3254   22564083.5484
      1961.0324
  11444130.35247   8904214.34043  24469312.7474   24469310.5754
     -3130.9144
  11252838.53548   8750274.66844  23536010.5214   23536007.2394
     -2765.3834
 04  9  1 15 59  0.0010000  0  6G11G25G14G 1G19G22
  -8192790.54349  -7227999.57845  22029701.6534   22029699.1494
       990.5674
 -10312169.32849  -8023997.59846  21733094.1064   21733092.3564
      1714.2874
   8064121.74649   6275978.43845  21765522.7164   21765520.1884
     -2532.0574
  -8325979.43748  -6477504.98844  22558498.5284   22558498.9704
      1956.4784
  11491123.17247   8940832.06642  24478255.0364   24478252.9544
     -3132.8554
  11294356.96148   8782626.64544  23543911.0214   23543908.0604
     -2767.8954
 04  9  1 15 59 15.0010000  0  6G11G25G14G 1G19G22
  -8207524.33649  -7239480.46145  22026898.2004   22026895.6814
       982.2534
 -10337773.43449  -8043948.85245  21728221.2004   21728220.3844
      1706.9404
   8102158.25049   6305617.26645  21772760.5054   21772758.6184
     -2535.7674
  -8355256.39847  -6500318.19144  22552927.6774   22552927.4114
      1951.7974
  11538146.64547   8977473.66042  24487204.0754   24487201.9584
     -3134.8984
  11335914.77348   8815009.32444  23551819.6224   23551816.1494
     -2770.5214
 04  9  1 15 59 30.0010000  0  5G11G25G14G 1G22
  -8222134.58649  -7250865.07445  22024118.0674   22024114.9934
       974.0174
 -10363268.48449  -8063815.11745  21723369.9194   21723368.6924
      1699.6704
   8140248.77749   6335298.18845  21780009.2714   21780007.4584
     -2539.3684
  -8384464.44947  -6523077.69544  22547369.6144   22547369.2784
      1947.2034
  11377510.69948   8847421.73044  23559735.2944   23559730.9784
     -2773.0624
 04  9  1 15 59 45.0010000  0  5G11G25G14G 1G22
  -8236619.10549  -7262151.73845  22021361.7164   22021358.4114
       965.6354
 -10388652.41849  -8083594.80545  21718539.1614   21718537.8804
      1692.2624
   8178395.08649   6365022.56645  21787268.2634   21787265.7084
     -2543.0874
  -8413601.64148  -6545781.98844  22541824.5754   22541824.1654
      1942.4794
  11419146.57449   8879865.23844  23567658.1534   23567654.7864
     -2775.7254
 04  9  1 16  0  0.0010000  0  5G11G25G14G 1G22
  -8250978.91449  -7273341.19145  22018628.6534   22018626.1034
       957.3214
 -10413925.94549  -8103288.45746  21713729.3564   21713728.4584
      1684.9024
   8216595.88749   6394789.41845  21794537.3414   21794535.0794
     -2546.7204
  -8442668.91048  -6568431.79344  22536293.3494   22536292.9314
      1937.8184
  11460821.52748   8912339.19543  23575587.8254   23575585.8174
     -2778.3304
 04  9  1 16  0 15.0010000  0  5G11G25G14G 1G22
  -8265213.37549  -7284432.98845  22015919.9744   22015917.6614
       948.9644
 -10439088.55549  -8122895.66446  21708942.0994   21708940.5284
      1677.5074
   8254851.20349   6424598.75445  21801817.1224   21801814.9934
     -2550.3544
  -8471665.88348  -6591026.83244  22530775.7554   22530775.4504
      1933.1324
  11502535.81348   8944843.76644  23583526.9894   23583523.2044
     -2780.9524
 04  9  1 16  0 30.0010000  0  5G11G25G14G 1G22
  -8279322.17249  -7295426.84845  22013235.4974   22013233.2244
       940.5864
 -10464139.69949  -8142416.02046  21704174.2784   21704173.3494
      1670.0764
   8293161.02049   6454450.54745  21809107.0054   21809105.0604
     -2553.9884
  -8500592.37948  -6613566.93444  22525270.2474   22525270.6264
      1928.4334
  11544289.57448   8977379.17243  23591471.5524   23591467.8684
     -2783.5844
 04  9  1 16  0 45.0010000  0  5G11G25G14G 1G22
  -8293304.24649  -7306321.98845  22010574.9894   22010572.3534
       932.1384
 -10489078.45349  -8161848.80145  21699429.1854   21699427.3804
      1662.5844
   8331526.03949   6484345.35945  21816408.0214   21816405.3534
     -2557.6684
  -8529447.52748  -6636051.44944  22519780.4354   22519780.0954
      1923.6774
  11586083.55948   9009945.85544  23599425.0054   23599421.3534
     -2786.2664
 04  9  1 16  1  0.0010000  0  5G11G25G14G 1G22
  -8307156.87949  -7317116.27345  22007938.7784   22007936.2554
       923.5094
 -10513902.03149  -8181191.82445  21694705.2164   21694703.5364
      1654.9054
   8369948.49649   6514284.91445  21823719.6694   21823717.2084
     -2561.4974
  -8558228.77349  -6658478.38744  22514302.9354   22514302.5714
      1918.7504
  11627920.28948   9042545.88744  23607386.4194   23607382.9114
     -2789.1154
 04  9  1 16  1 15.0010000  0  5G11G25G14G 1G22
  -8320881.35249  -7327810.66445  22005326.9114   22005324.6854
       914.9654
 -10538611.32449  -8200445.80945  21690002.6144   21690001.4384
      1647.2864
   8408426.98849   6544268.14845  21831041.9194   21831040.1034
     -2565.2334
  -8586937.14549  -6680848.54744  22508839.9194   22508838.9544
      1913.8914
  11669798.63748   9075178.31643  23615354.9504   23615352.6494
     -2791.8904
 04  9  1 16  1 30.0010000  0  6G20G11G25G14G 1G22
   -124781.59455    -90643.36751  24524232.8494   24524231.4154

  -8334478.15649  -7338405.57845  22002739.7004   22002737.1224
       906.4544
 -10563207.08249  -8219611.32445  21685323.2784   21685321.2284
      1639.7174
   8446960.42649   6574294.20345  21838374.7164   21838372.6574
     -2568.8964
  -8615573.74648  -6703162.74644  22503390.4504   22503390.2514
      1909.1074
  11711717.49248   9107842.35243  23623332.0604   23623329.5364
     -2794.5904
 04  9  1 16  1 45.0010000  0  6G20G11G25G14G 1G22
   -163655.16444   -120934.46941  24516835.0214   24516833.1264
      2591.5714
  -8347948.52049  -7348901.97745  22000176.2394   22000172.6884
       898.0244
 -10587690.48049  -8238689.28146  21680663.7084   21680662.2164
      1632.2274
   8485547.10249   6604361.73045  21845717.1304   21845715.0364
     -2572.4454
  -8644139.67649  -6725421.91844  22497955.0214   22497953.5444
      1904.3954
  11753675.54748   9140536.92243  23631316.0914   23631314.0484
     -2797.2044
 04  9  1 16  2  0.0010000  0  6G20G11G25G14G 1G22
   -202527.32445   -151224.49241  24509439.3414   24509436.0174
      2591.4774
  -8361292.75049  -7359300.09045  21997637.0444   21997633.1654
       889.6154
 -10612061.53549  -8257679.69945  21676026.4034   21676024.3964
      1624.7374
   8524186.65249   6634470.46545  21853070.2164   21853067.8254
     -2575.9704
  -8672635.26648  -6747626.23844  22492531.7554   22492531.2744
      1899.7064
  11795672.56348   9173261.80943  23639307.7474   23639305.9584
     -2799.8014
 04  9  1 16  2 15.0010000  0  6G20G11G25G14G 1G22
   -241398.77745   -181513.88341  24502041.7634   24502039.3724
      2591.4304
  -8374511.36349  -7369600.32045  21995121.1224   21995118.9584
       881.2414
 -10636320.95349  -8276583.13746  21671409.3884   21671408.3334
      1617.2954
   8562877.97349   6664619.53145  21860432.8494   21860431.1264
     -2579.4214
  -8701061.22749  -6769776.32844  22487122.7474   22487122.0954
      1895.0644
  11837707.65648   9206016.39543  23647307.1224   23647304.8294
     -2802.3404
 04  9  1 16  2 30.0010000  0  6G20G11G25G14G 1G22
   -280269.89544   -211802.99241  24494644.1924   24494641.3134
      2591.4084
  -8387604.50448  -7379802.78945  21992629.8414   21992628.0054
       872.8764
 -10660468.71949  -8295399.56246  21666814.3104   21666812.7554
      1609.8514
   8601620.43449   6694808.44545  21867805.2244   21867803.3454
     -2582.8314
  -8729417.88348  -6791872.41844  22481727.4274   22481726.1424
      1890.4444
  11879780.41448   9238800.34843  23655313.6924   23655311.2474
     -2804.8514
 04  9  1 16  2 45.0010000  0  6G20G11G25G14G 1G22
   -319140.56644   -242091.80541  24487247.3414   24487244.4784
      2591.3784
  -8400572.40648  -7389907.64545  21990161.9034   21990160.0524
       864.5274
 -10684504.77349  -8314128.94946  21662240.5674   21662238.9544
      1602.4044
   8640413.60549   6725036.90645  21875187.1384   21875184.9354
     -2586.2114
  -8757705.40248  -6813914.62544  22476343.8414   22476343.0754
      1885.8354
  11921890.72348   9271613.54743  23663326.9354   23663324.6034
     -2807.3544
 04  9  1 16  3  0.0010000  0  6G20G11G25G14G 1G22
   -358010.38745   -272380.00441  24479851.8414   24479849.3494
      2591.3214
  -8413414.31248  -7399914.34445  21987718.5914   21987716.3254
       856.1274
 -10708428.58649  -8332770.84446  21657687.9894   21657686.1614
      1594.9214
   8679257.72349   6755305.02745  21882578.9194   21882577.2164
     -2589.6084
  -8785923.34848  -6835902.62944  22470974.5914   22470972.9544
      1881.1964
  11964038.92648   9304456.26643  23671347.6694   23671345.2944
     -2809.8804
 04  9  1 16  3 15.0010000  0  6G20G11G25G14G 1G22
   -396878.32444   -302666.77041  24472455.0284   24472453.2474
      2591.1964
  -8426129.14848  -7409822.02045  21985299.1304   21985296.7984
       847.6564
 -10732239.05549  -8351324.45346  21653157.1924   21653155.4624
      1587.3654
   8718153.41849   6785613.34445  21889980.4664   21889978.7164
     -2593.0464
  -8814070.83648  -6857835.71944  22465618.5054   22465616.9744
      1876.4994
  12006225.80548   9337329.12543  23679375.3414   23679372.6924
     -2812.4594
 04  9  1 16  3 30.0010000  0  6G20G11G25G14G 1G22
   -435745.01245   -332952.47742  24465058.7864   24465055.9504
      2591.1134
  -8438717.24248  -7419630.91845  21982903.7784   21982901.5444
       839.2064
 -10755936.68449  -8369790.12546  21648647.7244   21648645.7594
      1579.8424
   8757099.91849   6815961.25845  21897392.2474   21897389.8134
     -2596.4334
  -8842148.38348  -6879714.30944  22460274.7394   22460274.3604
      1871.8364
  12048450.85948   9370231.72343  23687410.8724   23687407.8804
     -2815.0044
 04  9  1 16  3 45.0010000  0  6G20G11G25G14G 1G22
   -474611.07445   -363237.71141  24457662.4974   24457660.7634
      2591.0714
  -8451179.45748  -7429341.74245  21980532.5524   21980529.8254
       830.8144
 -10779521.94149  -8388168.23046  21644159.2944   21644157.6534
      1572.3514
   8796096.02749   6846347.82445  21904812.4034   21904810.1574
     -2599.7414
  -8870156.87148  -6901539.09845  22454945.3414   22454944.8804
      1867.2334
  12090713.00448   9403163.25043  23695452.7394   23695449.9424
     -2817.4764
 04  9  1 16  4  0.0010000  0  6G20G11G25G14G 1G22
   -513474.52745   -393520.91042  24450267.4034   24450265.5874
      2590.8974
  -8463513.57049  -7438952.75045  21978185.2634   21978182.4314
       822.2744
 -10802992.47749  -8406456.93746  21639693.0134   21639691.4274
      1564.7024
   8835143.74649   6876774.59845  21912243.6924   21912241.1614
     -2603.1814
  -8898094.23848  -6923308.45745  22449628.8104   22449628.9274
      1862.4914
  12133014.43048   9436125.35543  23703502.7864   23703499.2554
     -2820.0954
 04  9  1 16  4 15.0010000  0  6G20G11G25G14G 1G22
   -552335.02345   -423801.80141  24442872.2554   24442870.2244
      2590.7004
  -8475719.39548  -7448463.79745  21975862.2714   21975859.5714
       813.7224
 -10826348.10949  -8424656.11346  21635248.4194   21635247.1464
      1557.0424
   8874242.72349   6907241.34045  21919683.4424   21919681.1304
     -2606.5984
  -8925960.26248  -6945022.22744  22444326.3414   22444325.6654
      1857.7354
  12175355.25848   9469118.17643  23711559.4814   23711556.8494
     -2822.7224
 04  9  1 16  4 30.0010000  0  6G20G11G25G14G 1G22
   -591194.14546   -454081.58642  24435478.3724   24435476.2904
      2590.6084
  -8487798.44149  -7457876.04745  21973563.6774   21973561.0564
       805.2704
 -10849590.33249  -8442766.92246  21630825.8644   21630824.5714
      1549.4824
   8913391.27049   6937746.68445  21927133.4114   21927130.9584
     -2609.9034
  -8953756.66848  -6966681.74244  22439036.5914   22439035.8334
      1853.0944
  12217733.75848   9502140.34443  23719624.2004   23719621.2594
     -2825.2334
 04  9  1 16  4 45.0010000  0  6G20G11G25G14G 1G22
   -630051.86346   -484360.30542  24428083.2944   24428081.9664
      2590.5154
  -8499750.53549  -7467189.37945  21971289.6304   21971286.8844
       796.8064
 -10872718.79749  -8460789.09046  21626424.7784   21626423.5874
      1541.8984
   8952589.09449   6968290.43045  21934592.7864   21934589.6614
     -2613.1884
  -8981483.29748  -6988286.89144  22433760.5914   22433759.3064
      1848.4424
  12260149.85548   9535191.84443  23727695.8334   23727692.1534
     -2827.7404
 04  9  1 16  5  0.0010000  0  6G20G11G25G14G 1G22
   -668908.35945   -514638.05142  24420688.6144   24420687.8064
      2590.4334
  -8511575.74249  -7476403.83245  21969039.1384   21969036.7004
       788.3474
 -10895733.66049  -8478722.72746  21622044.8494   21622043.8494
      1534.3244
   8991835.80549   6998872.26245  21942061.0674   21942058.6104
     -2616.4474
  -9009140.35948  -7009837.85544  22428497.7784   22428496.6034
      1843.8044
  12302603.37948   9568272.50042  23735773.9354   23735770.3724
     -2830.2354
 04  9  1 16  5 15.0010000  0  6G20G11G25G14G 1G22
   -707763.31246   -544914.64842  24413296.0284   24413293.4854
      2590.3304
  -8523273.62949  -7485519.07045  21966813.2554   21966811.0174
       779.8594
 -10918634.42649  -8496567.46946  21617687.4274   21617685.8414
      1526.7184
   9031131.35549   7029492.17245  21949538.5604   21949536.2864
     -2619.7034
  -9036727.68448  -7031334.44944  22423247.4744   22423246.8494
      1839.1554
  12345094.47748   9601382.37543  23743860.0604   23743856.7474
     -2832.7404
 04  9  1 16  5 30.0010000  0  6G20G11G25G14G 1G22
   -746615.68046   -575189.18742  24405902.2084   24405899.2944
      2590.1584
  -8534843.19549  -7494534.32445  21964611.4974   21964609.3964
       771.3044
 -10941420.19149  -8514322.58646  21613351.1694   21613350.0174
      1519.0514
   9070476.31649   7060150.55945  21957025.9894   21957023.0674
     -2622.9974
  -9064244.36348  -7052776.00844  22418011.4744   22418010.5364
      1834.4454
  12387623.86348   9634522.12543  23751953.4584   23751949.9154
     -2835.2924
 04  9  1 16  5 45.0010000  0  6G20G11G25G14G 1G22
   -785465.28146   -605461.59842  24398509.3414   24398506.2164
      2589.9734
  -8546284.18049  -7503449.39545  21962434.4034   21962431.9424
       762.7324
 -10964090.43749  -8531987.69946  21609037.3884   21609036.0174
      1511.3504
   9109870.61349   7090847.41045  21964522.2394   21964519.5284
     -2626.2864
  -9091690.23048  -7074162.37144  22412788.6694   22412788.0174
      1829.7244
  12430191.75448   9667691.90242  23760053.7944   23760049.8884
     -2837.8594
 04  9  1 16  6  0.0010000  0  6G20G11G25G14G 1G22
   -824312.42646   -635732.11342  24391117.4664   24391113.9894
      2589.8104
  -8557596.95349  -7512264.53145  21960281.5604   21960278.6574
       754.1854
 -10986645.40649  -8549562.98046  21604745.0914   21604743.9464
      1503.6654
   9149313.71149   7121582.29345  21972028.3174   21972025.4624
     -2629.5404
  -9119065.63748  -7095493.84044  22407579.1924   22407578.1424
      1825.0274
  12472797.72348   9700891.34842  23768161.3174   23768157.3684
     -2840.3984
 04  9  1 16  6 15.0010000  0  6G20G11G25G14G 1G22
   -863156.84447   -666000.50442  24383725.3564   24383722.4384
      2589.6284
  -8568781.24249  -7520979.57045  21958153.5214   21958149.9814
       745.6194
 -11009084.76649  -8567048.17646  21600474.4354   21600473.8534
      1495.9574
   9188805.42249   7152355.04345  21979543.1224   21979540.5484
     -2632.7814
  -9146370.35548  -7116770.22744  22402383.6774   22402383.0524
      1820.3154
  12515441.85948   9734120.51243  23776275.9664   23776272.1884
     -2842.9424
 04  9  1 16  6 30.0010000  0  6G20G11G25G14G 1G22
   -901998.50047   -696266.71142  24376333.7084   24376331.3454
      2589.4444
  -8579836.76649  -7529594.30545  21956049.9354   21956047.0444
       737.0354
 -11031408.31249  -8584443.12546  21596226.6694   21596225.7394
      1488.2364
   9228345.52749   7183165.49645  21987067.1384   21987065.1924
     -2636.0074
  -9173604.46148  -7137991.59044  22397200.8644   22397200.1464
      1815.6074
  12558123.99648   9767379.28143  23784398.9894   23784394.9854
     -2845.4764
 04  9  1 16  6 45.0010000  0  6G20G11G25G14G 1G22
   -940838.80547   -726531.87142  24368942.9354   24368940.8254
      2589.3544
  -8590764.96949  -7538109.77345  21953969.8174   21953966.9114
       728.5474
 -11053617.49249  -8601748.96946  21592000.6694   21591999.0404
      1480.6124
   9267932.31649   7214012.34445  21994600.4584   21994598.4464
     -2639.1194
  -9200769.39149  -7159159.07444  22392031.7634   22392030.3174
      1810.9954
  12600842.79348   9800666.62943  23792527.5524   23792524.7984
     -2847.9204
 04  9  1 16  7  0.0010000  0  6G20G11G25G14G 1G22
   -979675.81247   -756794.44942  24361551.9114   24361550.3454
      2589.1344
  -8601563.78949  -7546524.44945  21951914.9194   21951911.8644
       719.9214
 -11075710.05149  -8618963.91846  21587796.2394   21587794.7124
      1472.8374
   9307567.43849   7244896.83245  22002142.5284   22002140.3844
     -2642.3414
  -9227863.27749  -7180271.16844  22386876.1224   22386875.2004
      1806.2594
  12643600.14548   9833984.01243  23800663.5604   23800660.8254
     -2850.4904
 04  9  1 16  7 15.0010000  0  6G20G11G25G14G 1G22
  -1018509.90647   -787054.80542  24354162.3494   24354159.7284
      2588.9404
  -8612233.63749  -7554838.62945  21949884.5994   21949881.9894
       711.3234
 -11097686.50049  -8636088.43446  21583614.2084   21583612.7204
      1465.0974
   9347250.01249   7275818.30545  22009694.2084   22009691.8534
     -2645.5054
  -9254886.73848  -7201328.39544  22381733.3334   22381732.1774
      1801.5644
  12686395.20748   9867330.79343  23808808.0524   23808804.7204
     -2853.0044
 04  9  1 16  7 30.0010000  0  6G20G11G25G14G 1G22
  -1057342.47748   -817313.93442  24346772.9034   24346770.0954
      2588.8384
  -8622775.91049  -7563053.40645  21947878.5284   21947875.9814
       702.8184
 -11119548.11349  -8653123.43446  21579454.2084   21579452.3534
      1457.4414
   9386978.52749   7306775.57445  22017254.2944   22017252.2004
     -2648.5684
  -9281841.13348  -7222331.80144  22376604.0994   22376603.2824
      1796.9604
  12729226.57848   9900705.85543  23816958.9504   23816954.9784
     -2855.4254
 04  9  1 16  7 45.0010000  0  6G20G11G25G14G 1G22
  -1096172.18447   -847570.86342  24339384.4814   24339381.4074
      2588.6474
  -8633189.29349  -7571167.72745  21945896.5674   21945895.1264
       694.2264
 -11141293.38349  -8670067.78546  21575316.7474   21575314.7354
      1449.6854
   9426753.87149   7337769.35245  22024823.3724   22024821.4194
     -2651.6904
  -9308725.17249  -7243280.39845  22371488.2864   22371487.6854
      1792.2694
  12772095.49248   9934110.18043  23825116.2314   23825112.7824
     -2857.9284
 04  9  1 16  8  0.0010000  0  6G20G11G25G14G 1G22
  -1134998.00047   -877824.71942  24331995.3254   24331993.2554
      2588.3884
  -8643472.61749  -7579180.70745  21943940.1614   21943937.7124
       685.5554
 -11162921.14149  -8686920.57046  21571200.4194   21571198.9154
      1441.8514
   9466576.80549   7368800.19945  22032400.9974   22032398.8884
     -2654.8624
  -9335537.86749  -7264173.37944  22366385.5524   22366384.8644
      1787.5134
  12815002.92648   9967544.53142  23833281.2474   23833277.2594
     -2860.4964
 04  9  1 16  8 15.0010000  0  6G20G11G25G14G 1G22
  -1173820.53947   -908076.03942  24324607.3104   24324605.5284
      2588.1694
  -8653626.52349  -7587092.85545  21942008.0754   21942005.0874
       676.9274
 -11184431.87549  -8703682.16846  21567107.2004   21567105.7204
      1434.0494
   9506446.37149   7399867.36745  22039988.1694   22039985.4894
     -2657.9714
  -9362279.94949  -7285011.35945  22361296.3644   22361296.4384
      1782.8054
  12857947.99648  10001008.18043  23841453.3644   23841450.5484
     -2863.0054
 04  9  1 16  8 30.0010000  0  6G20G11G25G14G 1G22
  -1212639.99647   -938324.97342  24317219.8024   24317219.2044
      2587.9644
  -8663650.96149  -7594904.11345  21940099.9424   21940098.1534
       668.2964
 -11205825.62549  -8720352.60946  21563036.3024   21563034.8374
      1426.2504
   9546362.26249   7430970.65245  22047583.9354   22047581.6924
     -2661.0594
  -9388951.55949  -7305794.41844  22356221.1854   22356221.1184
      1778.1074
  12900930.71948  10034501.16443  23849632.2394   23849629.7714
     -2865.5154
 04  9  1 16  8 45.0010000  0  6G20G11G25G14G 1G22
  -1251455.51247   -968570.83242  24309834.0834   24309832.1854
      2587.7014
  -8673545.31249  -7602613.98845  21938217.2164   21938215.2474
       659.6234
 -11227101.73849  -8736931.39146  21558987.3254   21558986.2284
      1418.4084
   9586324.78549   7462110.26645  22055188.6694   22055186.6184
     -2664.1684
  -9415552.10549  -7326522.10545  22351159.2864   22351158.8134
      1773.3704
  12943951.45348  10068023.78543  23857819.3254   23857816.3064
     -2868.0494
 04  9  1 16  9  0.0010000  0  6G20G11G25G14G 1G22
  -1290268.13347   -998814.44542  24302448.3724   24302445.9894
      2587.5084
  -8683310.41849  -7610223.16045  21936359.0444   21936356.5794
       651.0074
 -11248260.98849  -8753419.09046  21554961.1774   21554959.8804
      1410.6174
   9626332.67249   7493285.22745  22062801.8254   22062799.4544
     -2667.1924
  -9442082.57848  -7347195.18445  22346110.7784   22346110.7354
      1768.6984
  12987009.10248  10101575.14843  23866012.5284   23866009.6064
     -2870.5104
 04  9  1 16  9 15.0010000  0  6G20G11G25G14G 1G22
  -1329075.84047  -1029054.20342  24295063.7634   24295062.0404
      2587.1804
  -8692944.23849  -7617730.06245  21934526.1304   21934523.0834
       642.2554
 -11269301.44949  -8769814.25446  21550957.2634   21550955.5874
      1402.6974
   9666387.59049   7524496.84045  22070424.3024   22070421.3764
     -2670.3284
  -9468541.13748  -7367812.22345  22341075.8564   22341075.5874
      1763.9044
  13030105.57848  10135156.82443  23874214.3174   23874210.8174
     -2873.0984
 04  9  1 16  9 30.0010000  0  6G20G11G25G14G 1G22
  -1367879.78948  -1059291.04343  24287679.0444   24287678.4664
      2586.9304
  -8702448.07049  -7625135.65245  21932717.4354   21932715.3684
       633.5894
 -11290224.09049  -8786117.59046  21546975.3414   21546974.2674
      1394.8434
   9706488.00849   7555743.90245  22078054.9274   22078052.2554
     -2673.3614
  -9494928.89149  -7388374.10545  22336054.7394   22336054.4624
      1759.1844
  13073239.68448  10168767.77743  23882421.7944   23882418.8494
     -2875.6074
 04  9  1 16  9 45.0010000  0  6G20G11G25G14G 1G22
  -1406679.87547  -1089524.87142  24280295.6464   24280294.1774
      2586.6724
  -8711821.66449  -7632439.76245  21930933.5674   21930931.5324
       624.9064
 -11311028.64149  -8802328.91846  21543016.6464   21543015.2084
      1386.9704
   9746633.83649   7587026.36745  22085694.3964   22085691.6774
     -2676.3894
  -9521245.91849  -7408880.86345  22331046.2314   22331046.0134
      1754.4684
  13116411.29748  10202407.98843  23890637.1144   23890633.9584
     -2878.1084
 04  9  1 16 10  0.0010000  0  6G20G11G25G14G 1G22
  -1445475.90246  -1119755.53142  24272913.3334   24272911.6384
      2586.4024
  -8721064.78149  -7639642.19945  21929174.8964   21929172.2554
       616.2084
 -11331714.87949  -8818448.05146  21539080.4584   21539078.4194
      1379.0834
   9786824.85949   7618344.03145  22093342.3104   22093339.7394
     -2679.4024
  -9547492.09849  -7429332.41844  22326052.1534   22326051.5134
      1749.7454
  13159620.46948  10236077.41443  23898859.5994   23898857.0364
     -2880.6114
 04  9  1 16 10 15.0010000  0  6G20G11G25G14G 1G22
  -1484267.75846  -1149982.91042  24265531.2164   24265529.5874
      2586.1244
  -8730177.36749  -7646742.92245  21927440.9894   21927438.0054
       607.5064
 -11352282.50849  -8834474.76646  21535166.3414   21535164.4624
      1371.1754
   9827060.93848   7649696.80945  22100998.9814   22100996.8764
     -2682.4054
  -9573667.37549  -7449728.72744  22321070.9424   22321070.2314
      1745.0184
  13202867.22348  10269776.15643  23907089.3334   23907086.7554
     -2883.1174
 04  9  1 16 10 30.0010000  0  6G20G11G25G14G 1G22
  -1523056.50446  -1180207.87142  24258150.1534   24258147.8804
      2585.9164
  -8739160.36349  -7653742.66845  21925731.3174   21925728.6494
       598.8664
 -11372732.50849  -8850409.82446  21531274.8334   21531273.4504
      1363.3334
   9867340.69148   7681083.61345  22108664.3104   22108662.1224
     -2685.3174
  -9599772.84048  -7470070.63744  22316103.4034   22316102.2594
      1740.3644
  13246150.41848  10303503.27743  23915325.9354   23915323.8684
     -2885.5464
 04  9  1 16 10 45.0010000  0  6G20G11G25G14G 1G22
  -1561841.01647  -1210429.55542  24250770.2084   24250768.4314
      2585.6344
  -8748012.62949  -7660640.54745  21924046.8254   21924044.0174
       590.1514
 -11393063.78948  -8866252.37146  21527405.7394   21527404.3334
      1355.4194
   9907664.84848   7712505.02345  22116337.2864   22116335.1734
     -2688.2774
  -9625807.58649  -7490357.43745  22311148.8334   22311148.4034
      1735.6504
  13289470.93448  10337259.50843  23923569.0444   23923567.6884
     -2888.0344
 04  9  1 16 11  0.0010000  0  6G20G11G25G14G 1G22
  -1600622.08646  -1240648.57442  24243390.0214   24243389.1464
      2585.4054
  -8756735.00449  -7667437.19945  21922386.7634   21922384.1144
       581.4924
 -11413277.11349  -8882003.00046  21523559.5754   21523557.7984
      1347.5554
   9948032.23448   7743960.11345  22124019.2784   22124016.4744
     -2691.1594
  -9651772.47349  -7510589.82445  22306208.2474   22306207.4464
      1730.9924
  13332827.86347  10371044.07043  23931820.3724   23931818.1264
     -2890.4624
 04  9  1 16 11 15.0010000  0  6G20G11G25G14G 1G22
  -1639399.09845  -1270864.40242  24236010.4194   24236009.1034
      2585.1344
  -8765326.80549  -7674132.12545  21920751.9664   21920749.2674
       572.7874
 -11433371.63749  -8897661.07046  21519735.8884   21519734.2864
      1339.6354
   9988443.10549   7775449.09045  22131709.3104   22131706.8564
     -2694.0584
  -9677667.03549  -7530767.37545  22301280.5524   22301280.2554
      1726.3044
  13376221.53148  10404857.31643  23940077.7634   23940076.2474
     -2892.9114
 04  9  1 16 11 30.0010000  0  6G20G11G25G14G 1G22
  -1678171.44546  -1301076.59442  24228631.7554   24228630.3214
      2584.8234
  -8773787.30149  -7680724.72345  21919141.9584   21919139.4314
       564.0334
 -11453346.73049  -8913226.06646  21515934.2004   21515932.8644
      1331.6734
  10028897.98848   7806972.37145  22139407.5914   22139405.0994
     -2696.9924
  -9703490.51249  -7550889.55545  22296366.8174   22296365.7514
      1721.5654
  13419652.81648  10438699.80943  23948342.8334   23948340.2244
     -2895.4194
 04  9  1 16 11 45.0010000  0  6G20G11G25G14G 1G22
  -1716938.85245  -1331284.94542  24221254.8564   24221253.3844
      2584.4944
  -8782116.41849  -7687214.96145  21917556.8414   21917554.1424
       555.2744
 -11473202.05549  -8928697.73846  21512156.1614   21512154.3844
      1323.6884
  10069396.66448   7838529.77745  22147114.1064   22147111.9784
     -2699.9124
  -9729242.84449  -7570956.28945  22291466.2314   22291465.1854
      1716.8224
  13463121.56648  10472571.52743  23956614.5834   23956611.8534
     -2897.9174
 04  9  1 16 12  0.0010000  0  6G20G11G25G14G 1G22
  -1755701.51246  -1361489.60942  24213879.0054   24213877.7554
      2584.1774
  -8790314.34849  -7693602.96145  21915997.0444   21915994.6144
       546.5294
 -11492937.78149  -8944076.21546  21508400.4504   21508398.4894
      1315.7154
  10109938.67649   7870120.94145  22154829.1064   22154826.4314
     -2702.8014
  -9754924.30149  -7590967.80545  22286579.2944   22286578.0444
      1712.0974
  13506627.45348  10506472.16843  23964893.5754   23964891.1964
     -2900.3924
 04  9  1 16 12 15.0010000  0  6G20G11G25G14G 1G22
  -1794459.59846  -1391690.66842  24206503.0674   24206502.1264
      2583.8724
  -8798381.16449  -7699888.79745  21914461.6614   21914459.5284
       537.7884
 -11512553.92249  -8959361.50846  21504667.4194   21504665.9274
      1307.7434
  10150523.68049   7901745.62145  22162552.1384   22162549.6774
     -2705.6674
  -9780535.12949  -7610924.28145  22281705.2784   22281704.5564
      1707.3894
  13550170.16447  10540401.53943  23973179.7784   23973176.4424
     -2902.8474
 04  9  1 16 12 30.0010000  0  6G20G11G25G14G 1G22
  -1833212.84446  -1421887.98042  24199129.0364   24199127.4784
      2583.5504
  -8806316.56649  -7706072.22745  21912951.6144   21912949.5364
       529.0274
 -11532050.24649  -8974553.43446  21500957.4274   21500956.1344
      1299.7554
  10191151.41449   7933403.57845  22170283.4034   22170280.9074
     -2708.5164
  -9806075.17649  -7630825.60245  22276845.3254   22276844.5244
      1702.6704
  13593749.93848  10574359.78543  23981471.9974   23981469.2784
     -2905.3184
 04  9  1 16 12 45.0010000  0  6G20G11G25G14G 1G22
  -1871960.58246  -1452081.04742  24191755.5834   24191754.0324
      2583.1834
  -8814119.94549  -7712152.80145  21911467.2394   21911464.6614
       520.2254
 -11551426.09449  -8989651.49246  21497270.5054   21497269.1144
      1291.7234
  10231822.19549   7965095.08245  22178022.9664   22178020.5524
     -2711.3854
  -9831543.98049  -7650671.41845  22271998.9354   22271997.5404
      1697.9204
  13637367.13348  10608347.15643  23989771.6614   23989769.3104
     -2907.8134
 04  9  1 16 13  0.0010000  0  6G20G11G25G14G 1G22
  -1910703.40647  -1482270.27342  24184383.8414   24184381.7984
      2582.8554
  -8821791.91049  -7718130.96945  21910007.2474   21910004.5324
       511.4644
 -11570681.90649  -9004656.00446  21493605.9504   21493604.7864
      1283.7214
  10272535.21149   7996819.50045  22185770.0914   22185768.2744
     -2714.2014
  -9856942.09049  -7670462.14145  22267165.8494   22267164.5014
      1693.2074
  13681021.15248  10642363.22743  23998079.1694   23998076.2784
     -2910.2684
 04  9  1 16 13 15.0010000  0  6G20G11G25G14G 1G22
  -1949441.97746  -1512456.18042  24177011.6144   24177010.1144
      2582.5714
  -8829333.02349  -7724007.17245  21908572.1854   21908569.6814
       502.7414
 -11589818.29349  -9019567.46546  21489964.9424   21489963.4464
      1275.7594
  10313289.50049   8028576.06645  22193524.9814   22193523.4114
     -2716.9534
  -9882270.31249  -7690198.41044  22262346.0054   22262344.8334
      1688.5484
  13724711.10947  10676407.32843  24006392.9424   24006390.7594
     -2912.6644
 04  9  1 16 13 30.0010000  0  6G20G11G25G14G 1G22
  -1988174.42646  -1542637.30942  24169641.3024   24169639.0174
      2582.1634
  -8836741.54749  -7729780.05145  21907162.5214   21907159.9314
       493.9024
 -11608833.19149  -9034384.25446  21486346.0214   21486345.1144
      1267.6604
  10354086.53149   8060365.94945  22201289.1384   22201286.3454
     -2719.8024
  -9907526.88749  -7709878.84444  22257539.8174   22257538.8104
      1683.7724
  13768438.70347  10710480.73843  24014714.3254   24014711.7314
     -2915.1734
 04  9  1 16 13 45.0010000  0  6G20G11G25G14G 1G22
  -2026900.55946  -1572813.48442  24162270.3024   24162269.7314
      2581.7424
  -8844017.27749  -7735449.46545  21905777.8104   21905775.7864
       485.0494
 -11627726.45349  -9049106.26246  21482750.9354   21482749.3454
      1259.5514
  10394926.20349   8092189.05145  22209060.5054   22209058.1534
     -2722.6454
  -9932711.66449  -7729503.33245  22252747.1464   22252745.9704
      1678.9854
  13812204.09048  10744583.55943  24023042.9584   24023040.3644
     -2917.6924
 04  9  1 16 14  0.0010000  0  6G20G11G25G14G 1G22
  -2065620.24246  -1602984.64142  24154903.3564   24154901.2044
      2581.3124
  -8851159.91449  -7741015.16045  21904418.3254   21904416.7204
       476.1764
 -11646497.78549  -9063733.27346  21479178.6384   21479177.5094
      1251.4224
  10435808.32848   8124045.23045  22216840.2634   22216837.5134
     -2725.4754
  -9957824.56249  -7749071.81245  22247968.2634   22247967.1184
      1674.1934
  13856007.27748  10778715.87543  24031378.7474   24031375.8064
     -2920.2124
 04  9  1 16 14 15.0010000  0  6G20G11G25G14G 1G22
  -2104334.27047  -1633151.39542  24147536.3494   24147534.1574
      2580.9354
  -8858170.40649  -7746477.88745  21903084.5524   21903082.5054
       467.3664
 -11665148.10948  -9078265.98446  21475630.0134   21475628.3924
      1243.3554
  10476731.65248   8155933.52345  22224627.8414   22224625.3334
     -2728.2224
  -9982866.62949  -7768585.10245  22243203.0524   22243202.1384
      1669.4714
  13899847.16848  10812876.80143  24039721.1614   24039718.3374
     -2922.6594
 04  9  1 16 14 30.0010000  0  6G20G11G25G14G 1G22
  -2143042.69547  -1663313.81242  24140170.2164   24140168.3724
      2580.5624
  -8865048.76249  -7751837.64845  21901775.4034   21901773.3534
       458.5574
 -11683677.39549  -9092704.37546  21472103.9504   21472102.4894
      1235.2864
  10517696.00048   8187853.78945  22232423.0524   22232420.6464
     -2730.9574
 -10007837.91849  -7788043.23445  22238451.1614   22238449.6534
      1664.7534
  13943723.64547  10847066.25843  24048070.4744   24048067.2314
     -2925.0984
 04  9  1 16 14 45.0010000  0  6G20G11G25G14G 1G22
  -2181744.89847  -1693471.38342  24132805.9814   24132803.8134
      2580.1474
  -8871794.25849  -7757093.89145  21900492.1534   21900489.7674
       449.7004
 -11702084.93449  -9107047.89546  21468600.9504   21468599.4424
      1227.1694
  10558701.66448   8219806.24245  22240225.6224   22240223.8104
     -2733.7114
 -10032737.90649  -7807445.80945  22233712.7634   22233711.6964
      1659.9994
  13987637.23048  10881284.60943  24056426.8564   24056423.3254
     -2927.5724
 04  9  1 16 15  0.0010000  0  6G20G11G25G14G 1G22
  -2220441.85947  -1723624.83242  24125441.4584   24125439.9744
      2579.7974
  -8878408.10949  -7762247.55145  21899233.5444   21899231.3884
       440.9234
 -11720371.66449  -9121297.28946  21465121.0054   21465119.6734
      1219.1154
  10599747.27048   8251789.81645  22248036.7314   22248034.2554
     -2736.3744
 -10057567.73849  -7826793.72345  22228987.5444   22228987.0954
      1655.3224
  14031586.73448  10915530.93843  24064790.1464   24064787.2554
     -2929.9674
 04  9  1 16 15 15.0010000  0  6G20G11G25G14G 1G22
  -2259132.25047  -1753773.15242  24118079.3644   24118077.2904
      2579.3594
  -8884888.91849  -7767297.53945  21898000.4504   21897998.4584
       432.0544
 -11738536.19949  -9135451.46546  21461664.4194   21461663.3294
      1210.9694
  10640833.81648   8283805.30545  22255855.0994   22255852.2434
     -2739.1034
 -10082326.14549  -7846085.96145  22224276.5994   22224275.9464
      1650.5604
  14075573.35548  10949806.14543  24073161.0834   24073158.0134
     -2932.4414
 04  9  1 16 15 30.0010000  0  6G20G11G25G14G 1G22
  -2297815.73847  -1783916.13342  24110718.4424   24110715.6774
      2578.8994
  -8891236.41849  -7772243.65645  21896792.2004   21896789.1464
       423.1674
 -11756578.22349  -9149510.17246  21458230.9504   21458230.0914
      1202.8024
  10681961.32448   8315852.69544  22263681.2314   22263678.7394
     -2741.8344
 -10107012.96949  -7865322.43045  22219578.4034   22219578.3214
      1645.7884
  14119597.22348  10984110.41843  24081537.7554   24081536.1854
     -2934.9244
 04  9  1 16 15 45.0010000  0  6G20G11G25G14G 1G22
  -2336491.65647  -1814053.24642  24103358.1854   24103356.4154
      2578.3954
  -8897449.85549  -7777085.30545  21895610.0054   21895607.4034
       414.2294
 -11774496.88349  -9163472.75446  21454821.2004   21454819.8564
      1194.5774
  10723130.19148   8347932.32845  22271515.6144   22271513.2714
     -2744.5914
 -10131627.53549  -7884502.60245  22214894.8174   22214894.3334
      1640.9714
  14163658.86748  11018444.17643  24089922.5834   24089920.3334
     -2937.4434
 04  9  1 16 16  0.0010000  0  6G20G11G25G14G 1G22
  -2375162.00047  -1844185.98442  24095999.4274   24095997.4194
      2578.0234
  -8903531.19549  -7781824.02046  21894452.5914   21894450.2354
       405.4234
 -11792294.19149  -9177340.76246  21451434.8024   21451433.3994
      1186.4874
  10764338.11749   8380042.39145  22279357.7244   22279355.3214
     -2747.1954
 -10156171.89549  -7903628.07045  22210223.7394   22210223.1574
      1636.2914
  14207756.27748  11052805.71543  24098313.7864   24098312.1344
     -2939.8274
 04  9  1 16 16 15.0010000  0  6G20G11G25G14G 1G22
  -2413825.96947  -1874313.77042  24088642.1924   24088639.5444
      2577.5984
  -8909479.75049  -7786459.25845  21893320.8884   21893318.3724
       396.5704
 -11809969.28949  -9191113.56246  21448071.3334   21448069.9784
      1178.3404
  10805585.53548   8412183.22345  22287206.6064   22287204.2394
     -2749.8284
 -10180645.42249  -7922698.34445  22205567.5214   22205566.4074
      1631.5684
  14251890.03148  11087195.61342  24106711.9504   24106710.5364
     -2942.2504
 04  9  1 16 16 30.0010000  0  6G20G11G25G14G 1G22
  -2452483.78947  -1904436.73042  24081285.4584   24081283.5214
      2577.1884
  -8915295.65249  -7790991.13745  21892214.0524   21892211.5914
       387.7274
 -11827522.28549  -9204791.21546  21444730.9974   21444729.4154
      1170.2004
  10846872.09449   8444354.55945  22295063.1224   22295061.0364
     -2752.4374
 -10205048.34449  -7941713.58245  22200922.8644   22200922.3024
      1626.8614
  14296059.83248  11121613.62143  24115117.2714   24115115.9314
     -2944.6534
 04  9  1 16 16 45.0010000  0  6G20G11G25G14G 1G22
  -2491134.40247  -1934554.08642  24073931.3024   24073928.6614
      2576.7084
  -8920978.03949  -7795418.98845  21891132.5604   21891130.2714
       378.8264
 -11844952.26649  -9218373.00846  21441414.0674   21441412.1534
      1161.9994
  10888198.30949   8476556.78545  22302927.4194   22302925.1964
     -2755.0814
 -10229379.86349  -7960673.19945  22196292.7244   22196292.8564
      1622.1014
  14340266.41048  11156060.27743  24123530.1534   24123528.1184
     -2947.1054
 04  9  1 16 17  0.0010000  0  6G20G11G25G14G 1G22
  -2529778.20747  -1964666.15242  24066577.3024   24066574.9354
      2576.2544
  -8926527.27349  -7799743.07845  21890076.7394   21890074.3454
       369.9494
 -11862259.53149  -9231859.18046  21438120.9354   21438119.1694
      1153.8184
  10929563.48449   8508789.38345  22310798.9034   22310797.0674
     -2757.6784
 -10253640.52748  -7979577.60245  22191676.2164   22191675.6034
      1617.3784
  14384509.20348  11190535.14843  24131949.0604   24131947.3564
     -2949.5204
 04  9  1 16 17 15.0010000  0  6G20G11G25G14G 1G22
  -2568414.00846  -1994771.93042  24059224.3564   24059223.0244
      2575.7204
  -8931942.39549  -7803962.65245  21889046.5674   21889043.7784
       361.0084
 -11879442.75849  -9245248.68746  21434851.0524   21434849.2354
      1145.5484
  10970968.43849   8541052.97345  22318677.8414   22318676.0014
     -2760.3304
 -10277829.23449  -7998425.94145  22187073.1854   22187072.7354
      1612.5804
  14428789.34448  11225039.09443  24140375.9584   24140373.5364
     -2952.0094
 04  9  1 16 17 30.0010000  0  6G20G11G25G14G 1G22
  -2607042.23046  -2024871.78142  24051873.7714   24051872.8414
      2575.2154
  -8937223.48449  -7808077.78945  21888041.5674   21888038.4814
       352.0734
 -11896502.45749  -9258541.95346  21431604.6464   21431603.0324
      1137.3134
  11012412.43449   8573346.98845  22326564.2714   22326562.4114
     -2762.9334
 -10301946.44949  -8017218.57045  22182483.9354   22182482.9894
      1607.8144
  14473106.30148  11259571.73443  24148809.2164   24148806.4504
     -2954.4644
 04  9  1 16 17 45.0010000  0  6G20G11G25G14G 1G22
  -2645663.68046  -2054966.43742  24044524.9744   24044522.6304
      2574.7634
  -8942371.65249  -7812089.35945  21887061.6534   21887059.2284
       343.2114
 -11913439.59049  -9271739.70746  21428381.5284   21428379.7864
      1129.1424
  11053894.18049   8605670.40644  22334457.7784   22334455.5174
     -2765.4504
 -10325993.30549  -8035956.36345  22177908.0914   22177907.2554
      1603.1244
  14517458.72748  11294132.03942  24157248.8254   24157245.9114
     -2956.8284
 04  9  1 16 18  0.0010000  0  6G20G11G25G14G 1G22
  -2684278.49647  -2085055.86742  24037176.0914   24037174.2984
      2574.3214
  -8947386.84849  -7815997.32045  21886107.4114   21886104.8764
       334.3464
 -11930254.01649  -9284841.85246  21425182.0914   21425180.3334
      1120.9624
  11095413.57449   8638023.16844  22342358.6614   22342356.4934
     -2767.9604
 -10349969.77349  -8054639.30545  22173345.3564   22173345.1464
      1598.4314
  14561846.74248  11328720.07042  24165695.3024   24165692.4894
     -2959.2014
 04  9  1 16 18 15.0010000  0  6G20G11G25G14G 1G22
  -2722886.18747  -2115139.78142  24029828.7314   24029827.4194
      2573.8464
  -8952268.60249  -7819801.28545  21885178.1144   21885175.9074
       325.4504
 -11946945.21149  -9297847.96146  21422005.4974   21422003.7634
      1112.7464
  11136970.62549   8670405.27344  22350266.6384   22350264.6184
     -2770.4704
 -10373875.48448  -8073267.12545  22168796.3494   22168795.5604
      1593.7144
  14606270.73448  11363336.17642  24174149.3254   24174145.5604
     -2961.5994
 04  9  1 16 18 30.0010000  0  6G20G11G25G14G 1G22
  -2761485.50446  -2145217.18442  24022484.5364   24022482.9464
      2573.2884
  -8957015.88349  -7823500.47745  21884274.5524   21884272.6814
       316.4854
 -11963511.94149  -9310757.10546  21418853.1304   21418851.2784
      1104.4494
  11178566.24649   8702817.42244  22358182.0994   22358179.8684
     -2773.0414
 -10397709.34049  -8091838.94945  22164260.5214   22164260.6224
      1588.9244
  14650731.73448  11397981.03542  24182609.5754   24182606.3534
     -2964.0674
 04  9  1 16 18 45.0010000  0  6G20G11G25G14G 1G22
  -2800076.10547  -2175287.75842  24015140.8174   24015140.1344
      2572.7074
  -8961628.37549  -7827094.63345  21883397.2474   21883394.8684
       307.4994
 -11979954.01249  -9323569.09046  21415724.4894   21415722.4424
      1096.1384
  11220200.37548   8735259.59044  22366105.0284   22366102.5174
     -2775.6094
 -10421471.24249  -8110354.69945  22159739.2784   22159738.7314
      1584.1274
  14695229.68047  11432654.71942  24191077.0214   24191073.8564
     -2966.5304
 04  9  1 16 19  0.0010000  0  6G20G11G25G14G 1G22
  -2838659.26247  -2205352.58242  24007799.1534   24007798.4384
      2572.2104
  -8966107.30149  -7830584.73045  21882545.1534   21882543.3884
       298.5954
 -11996272.43449  -9336284.73446  21412619.2634   21412617.2634
      1087.8954
  11261871.51648   8767730.58645  22374034.9664   22374032.5674
     -2778.0764
 -10445162.51649  -8128815.42245  22155230.7314   22155230.3804
      1579.4184
  14739763.27347  11467356.22342  24199552.3804   24199549.2354
     -2968.9064
 04  9  1 16 19 15.0010000  0  6G20G11G25G14G 1G22
  -2877235.30947  -2235411.80942  24000457.8724   24000456.2594
      2571.7364
  -8970453.02349  -7833971.00845  21881718.0524   21881716.5634
       289.7154
 -12012467.54749  -9348904.28546  21409537.2244   21409535.3684
      1079.6744
  11303579.04348   8800229.94144  22381971.5364   22381969.1574
     -2780.5024
 -10468783.48049  -8147221.35945  22150735.9894   22150734.9384
      1574.7314
  14784332.14547  11502085.17242  24208033.1464   24208030.2714
     -2971.2584
 04  9  1 16 19 30.0010000  0  6G20G11G25G14G 1G22
  -2915802.81248  -2265464.39142  23993119.0834   23993117.2514
      2571.1674
  -8974664.05149  -7837252.34046  21880916.8024   21880914.1574
       280.7354
 -12028537.98049  -9361426.70346  21406479.2164   21406477.0094
      1071.3624
  11345324.07448   8832758.53544  22389915.8884   22389913.1654
     -2783.0024
 -10492332.87949  -8165571.53145  22146254.6614   22146253.4464
      1569.9604
  14828937.61347  11536842.63343  24216521.7714   24216518.6654
     -2973.6984
 04  9  1 16 19 45.0010000  0  6G20G11G25G14G 1G22
  -2954363.30147  -2295511.53942  23985781.9424   23985779.5014
      2570.6994
  -8978742.32049  -7840430.22346  21880140.4114   21880138.2124
       271.8854
 -12044485.20349  -9373853.09446  21403444.3254   21403442.5564
      1063.1484
  11387104.65248   8865314.82444  22397865.6614   22397863.7514
     -2785.3724
 -10515812.49249  -8183867.32845  22141786.4584   22141785.3414
      1565.3084
  14873577.63747  11571627.01243  24225016.2554   24225013.7674
     -2976.0024
 04  9  1 16 20  0.0010000  0  6G20G11G25G14G 1G22
  -2992915.19547  -2325551.97342  23978445.0994   23978443.1924
      2570.1264
  -8982685.98849  -7843503.21945  21879390.1534   21879387.9624
       262.9114
 -12060307.69549  -9386182.29346  21400433.1774   21400431.9664
      1054.8334
  11428922.07448   8897899.81645  22405823.1064   22405821.3684
     -2787.8284
 -10539220.77749  -8202107.52345  22137332.0054   22137330.7314
      1560.5524
  14918253.80546  11606439.59043  24233517.1694   24233516.2124
     -2978.4114
 04  9  1 16 20 15.0010000  0  6G20G11G25G14G 1G22
  -3031458.20746  -2355585.48042  23971109.3414   23971108.4624
      2569.5344
  -8986494.98849  -7846471.27345  21878665.4354   21878662.7284
       253.9334
 -12076005.06649  -9398414.01246  21397446.0604   21397444.8174
      1046.4914
  11470776.32848   8930513.51244  22413788.5754   22413785.6424
     -2790.2844
 -10562557.57449  -8220292.03545  22132891.1614   22132889.3844
      1555.7864
  14962966.38746  11641280.52042  24242026.3804   24242024.1924
     -2980.8394
 04  9  1 16 20 30.0010000  0  6G20G11G25G14G 1G22
  -3069992.95346  -2385612.51242  23963776.8964   23963775.8454
      2568.9834
  -8990169.89848  -7849334.85245  21877966.0364   21877963.3684
       244.9944
 -12091577.97349  -9410548.73446  21394482.8884   21394481.1034
      1038.1944
  11512666.50848   8963155.18844  22421759.7314   22421756.5404
     -2792.6794
 -10585823.59449  -8238421.39145  22128463.5524   22128462.6734
      1551.0684
  15007714.53947  11676149.14542  24250542.2244   24250538.9504
     -2983.2104
 04  9  1 16 20 45.0010000  0  6G20G11G25G14G 1G22
  -3108519.29746  -2415633.03542  23956446.4354   23956444.9544
      2568.4234
  -8993710.72749  -7852093.95745  21877292.1144   21877290.1344
       236.0554
 -12107026.23049  -9422586.32046  21391543.1534   21391541.3494
      1029.8844
  11554592.37148   8995824.68044  22429737.7004   22429735.2044
     -2795.0584
 -10609018.80549  -8256495.58245  22124049.9814   22124048.2824
      1546.3474
  15052498.09447  11711045.37942  24259064.2394   24259060.8924
     -2985.5704
 04  9  1 16 21  0.0010000  0  6G20G11G25G14G 1G22
  -3147036.44146  -2445646.35242  23949116.6224   23949115.2944
      2567.8104
  -8997116.53149  -7854747.82845  21876644.1774   21876641.6384
       227.0544
 -12122348.92249  -9434526.07846  21388627.1464   21388625.5954
      1021.5134
  11596554.44948   9028522.38344  22437723.1224   22437720.0364
     -2797.4724
 -10632142.60249  -8274514.11345  22119649.9814   22119648.8214
      1541.5864
  15097317.79746  11745969.76642  24267592.3104   24267590.1694
     -2987.9804
 04  9  1 16 21 15.0010000  0  6G20G11G25G14G 1G22
  -3185545.56647  -2475653.46542  23941788.5444   23941787.6344
      2567.2754
  -9000388.69949  -7857297.58645  21876021.5364   21876018.7394
       218.1454
 -12137547.36349  -9446369.01646  21385734.8644   21385733.4424
      1013.2294
  11638551.15648   9061247.08244  22445714.1774   22445711.8024
     -2799.7804
 -10655196.24649  -8292477.98045  22115262.2164   22115261.4814
      1536.9104
  15142172.24646  11780921.27343  24276127.9744   24276125.8644
     -2990.2974
 04  9  1 16 21 30.0010000  0  6G20G11G25G14G 1G22
  -3224046.24247  -2505653.96142  23934462.1694   23934460.8064
      2566.7124
  -9003526.87149  -7859742.92645  21875424.3254   21875422.0174
       209.2114
 -12152621.11749  -9458114.78146  21382866.7314   21382864.7714
      1004.9174
  11680582.69949   9093998.91044  22453712.8254   22453709.9194
     -2802.1034
 -10678179.46149  -8310386.95745  22110888.8644   22110888.1184
      1532.2144
  15187061.75847  11815900.07442  24284670.3564   24284667.7594
     -2992.6344
 04  9  1 16 21 45.0020000  0  6G20G11G25G14G 1G22
  -3262540.57846  -2535649.54742  23927136.8464   23927135.1784
      2566.2894
  -9006530.81649  -7862083.66445  21874852.7364   21874850.5534
       200.2634
 -12167570.81249  -9469763.88346  21380022.0024   21380019.6824
       996.6464
  11722651.98049   9126780.16444  22461718.4714   22461715.6784
     -2804.6194
 -10701093.41449  -8328241.97745  22106529.0104   22106527.7914
      1527.5974
  15231989.46146  11850908.62142  24293219.6584   24293217.7174
     -2995.1804
 04  9  1 16 22  0.0020000  0  6G20G11G25G14G 1G22
  -3301022.44146  -2565635.36342  23919813.4554   23919811.9124
      2565.4584
  -9009399.06649  -7864318.68045  21874306.9084   21874304.1544
       191.2174
 -12182393.29749  -9481313.85946  21377201.6504   21377199.3114
       988.1664
  11764754.02749   9159586.94144  22469730.4864   22469728.0454
     -2806.8034
 -10723934.10949  -8346039.91045  22102182.4004   22102181.5104
      1522.7134
  15276950.31646  11885942.98442  24301775.5804   24301773.3964
     -2997.3904
 04  9  1 16 22 15.0020000  0  6G20G11G25G14G 1G22
  -3339493.89847  -2595613.09442  23912493.1194   23912492.1434
      2564.7644
  -9012131.56649  -7866447.89845  21873786.8774   21873784.3654
       182.1674
 -12197089.11349  -9492765.12546  21374404.8224   21374402.5414
       979.7214
  11806891.84449   9192421.59444  22477748.9634   22477747.3854
     -2809.1884
 -10746702.81249  -8363781.74245  22097849.2834   22097848.5574
      1517.9144
  15321947.75046  11921005.84442  24310338.3144   24310336.1744
     -2999.8294
 04  9  1 16 22 30.0020000  0  6G20G11G25G14G 1G22
  -3377955.73847  -2625583.37542  23905174.5494   23905173.3264
      2564.1234
  -9014729.00849  -7868471.89145  21873292.4164   21873290.2994
       173.1634
 -12211659.01249  -9504118.29346  21371632.2834   21371630.3184
       971.3274
  11849064.28548   9225283.21144  22485774.0184   22485772.2254
     -2811.4964
 -10769400.44949  -8381468.19945  22093530.3934   22093529.6044
      1513.1764
  15366980.64846  11956096.35543  24318908.0494   24318906.1074
     -3002.1934
 04  9  1 16 22 45.0020000  0  6G20G11G25G14G 1G22
  -3416408.64547  -2655546.66442  23897856.2134   23897854.9084
      2563.5274
  -9017192.27049  -7870391.30945  21872824.1354   21872821.3614
       164.2174
 -12226103.88349  -9515374.02346  21368883.5884   21368881.5334
       962.9914
  11891270.29748   9258171.00444  22493805.6044   22493803.1974
     -2813.7344
 -10792027.83649  -8399099.92245  22089224.4634   22089223.4864
      1508.4924
  15412048.15646  11991213.86742  24327484.0184   24327482.0614
     -3004.5014
 04  9  1 16 23  0.0020000  0  6G20G11G25G14G 1G22
  -3454851.52045  -2685502.14842  23890540.8544   23890538.9714
      2562.8584
  -9019520.28949  -7872205.36745  21872381.4634   21872377.8964
       155.2014
 -12240422.51649  -9526531.40246  21366158.5804   21366156.7714
       954.5764
  11933510.74248   9291085.62144  22501843.5024   22501841.1464
     -2816.0304
 -10814584.00849  -8416676.14145  22084932.0334   22084930.9944
      1503.7454
  15457151.24247  12026359.10543  24336066.5574   24336064.5684
     -3006.8724
 04  9  1 16 23 15.0020000  0  6G20G11G25G14G 1G22
  -3493284.20747  -2715449.69942  23883228.1584   23883225.3384
      2562.1794
  -9021713.16049  -7873914.11345  21871963.7834   21871960.7914
       146.1914
 -12254614.87949  -9537590.38346  21363457.4794   21363456.3384
       946.1584
  11975785.36748   9324026.87944  22509888.5254   22509885.7684
     -2818.3084
 -10837068.96949  -8434196.88745  22080653.6044   22080652.4984
      1498.9974
  15502289.87547  12061531.97342  24344656.1114   24344653.9594
     -3009.2424
 04  9  1 16 23 30.0020000  0  6G20G11G25G14G 1G22
  -3531706.19547  -2745388.89142  23875916.3224   23875915.1354
      2561.4664
  -9023770.17649  -7875516.98445  21871572.7054   21871569.7524
       137.1344
 -12268680.30149  -9548550.42646  21360781.4164   21360779.4004
       937.6954
  12018094.55548   9356995.05944  22517939.7054   22517937.5764
     -2820.6124
 -10859482.21549  -8451661.72745  22076388.1434   22076387.0534
      1494.2164
  15547464.51247  12096732.95742  24353252.4864   24353249.5494
     -3011.6424
 04  9  1 16 23 45.0020000  0  6G20G11G25G14G 1G22
  -3570117.09446  -2775319.43042  23868606.4164   23868605.7954
      2560.7274
  -9025691.09849  -7877013.82845  21871206.6584   21871203.8074
       128.0614
 -12282618.37549  -9559411.25846  21358128.8304   21358127.1004
       929.2054
  12060438.21148   9389990.10544  22525997.0494   22525994.9394
     -2822.9104
 -10881823.51649  -8469070.52345  22072136.9634   22072136.2714
      1489.4204
  15592675.38347  12131962.20342  24361856.5804   24361853.3504
     -3014.0584
 04  9  1 16 24  0.0020000  0  6G20G11G25G14G 1G22
  -3608518.16846  -2805242.34842  23861299.5414   23861297.9164
      2560.0724
  -9027477.20349  -7878405.60245  21870866.9714   21870863.8464
       119.0744
 -12296430.42649  -9570173.89846  21355500.5964   21355498.5924
       920.8034
  12102814.71948   9423010.75044  22534061.0254   22534058.7874
     -2825.1014
 -10904094.35249  -8486424.39545  22067898.5644   22067898.1744
      1484.7224
  15637920.89847  12167218.42642  24370467.1044   24370463.6934
     -3016.3684
 04  9  1 16 24 15.0020000  0  6G20G11G25G14G 1G22
  -3646909.15246  -2835157.37942  23853993.8384   23853992.0144
      2559.3994
  -9029128.26649  -7879692.15245  21870552.9004   21870550.0924
       110.0714
 -12310116.13349  -9580838.07446  21352896.5494   21352894.4864
       912.3804
  12145224.18048   9456057.06344  22542131.5884   22542129.3894
     -2827.2974
 -10926294.53149  -8503723.23045  22063674.2214   22063673.9394
      1480.0124
  15683201.16848  12202501.68443  24379082.9554   24379080.9204
     -3018.6854
 04  9  1 16 24 30.0020000  0  6G20G11G25G14G 1G22
  -3685289.43446  -2865064.09042  23846690.7364   23846687.8504
      2558.6854
  -9030643.81249  -7880873.10545  21870264.4474   21870262.1464
       101.0364
 -12323675.00449  -9591403.43046  21350315.5414   21350313.8894
       903.9254
  12187666.78548   9489129.20744  22550207.9394   22550206.1624
     -2829.5074
 -10948423.63349  -8520966.67245  22059463.2214   22059462.8184
      1475.2734
  15728516.61748  12237812.34443  24387706.1434   24387704.8384
     -3021.0304
 04  9  1 16 24 45.0020000  0  6G20G11G25G14G 1G22
  -3723658.53946  -2894962.12942  23839388.8544   23839386.7794
      2557.9404
  -9032023.67649  -7881948.32845  21870001.6584   21869998.9474
        91.9914
 -12337106.59049  -9601869.57446  21347760.0884   21347758.1934
       895.4394
  12230142.48848   9522227.14544  22558290.3144   22558289.2444
     -2831.7144
 -10970481.43749  -8538154.55945  22055265.9394   22055264.7714
      1470.5204
  15773867.48448  12273150.62943  24396335.2914   24396334.0064
     -3023.3914
 04  9  1 16 25  0.0020000  0  6G20G11G25G14G 1G22
  -3762017.18746  -2924851.93742  23832088.3854   23832088.7174
      2557.2434
  -9033268.40649  -7882918.24245  21869764.8614   21869762.6074
        82.9824
 -12350411.55549  -9612237.07446  21345228.3074   21345226.2174
       886.9984
  12272650.43448   9555350.20744  22566379.7444   22566377.7834
     -2833.8634
 -10992468.66449  -8555287.45345  22051081.5334   22051080.4164
      1465.8154
  15819253.03148  12308515.95743  24404973.1434   24404970.8034
     -3025.7034
 04  9  1 16 25 15.0020000  0  6G20G11G25G14G 1G22
  -3800365.93047  -2954734.06642  23824791.9554   23824790.9594
      2556.5834
  -9034378.81649  -7883783.50845  21869553.4794   21869551.6074
        74.0274
 -12363590.62149  -9622506.46546  21342719.9794   21342718.7324
       878.6044
  12315189.80548   9588497.75044  22574474.9554   22574472.0804
     -2835.9584
 -11014386.03949  -8572365.91445  22046911.0024   22046909.6234
      1461.1584
  15864672.36748  12343907.62143  24413615.8144   24413613.7214
     -3027.9564
 04  9  1 16 25 30.0020000  0  6G20G11G25G14G 1G22
  -3838704.21147  -2984608.05642  23817496.5964   23817494.3034
      2555.8854
  -9035354.30149  -7884543.62145  21869367.9474   21869365.9124
        65.0324
 -12376643.17649  -9632677.28146  21340236.2834   21340234.5454
       870.1704
  12357760.79748   9621669.93444  22582575.8694   22582573.4124
     -2838.0664
 -11036233.07849  -8589389.57045  22042753.4864   22042752.5494
      1456.4694
  15910126.02348  12379325.98443  24422265.7134   24422263.2134
     -3030.2444
 04  9  1 16 25 45.0020000  0  6G20G11G25G14G 1G22
  -3877031.14847  -3014473.15242  23810203.0414   23810199.8814
      2555.1294
  -9036194.14549  -7885198.05946  21869208.2134   21869206.0104
        55.9904
 -12389568.29749  -9642748.80146  21337777.1434   21337774.9084
       861.6754
  12400364.03149   9654867.25444  22590683.2294   22590680.5884
     -2840.2164
 -11058009.08649  -8606357.86745  22038609.7444   22038609.2054
      1451.7344
  15955614.69148  12414771.66843  24430921.4864   24430918.9754
     -3032.5784
 04  9  1 16 26  0.0020000  0  6G20G11G25G14G 1G22
  -3915346.22348  -3044329.05942  23802911.4634   23802909.0254
      2554.3384
  -9036897.87149  -7885746.41845  21869074.1434   21869071.8814
        46.9154
 -12402365.63749  -9652720.74646  21335341.6044   21335339.8934
       853.1564
  12442999.52349   9688089.69944  22598796.7054   22598793.5214
     -2842.3664
 -11079713.70749  -8623270.55145  22034479.4714   22034479.1194
      1446.9754
  16001138.59447  12450244.78143  24439584.8694   24439583.0494
     -3034.9274
 04  9  1 16 26 15.0020000  0  6G20G11G25G14G 1G22
  -3953649.50048  -3074175.78543  23795623.1744   23795621.2054
      2553.5524
  -9037465.70349  -7886188.89145  21868965.9474   21868963.5724
        37.8554
 -12415035.11749  -9662593.05946  21332930.1894   21332928.9634
       844.6324
  12485666.96149   9721337.04744  22606915.5574   22606912.8614
     -2844.4964
 -11101347.15649  -8640127.77345  22030362.4944   22030362.0684
      1442.2304
  16046697.55947  12485745.24243  24448255.0884   24448252.4364
     -3037.2644
 04  9  1 16 26 30.0020000  0  6G20G11G25G14G 1G22
  -3991941.45747  -3104013.67643  23788336.4394   23788334.4674
      2552.7974
  -9037898.06649  -7886525.80546  21868883.8934   21868881.0844
        28.8244
 -12427577.15649  -9672366.07446  21330544.2684   21330542.4944
       836.1364
  12528365.57449   9754608.66844  22615040.9554   22615038.3224
     -2846.5744
 -11122909.97349  -8656929.95345  22026259.5254   22026258.4714
      1437.5214
  16092291.01247  12521272.56342  24456930.3614   24456928.2684
     -3039.5644
 04  9  1 16 26 45.0020000  0  6G20G11G25G14G 1G22
  -4030220.09047  -3133841.16842  23781052.1894   23781050.0254
      2551.9094
  -9038193.07449  -7886755.68746  21868828.1974   21868825.8544
        19.6674
 -12439989.87149  -9682038.30946  21328181.8074   21328180.3734
       827.5144
  12571097.11348   9787905.96944  22623171.9084   22623169.8144
     -2848.7694
 -11144400.34449  -8673675.68745  22022170.0494   22022169.0844
      1432.6914
  16137920.72747  12556828.13742  24465613.0884   24465611.7054
     -3041.9814
 04  9  1 16 27  0.0020000  0  6G20G11G25G14G 1G22
  -4068487.72348  -3163660.07443  23773770.6274   23773768.5844
      2551.1764
  -9038353.28949  -7886880.53945  21868797.3074   21868794.3504
        10.6814
 -12452275.69949  -9691611.68046  21325844.0964   21325842.5614
       819.0554
  12613858.79749   9821226.76244  22631309.5104   22631307.3144
     -2850.7794
 -11165820.77349  -8690366.91845  22018093.9474   22018092.9244
      1428.0294
  16183584.02047  12592409.89542  24474302.0724   24474301.3114
     -3044.2204
 04  9  1 16 27 15.0020000  0  6G20G11G25G14G 1G22
  -4106743.18047  -3193469.50443  23766490.6434   23766488.6584
      2550.3644
  -9038377.69949  -7886899.55546  21868792.6664   21868790.1274
         1.6274
 -12464433.61349  -9701085.35546  21323530.1894   21323529.1194
       810.5284
  12656651.46949   9854571.68044  22639452.9554   22639450.5764
     -2852.8454
 -11187170.25049  -8707002.85945  22014031.1044   22014030.2874
      1423.2984
  16229282.05546  12628018.70342  24482999.5644   24482996.4474
     -3046.5364
 04  9  1 16 27 30.0020000  0  6G20G11G25G14G 1G22
  -4144985.90248  -3223269.04343  23759213.4474   23759210.3114
      2549.5154
  -9038265.60949  -7886812.22745  21868813.9864   21868811.4634
        -7.4734
 -12476463.12149  -9710458.99246  21321241.7134   21321240.0104
       801.9674
  12699475.46148   9887941.02044  22647602.0724   22647599.8034
     -2854.9334
 -11208448.34849  -8723583.17645  22009982.2214   22009981.2094
      1418.5404
  16275015.03946  12663654.72742  24491702.5024   24491699.9674
     -3048.8664
 04  9  1 16 27 45.0020000  0  6G20G11G25G14G 1G22
  -4183216.48448  -3253059.09843  23751938.1584   23751935.2444
      2548.7054
  -9038017.96149  -7886619.27345  21868860.7294   21868858.5334
       -16.5104
 -12488364.89149  -9719733.09446  21318976.4474   21318975.1894
       793.4514
  12742329.78948   9921333.97744  22655756.8854   22655754.6394
     -2856.9554
 -11229655.80949  -8740108.46145  22005946.3544   22005945.0104
      1413.8314
  16320782.38347  12699317.48842  24500411.4244   24500409.7644
     -3051.1564
 04  9  1 16 28  0.0020000  0  6G20G11G25G14G 1G22
  -4221434.30548  -3282839.23043  23744665.4554   23744662.4164
      2547.8554
  -9037634.03949  -7886320.11745  21868934.3224   21868931.7294
       -25.5954
 -12500138.23849  -9728907.11346  21316736.3464   21316734.4514
       784.8904
  12785214.77748   9954750.82844  22663917.6434   22663914.9284
     -2858.9994
 -11250792.19949  -8756578.37945  22001924.2604   22001923.0214
      1409.0934
  16366584.31646  12735007.25442  24509127.3464   24509125.0334
     -3053.4624
 04  9  1 16 28 15.0020000  0  6G20G11G25G14G 1G22
  -4259638.04348  -3312608.34042  23737395.0184   23737392.5804
      2546.9164
  -9037112.75449  -7885913.92645  21869033.1044   21869030.5414
       -34.7524
 -12511781.79349  -9737980.01646  21314520.4864   21314518.6894
       776.2374
  12828131.43848   9988192.37544  22672084.4634   22672082.2214
     -2861.1114
 -11271856.34449  -8772991.97345  21997915.3934   21997914.8034
      1404.2764
  16412422.16045  12770724.95342  24517849.8934   24517847.2364
     -3055.8564
 04  9  1 16 28 30.0020000  0  6G20G11G25G14G 1G22
  -4297828.72747  -3342367.30942  23730127.8384   23730124.8344
      2546.0464
  -9036455.06649  -7885401.46146  21869158.7214   21869156.3144
       -43.8464
 -12523296.60549  -9746952.58646  21312329.2214   21312327.3544
       767.6544
  12871078.36749  10021657.49244  22680257.0254   22680255.1274
     -2863.1294
 -11292849.32049  -8789350.12545  21993920.7294   21993920.2604
      1399.5324
  16458294.62545  12806469.70342  24526578.5644   24526577.0534
     -3058.1644
 04  9  1 16 28 45.0020000  0  6G20G11G25G14G 1G22
  -4336006.30948  -3372116.03942  23722863.2054   23722860.3614
      2545.1724
  -9035661.20749  -7884782.87545  21869309.7684   21869307.0614
       -52.9244
 -12534682.78949  -9755824.91846  21310162.9004   21310160.6004
       759.0794
  12914055.25849  10055145.95744  22688435.4164   22688433.0144
     -2865.1264
 -11313771.37949  -8805653.02045  21989939.5334   21989938.6824
      1394.8044
  16504201.55145  12842241.31641  24535314.7524   24535312.8814
     -3060.4624
 04  9  1 16 29  0.0020000  0  6G20G11G25G14G 1G22
  -4374171.10248  -3401854.84042  23715600.2994   23715598.0254
      2544.3204
  -9034731.50849  -7884058.43445  21869486.1504   21869484.2134
       -61.9804
 -12545940.60549  -9764597.23846  21308020.2294   21308018.2994
       750.5214
  12957061.45749  10088657.26244  22696619.0414   22696616.8464
     -2867.0804
 -11334622.94549  -8821900.97745  21985971.5184   21985970.9164
      1390.1044
  16550142.36345  12878039.28941  24544057.8304   24544055.2484
     -3062.7214
 04  9  1 16 29 15.0020000  0  6G20G11G25G14G 1G22
  -4412321.75047  -3431582.61742  23708340.8464   23708338.6004
      2543.3774
  -9033664.86349  -7883227.28946  21869689.4244   21869687.5104
       -71.1104
 -12557068.87949  -9773268.61746  21305902.7134   21305900.8264
       741.8854
  13000098.00049  10122192.20744  22704808.9324   22704806.6314
     -2869.1034
 -11355402.81649  -8838093.07845  21982017.3464   21982017.0184
      1385.3254
  16596118.22745  12913864.67641  24552805.3074   24552802.8224
     -3065.0584
 04  9  1 16 29 30.0020000  0  6G20G11G25G14G 1G22
  -4450458.59448  -3461299.63342  23701083.1274   23701080.7644
      2542.4564
  -9032461.76649  -7882289.81246  21869918.4394   21869915.9244
       -80.2074
 -12568067.98449  -9781839.33646  21303809.6664   21303808.1584
       733.2744
  13043164.28549  10155750.34444  22713004.0884   22713002.0804
     -2871.0864
 -11376111.44549  -8854229.65245  21978076.6584   21978075.9794
      1380.5754
  16642128.74645  12949716.89141  24561561.7684   24561558.7254
     -3067.3684
 04  9  1 16 29 45.0020000  0  6G20G11G25G14G 1G22
  -4488581.17648  -3491005.52743  23693828.7134   23693826.7754
      2541.5054
  -9031121.89549  -7881245.78146  21870173.6894   21870170.6504
       -89.3254
 -12578937.28949  -9790308.92646  21301741.1434   21301739.4324
       724.6204
  13086260.59449  10189331.86344  22721204.7444   22721202.4084
     -2873.0874
 -11396748.41849  -8870310.40245  21974149.7524   21974148.6704
      1375.7984
  16688174.38345  12985596.63341  24570324.2134   24570320.8144
     -3069.7094
 04  9  1 16 30  0.0020000  0  6G20G11G25G14G 1G22
  -4526691.18048  -3520701.59843  23686576.8464   23686574.9904
      2540.6674
  -9029646.73449  -7880096.31246  21870454.3854   21870451.8114
       -98.3444
 -12589678.64849  -9798678.80146  21299697.1194   21299695.2094
       716.0914
  13129384.75449  10222935.10544  22729411.0574   22729409.3964
     -2874.9444
 -11417315.64549  -8886336.79745  21970235.7134   21970234.9794
      1371.1484
  16734252.93045  13021501.90641  24579092.3774   24579089.1464
     -3071.9034
 04  9  1 16 30 15.0020000  0  6G20G11G25G14G 1G22
  -4564787.81248  -3550387.27342  23679327.4244   23679324.8424
      2539.7764
  -9028035.76249  -7878841.01646  21870760.7754   21870758.1464
      -107.3984
 -12600291.37949  -9806948.45746  21297677.4714   21297675.7604
       707.5154
  13172537.13348  10256560.30544  22737622.7684   22737621.1234
     -2876.8254
 -11437812.58649  -8902308.44545  21966334.9394   21966334.6934
      1366.4634
  16780365.12545  13057433.34441  24587866.6894   24587864.9164
     -3074.1464
 04  9  1 16 30 30.0020000  0  6G20G11G25G14G 1G22
  -4602870.95348  -3580062.43742  23672080.4554   23672077.1394
      2538.8764
  -9026289.06249  -7877479.95745  21871093.0804   21871090.8074
      -116.4474
 -12610775.50449  -9815117.90646  21295682.3464   21295681.0064
       698.9424
  13215717.66048  10290207.45744  22745839.8464   22745838.1194
     -2878.7024
 -11458239.35949  -8918225.39145  21962448.1434   21962447.8384
      1361.7854
  16826510.78944  13093390.95341  24596649.3224   24596646.9244
     -3076.3784
 04  9  1 16 30 45.0020000  0  6G20G11G25G14G 1G22
  -4640939.04348  -3609725.83642  23664835.7604   23664833.3504
      2537.8734
  -9024405.11349  -7876011.94545  21871451.6504   21871449.4164
      -125.5974
 -12621129.39549  -9823185.86346  21293712.4244   21293710.7214
       690.2594
  13258927.64149  10323877.57044  22754062.4084   22754061.0104
     -2880.6654
 -11478594.39849  -8934086.45345  21958575.0724   21958574.3614
      1357.0034
  16872691.37944  13129375.73041  24605436.7914   24605434.5574
     -3078.7064
 04  9  1 16 31  0.0020000  0  6G20G11G25G14G 1G22
  -4678993.47348  -3639378.65242  23657594.1044   23657591.4904
      2536.9624
  -9022385.55549  -7874438.27045  21871835.7134   21871834.0254
      -134.6374
 -12631354.69549  -9831153.62146  21291766.9324   21291765.1194
       681.6874
  13302165.18449  10357569.14544  22762290.2754   22762288.7404
     -2882.5034
 -11498879.43749  -8949892.96545  21954714.6824   21954713.6784
      1352.3364
  16918905.324 3                  24614235.596
     -3080.930
 04  9  1 16 31 15.0020000  0  5G20G11G25G14G 1
  -4717033.60948  -3669020.31242  23650355.2134   23650353.1274
      2536.0094
  -9020229.86349  -7872758.52745  21872245.8614   21872244.0884
      -143.7134
 -12641450.84849  -9839020.73846  21289844.7914   21289843.8574
       673.0774
  13345430.58248  10391282.43044  22770523.3224   22770522.1504
     -2884.3604
 -11519093.96549  -8965644.53145  21950868.0804   21950866.6114
      1347.6354
 04  9  1 16 31 30.0020000  0  5G20G11G25G14G 1
  -4755057.94148  -3698649.64842  23643119.8464   23643117.6004
      2534.9554
  -9017936.64849  -7870971.61745  21872682.6434   21872680.3074
      -152.8814
 -12651416.27349  -9846786.00447  21287948.8854   21287947.1044
       664.3624
  13388725.28948  10425018.54744  22778762.3854   22778760.1824
     -2886.3144
 -11539236.52049  -8981340.02045  21947034.9794   21947033.9794
      1342.8374
 04  9  1 16 31 45.0020000  0  5G20G11G25G14G 1
  -4793067.89848  -3728267.77343  23635886.4714   23635885.1114
      2533.9974
  -9015507.34049  -7869078.66446  21873144.8854   21873142.7054
      -161.9544
 -12661252.37949  -9854450.48846  21286077.0254   21286075.5144
       655.7404
  13432047.29749  10458775.93844  22787006.1354   22787003.6154
     -2888.1344
 -11559308.70749  -8996980.66045  21943215.2684   21943214.4124
      1338.1464
 04  9  1 16 32  0.0020000  0  5G20G11G25G14G 1
  -4831063.12948  -3757874.42643  23628657.0644   23628655.7404
      2533.0154
  -9012941.82449  -7867079.57445  21873632.8464   21873630.7794
      -171.0344
 -12670959.02749  -9862014.10947  21284230.0104   21284228.4364
       647.1104
  13475396.64849  10492554.64144  22795255.5254   22795253.2364
     -2889.9574
 -11579310.40649  -9012566.38745  21939409.4864   21939408.0804
      1333.4474
 04  9  1 16 32 15.0020000  0  5G20G11G25G14G 1
  -4869043.52047  -3787469.54343  23621429.3934   23621428.0964
      2532.0264
  -9010240.16049  -7864974.39545  21874146.6044   21874144.7444
      -180.1114
 -12680536.17249  -9869476.82046  21282407.7604   21282406.1274
       638.4764
  13518773.25449  10526354.58244  22803509.7054   22803507.3114
     -2891.7744
 -11599241.61349  -9028097.18445  21935616.1894   21935615.1354
      1328.7474
 04  9  1 16 32 30.0020000  0  6G20G11G25G14G 1G22
  -4907009.71948  -3817053.61742  23614204.7604   23614202.1584
      2531.0804
  -9007403.09049  -7862763.68745  21874686.6824   21874684.4864
      -189.1384
 -12689984.41449  -9876839.07446  21280609.2834   21280607.8734
       629.8834
  13562176.08248  10560174.95344  22811768.7604   22811766.6434
     -2893.5224
 -11619103.12149  -9043573.68045  21931836.7754   21931835.9204
      1324.1014
     38994.84815                  24667131.252

 04  9  1 16 32 45.0020000  0  6G20G11G25G14G 1G22
  -4944959.95748  -3846625.20742  23606983.1664   23606979.2484
      2530.0164
  -9004428.94549  -7860446.19146  21875252.9714   21875250.2754
      -198.2764
 -12699302.09449  -9884099.59846  21278836.2834   21278834.6194
       621.1794
  13605606.56348  10594016.87144  22820033.0414   22820031.1584
     -2895.3654
 -11638893.37149  -9058994.65245  21928070.8774   21928070.5644
      1319.3504
     85444.773 3                  24675969.064
     -3096.662
 04  9  1 16 33  0.0020000  0  5G20G11G25G14G 1
  -4982895.28547  -3876185.19542  23599764.1824   23599761.0104
      2529.0224
  -9001319.10249  -7858022.95746  21875844.3544   21875842.2134
      -207.3234
 -12708490.43049  -9891259.33246  21277087.8144   21277085.7914
       612.5564
  13649063.30548  10627879.27044  22828302.8384   22828300.5684
     -2897.1164
 -11658613.64849  -9074361.09846  21924318.0414   21924317.3654
      1314.6854
 04  9  1 16 33 15.0020000  0  5G20G11G25G14G 1
  -5020814.23047  -3905732.37942  23592547.7834   23592546.2214
      2527.9304
  -8998072.02049  -7855492.77745  21876462.8854   21876460.1464
      -216.4724
 -12717547.97749  -9898317.15247  21275364.0724   21275362.6624
       603.8364
  13692547.49249  10661763.03544  22836577.8774   22836575.2404
     -2898.9464
 -11678262.56649  -9089671.91446  21920579.2444   21920577.9754
      1309.9284
 04  9  1 16 33 30.0020000  0  5G20G11G25G14G 1
  -5058717.95747  -3935267.71943  23585335.2914   23585334.2914
      2526.9154
  -8994689.16049  -7852856.78145  21877106.6664   21877103.7604
      -225.5244
 -12726475.97349  -9905274.02746  21273665.4084   21273663.3814
       595.2004
  13736057.62548  10695667.01244  22844857.0104   22844855.6464
     -2900.6764
 -11697841.44549  -9104928.17646  21916853.4714   21916851.8934
      1305.2594
 04  9  1 16 33 45.0020000  0  5G20G11G25G14G 1
  -5096604.90647  -3964790.03542  23578125.4164   23578123.7294
      2525.7974
  -8991169.12549  -7850113.91045  21877776.5184   21877773.7484
      -234.6694
 -12735273.00449  -9912128.85246  21271991.0804   21271989.7564
       586.4694
  13779594.94948  10729592.18444  22853142.0334   22853140.7294
     -2902.4884
 -11717348.96549  -9120128.83645  21913141.0884   21913140.4204
      1300.5014
 04  9  1 16 34  0.0020000  0  5G20G11G25G14G 1
  -5134475.98847  -3994299.98443  23570919.3614   23570916.2214
      2524.7394
  -8987512.89549  -7847264.90245  21878472.2364   21878469.5254
      -243.7494
 -12743940.09849  -9918882.42646  21270342.2294   21270340.2174
       577.8064
  13823158.04748  10763537.43844  22861432.1434   22861430.5684
     -2904.2074
 -11736786.18049  -9135274.70345  21909442.5574   21909441.0214
      1295.8144
 04  9  1 16 34 15.0020000  0  5G20G11G25G14G 1
  -5172330.91047  -4023797.30143  23563716.2444   23563713.9824
      2523.6614
  -8983720.34849  -7844309.68746  21879193.5104   21879190.8964
      -252.8364
 -12752476.95749  -9925534.52046  21268717.6434   21268715.7714
       569.1244
  13866747.11749  10797502.93444  22869726.8774   22869724.3854
     -2905.9384
 -11756152.93049  -9150365.67246  21905757.0964   21905755.9754
      1291.1174
 04  9  1 16 34 30.0020000  0  5G20G11G25G14G 1
  -5210169.01647  -4053281.53543  23556515.2214   23556513.8774
      2522.5404
  -8979791.08249  -7841247.93446  21879941.6894   21879938.9204
      -261.9514
 -12760883.18749  -9932084.82447  21267117.8304   21267115.9474
       560.4154
  13910362.29748  10831488.78544  22878026.4864   22878024.5454
     -2907.6794
 -11775448.87549  -9165401.46546  21902085.3774   21902084.4364
      1286.3964
 04  9  1 16 34 45.0020000  0  5G20G11G25G14G 1
  -5247987.69546  -4082750.64143  23549318.1044   23549316.9124
      2521.2454
  -8975722.40249  -7838077.53946  21880715.6824   21880713.3184
      -271.2454
 -12769156.00449  -9938531.17646  21265543.7364   21265541.6704
       551.5214
  13954006.07848  10865496.91444  22886331.2294   22886329.8384
     -2909.5854
 -11794671.40249  -9180380.05945  21898427.5024   21898426.2214
      1281.5024
 04  9  1 16 35  0.0020000  0  5G20G11G25G14G 1
  -5285788.07846  -4112205.47742  23542124.6044   23542123.5924
      2520.0264
  -8971515.71949  -7834799.59446  21881516.3224   21881513.5764
      -280.4464
 -12777296.75049  -9944874.61346  21263994.4244   21263992.6434
       542.7164
  13997676.96948  10899526.15644  22894641.7834   22894640.2294
     -2911.3934
 -11813821.84449  -9195302.45345  21894782.5254   21894781.5964
      1276.6964
 04  9  1 16 35 15.0020000  0  5G20G11G25G14G 1
  -5323569.50047  -4141645.54343  23534935.8694   23534934.1114
      2518.7614
  -8967170.64549  -7831413.83645  21882342.8614   21882340.1704
      -289.6724
 -12785304.95349  -9951114.75846  21262470.4084   21262468.8544
       533.8804
  14041375.26648  10933576.76244  22902957.3694   22902955.5924
     -2913.2204
 -11832899.77749  -9210168.37545  21891152.9944   21891151.3614
      1271.8624
 04  9  1 16 35 30.0020000  0  5G20G11G25G14G 1
  -5361331.85547  -4171070.74243  23527749.7054   23527747.5144
      2517.4904
  -8962687.02749  -7827920.11745  21883196.3544   21883193.6154
      -298.9084
 -12793180.55549  -9957251.58646  21260971.9244   21260970.5724
       525.0404
  14085100.61748  10967648.43444  22911278.2054   22911275.4554
     -2915.0234
 -11851905.44149  -9224977.95346  21887535.9474   21887534.5024
      1267.0444
 04  9  1 16 35 45.0020000  0  5G20G11G25G14G 1
  -5399075.26246  -4200481.17642  23520567.1434   23520565.2524
      2516.2274
  -8958065.31249  -7824318.78145  21884076.0334   21884073.7054
      -308.1144
 -12800923.65649  -9963285.16846  21259498.3384   21259496.8504
       516.2074
  14128852.67648  11001740.94944  22919604.1824   22919601.1704
     -2916.8044
 -11870838.93049  -9239731.32446  21883932.9714   21883931.9284
      1262.2334
 04  9  1 16 36  0.0020000  0  5G20G11G25G14G 1
  -5436800.51247  -4229877.43443  23513388.6274   23513386.5844
      2515.0174
  -8953306.55949  -7820610.68445  21884981.5644   21884978.8544
      -317.2504
 -12808535.22749  -9969216.25446  21258050.0254   21258048.2714
       507.4384
  14172630.49248  11035853.51244  22927934.0804   22927932.6894
     -2918.5214
 -11889701.27349  -9254429.24246  21880343.4554   21880342.6074
      1257.4904
 04  9  1 16 36 15.0020000  0  5G20G11G25G14G 1
  -5474507.81647  -4259259.73843  23506213.0644   23506210.9674
      2513.8204
  -8948411.05149  -7816796.00845  21885912.8464   21885910.2484
      -326.3674
 -12816015.69549  -9975045.19546  21256626.8304   21256624.5964
       498.6984
  14216433.36748  11069985.61344  22936270.0414   22936268.4514
     -2920.1924
 -11908492.85249  -9269072.01646  21876767.8144   21876766.3544
      1252.7724
 04  9  1 16 36 30.0020000  0  6G20G11G25G14G23G 1
  -5512197.43046  -4288628.27343  23499040.6824   23499040.1664
      2512.6414
  -8943379.15249  -7812875.05945  21886870.2914   21886867.6354
      -335.4604
 -12823365.37549  -9980772.20346  21255227.9554   21255226.2174
       489.9794
  14260260.70748  11104136.75843  22944610.0254   22944608.4754
     -2921.8234
   -116150.01257    -79103.21552  24658686.7604   24658684.0964

 -11927214.10249  -9283660.00845  21873205.2834   21873203.5804
      1248.0834
 04  9  1 16 36 45.0020000  0  6G20G11G25G14G23G 1
  -5549869.37147  -4317983.00043  23491872.1664   23491871.2684
      2511.4634
  -8938211.05949  -7808847.97746  21887854.2134   21887851.2714
      -344.5404
 -12830584.36749  -9986397.38346  21253854.3934   21253852.4244
       481.2664
  14304112.25848  11138306.78144  22952954.1894   22952952.7794
     -2923.4374
   -154395.46547   -108904.81642  24651409.4084   24651406.7094
      2549.6974
 -11945865.19949  -9298193.30545  21869655.6824   21869654.8304
      1243.4074
 04  9  1 16 37  0.0020000  0  6G20G11G25G14G23G 1
  -5587524.62147  -4347324.71543  23484706.5574   23484704.9554
      2510.3504
  -8932907.96549  -7804715.70345  21888862.8934   21888860.5724
      -353.5404
 -12837673.77349  -9991921.59047  21252505.5334   21252503.0724
       472.6274
  14347986.48848  11172494.48843  22961303.6824   22961301.6234
     -2924.9494
   -192610.75447   -138682.92643  24644136.2604   24644136.0184
      2547.6864
 -11964447.43049  -9312672.94545  21866119.9084   21866119.1894
      1238.8154
 04  9  1 16 37 15.0020000  0  6G20G11G25G14G23G 1
  -5625162.32847  -4376652.79743  23477544.5574   23477542.3384
      2509.1804
  -8927469.19149  -7800477.69945  21889898.3144   21889895.7794
      -362.5854
 -12844632.80949  -9997344.20746  21251181.0644   21251179.0964
       463.9364
  14391884.12148  11206700.43443  22969656.9794   22969655.2294
     -2926.5094
   -230795.27346   -168437.10542  24636870.6434   24636869.5214
      2545.6354
 -11982960.06649  -9327098.37145  21862597.0104   21862596.1194
      1234.1764
 04  9  1 16 37 30.0020000  0  6G20G11G25G14G23G 1
  -5662783.18047  -4405967.73843  23470385.0884   23470384.2484
      2508.0574
  -8921895.62949  -7796134.67246  21890958.7364   21890956.4824
      -371.5714
 -12851462.39549 -10002665.95347  21249881.1664   21249879.6584
       455.3064
  14435804.07048  11240923.74643  22978014.9474   22978012.9284
     -2927.9974
   -268949.71147   -198167.80542  24629609.6114   24629608.6504
      2543.6294
 -12001403.99249  -9341470.25445  21859087.6044   21859085.6274
      1229.5954
 04  9  1 16 37 45.0020000  0  6G20G11G25G14G23G 1
  -5700386.46947  -4435269.00043  23463229.6744   23463227.8544
      2506.8864
  -8916186.76249  -7791686.21545  21892045.1894   21892042.9244
      -380.5914
 -12858161.69949 -10007886.18047  21248606.1894   21248604.8574
       446.6204
  14479746.70748  11275164.75043  22986376.7134   22986374.9554
     -2929.5094
   -307073.34846   -227874.48842  24622353.8144   24622353.7294
      2541.5764
 -12019778.69149  -9355788.19545  21855590.6504   21855589.6664
      1224.9804
 04  9  1 16 38  0.0020000  0  6G20G11G25G14G23G 1
  -5737971.85247  -4464556.30143  23456077.2914   23456075.9714
      2505.6924
  -8910342.36349  -7787132.15245  21893157.3774   21893154.9514
      -389.6274
 -12864730.64849 -10013004.84847  21247356.2834   21247354.6194
       437.9304
  14523712.12148  11309423.50043  22994742.9324   22994741.4004
     -2931.0284
   -345165.98447   -257557.08242  24615107.6194   24615103.9634
      2539.5094
 -12038083.94149  -9370052.01246  21852107.1194   21852106.5184
      1220.3504
 04  9  1 16 38 15.0020000  0  6G20G11G25G14G23G 1
  -5775538.82047  -4493829.25443  23448928.4394   23448926.9044
      2504.4654
  -8904362.12549  -7782472.22346  21894295.3074   21894292.7644
      -398.6834
 -12871168.76649 -10018021.55146  21246131.4244   21246129.3574
       429.2084
  14567700.47348  11343700.12544  23003114.0804   23003111.7364
     -2932.5574
   -383227.44546   -287215.30942  24607862.5644   24607860.9754
      2537.4314
 -12056319.45749  -9384261.48846  21848637.4554   21848636.5764
      1215.7014
 04  9  1 16 38 30.0020000  0  6G20G11G25G14G23G 1
  -5813088.46147  -4523088.71943  23441782.9944   23441781.8264
      2503.3094
  -8898247.32449  -7777707.44945  21895459.0334   21895456.4514
      -407.6534
 -12877477.27049 -10022937.27346  21244930.9394   21244928.7294
       420.5674
  14611710.47348  11377993.62943  23011488.5884   23011486.9714
     -2934.0004
   -421258.73846   -316850.06642  24600626.6274   24600624.2684
      2535.4204
 -12074486.48449  -9398417.60246  21845179.7684   21845179.5644
      1211.1354
 04  9  1 16 38 45.0020000  0  6G20G11G25G14G23G 1
  -5850618.71147  -4552333.05143  23434641.6274   23434638.7324
      2502.0174
  -8891996.04349  -7772836.32445  21896648.7914   21896646.2484
      -416.7524
 -12883654.27349 -10027750.52046  21243755.1194   21243753.2364
       411.8004
  14655743.75048  11412305.25043  23019867.7054   23019866.2914
     -2935.5524
   -459258.02745   -346459.87142  24593394.1044   24593392.8034
      2533.2864
 -12092583.16049  -9412518.89546  21841736.4164   21841735.3424
      1206.4454
 04  9  1 16 39  0.0020000  0  6G20G11G25G14G23G 1
  -5888129.09047  -4581561.89543  23427503.9394   23427500.2254
      2500.6924
  -8885607.92249  -7767858.57046  21897864.2834   21897862.1434
      -425.8754
 -12889699.39549 -10032460.99247  21242604.6974   21242603.0574
       403.0084
  14699800.47748  11446635.14843  23028251.3464   23028249.8424
     -2937.1154
   -497224.82045   -376044.35542  24586170.7604   24586167.4674
      2531.1204
 -12110609.14549  -9426565.10246  21838306.0964   21838305.1354
      1201.7324
 04  9  1 16 39 15.0020000  0  6G20G11G25G14G23G 1
  -5925619.31247  -4610775.05142  23420368.9794   23420365.3694
      2499.3484
  -8879083.06249  -7762774.27745  21899105.8144   21899103.0924
      -434.9914
 -12895612.53949 -10037068.62947  21241479.7054   21241477.9634
       394.2104
  14743880.29348  11480983.05144  23036639.9394   23036638.2914
     -2938.6544
   -535159.09845   -405603.48842  24578951.4324   24578949.1194
      2528.9524
 -12128564.50049  -9440556.27746  21834889.2214   21834888.3184
      1197.0244
 04  9  1 16 39 30.0020000  0  6G20G11G25G14G23G 1
  -5963090.48447  -4639973.38343  23413238.5644   23413235.8464
      2498.0784
  -8872422.76649  -7757584.44945  21900373.0644   21900370.7954
      -444.0204
 -12901395.09449 -10041574.50846  21240379.3384   21240377.6864
       385.5044
  14787982.06348  11515348.05144  23045032.4164   23045029.8034
     -2940.1184
   -573062.02045   -435138.22742  24571738.4084   24571736.0214
      2526.8614
 -12146450.50849  -9454493.40646  21831485.4634   21831484.5764
      1192.4014
 04  9  1 16 39 45.0020000  0  6G20G11G25G14G23G 1
  -6000542.25848  -4669156.56243  23406111.7754   23406110.5144
      2496.7854
  -8865626.71149  -7752288.82845  21901666.1664   21901664.4244
      -453.0704
 -12907046.63749 -10045978.30147  21239303.6274   21239302.2524
       376.7704
  14832105.79348  11549730.14543  23053428.5804   23053426.5454
     -2941.5824
   -610933.25045   -464648.22342  24564531.2134   24564528.4794
      2524.7494
 -12164266.91849  -9468376.32046  21828095.5414   21828094.3814
      1187.7614
 04  9  1 16 40  0.0020000  0  6G20G11G25G14G23G 1
  -6037973.71948  -4698323.91443  23398989.2444   23398986.7714
      2495.4314
  -8858694.25849  -7746886.92245  21902985.6044   21902983.5454
      -462.1644
 -12912566.48449 -10050279.46946  21238253.5574   21238251.5534
       367.9904
  14876252.08648  11584129.85244  23061829.4714   23061827.0104
     -2943.0864
   -648771.95346   -494132.89142  24557331.7294   24557328.3894
      2522.5804
 -12182013.05949  -9482204.44946  21824718.4944   21824717.2294
      1183.0764
 04  9  1 16 40 15.0020000  0  6G20G11G25G14G23G 1
  -6075385.80948  -4727476.16443  23391869.7754   23391866.7794
      2494.1394
  -8851626.72349  -7741379.75446  21904330.2364   21904328.5684
      -471.1694
 -12917955.57449 -10054478.75446  21237227.8144   21237226.3774
       359.2734
  14920419.73048  11618546.18044  23070234.1824   23070232.6704
     -2944.5104
   -686579.23446   -523593.08242  24550137.1584   24550134.0214
      2520.4854
 -12199690.01249  -9495978.69146  21821354.7914   21821353.4044
      1178.4644
 04  9  1 16 40 30.0020000  0  6G20G11G25G14G23G 1
  -6112778.33648  -4756613.18043  23384754.4474   23384751.2914
      2492.8354
  -8844423.90248  -7735767.18045  21905700.7134   21905699.0214
      -480.1884
 -12923213.94549 -10058576.18746  21236227.4864   21236225.2644
       350.5584
  14964608.51248  11652978.98444  23078643.1824   23078641.7484
     -2945.9194
   -724355.09446   -553028.81642  24542948.1744   24542945.8574
      2518.3914
 -12217297.82049  -9509699.04746  21818003.9944   21818003.0374
      1173.8544
 04  9  1 16 40 45.0020000  0  6G20G11G25G14G23G 1
  -6150149.92248  -4785733.90243  23377642.8934   23377639.6114
      2491.4394
  -8837084.65649  -7730048.29345  21907097.2604   21907095.9044
      -489.2834
 -12928340.29749 -10062570.73046  21235251.8074   21235249.9324
       341.7574
  15008819.41048  11687429.02043  23087056.3774   23087054.5214
     -2947.3934
   -762098.23847   -582439.03942  24535767.2054   24535763.9944
      2516.2104
 -12234835.34449  -9523364.63346  21814666.4394   21814665.3264
      1169.1684
 04  9  1 16 41  0.0020000  0  6G20G11G25G14G23G 1
  -6187500.27048  -4814838.10943  23370535.3614   23370532.8934
      2490.0234
  -8829609.02349  -7724223.13345  21908519.7914   21908517.6114
      -498.3764
 -12933334.53549 -10066462.34046  21234301.5184   21234299.8964
       332.9494
  15053052.47348  11721896.33244  23095473.5254   23095471.4284
     -2948.8714
   -799808.57447   -611823.67642  24528591.0574   24528587.9944
      2514.0224
 -12252302.52049  -9536975.41446  21811342.5414   21811341.6114
      1164.4784
 04  9  1 16 41 15.0020000  0  6G20G11G25G14G23G 1
  -6224830.42248  -4843926.54743  23363431.2134   23363430.4594
      2488.6774
  -8821998.21149  -7718292.64145  21909968.6114   21909966.5964
      -507.3874
 -12938197.64549 -10070251.77347  21233376.2214   21233374.5294
       324.2074
  15097306.37548  11756379.86743  23103894.6664   23103892.3544
     -2950.2604
   -837487.13347   -641183.55142  24521420.6894   24521417.7254
      2511.9044
 -12269700.45749  -9550532.22746  21808032.0254   21808031.0144
      1159.8634
 04  9  1 16 41 30.0020000  0  6G20G11G25G14G23G 1
  -6262139.80948  -4872998.75043  23356331.0494   23356330.1314
      2487.2924
  -8814251.69149  -7712256.39546  21911442.5884   21911440.2094
      -516.4354
 -12942929.26649 -10073938.74247  21232475.6584   21232473.4824
       315.4414
  15141581.27748  11790879.76244  23112319.7604   23112317.9244
     -2951.6604
   -875133.45746   -670518.31642  24514256.5574   24514253.1864
      2509.7554
 -12287028.82049  -9564034.84046  21804734.4084   21804733.1234
      1155.2244
 04  9  1 16 41 45.0020000  0  6G20G11G25G14G23G 1
  -6299428.09448  -4902054.52043  23349235.5884   23349233.8614
      2485.8864
  -8806369.45749  -7706114.39146  21912942.8854   21912940.4394
      -525.4824
 -12947529.21149 -10077523.10547  21231599.9084   21231598.3934
       306.6634
  15185877.27748  11825396.11744  23120748.9474   23120747.4084
     -2953.0674
   -912747.33246   -699827.82842  24507099.2054   24507096.0924
      2507.5924
 -12304287.49249  -9577483.14545  21801450.3694   21801449.2364
      1150.5784
 04  9  1 16 42  0.0020000  0  6G20G11G25G14G23G 1
  -6336693.36347  -4931092.37543  23342144.5024   23342142.1974
      2484.3514
  -8798349.75049  -7699865.29746  21914468.6894   21914466.1434
      -534.6474
 -12951995.89849 -10081003.62546  21230749.9944   21230748.3504
       297.7794
  15230195.82848  11859930.02344  23129183.0254   23129180.8034
     -2954.5704
   -950327.10246   -729110.74242  24499947.1664   24499946.0104
      2505.3184
 -12321474.89149  -9590875.92646  21798179.6974   21798178.8774
      1145.8274
 04  9  1 16 42 15.0020000  0  6G20G11G25G14G23G 1
  -6373936.23047  -4960112.77343  23335057.3304   23335054.7644
      2482.8584
  -8790193.55549  -7693509.82445  21916020.8854   21916018.3854
      -543.7464
 -12956329.95749 -10084380.80946  21229925.6824   21229923.9634
       288.9374
  15274536.01648  11894480.80944  23137620.7294   23137618.3114
     -2956.0124
   -987873.42246   -758367.59842  24492801.7834   24492800.9754
      2503.0884
 -12338591.76649  -9604213.73046  21794922.3304   21794921.6744
      1141.1254
 04  9  1 16 42 30.0020000  0  6G20G11G25G14G23G 1
  -6411157.42247  -4989116.28943  23327974.2134   23327972.5374
      2481.4134
  -8781901.79349  -7687048.71946  21917598.7054   21917596.5764
      -552.7844
 -12960532.39849 -10087655.42647  21229125.9864   21229124.0724
       280.1634
  15318896.85948  11929047.69144  23146062.1194   23146059.8544
     -2957.3904
  -1025387.09046   -787598.97742  24485664.0644   24485661.4514
      2500.9114
 -12355638.97349  -9617497.26646  21791678.1974   21791677.8544
      1136.4804
 04  9  1 16 42 45.0020000  0  6G20G11G25G14G23G 1
  -6448356.91447  -5018102.89843  23320895.1974   23320894.0844
      2479.9664
  -8773474.55949  -7680482.05546  21919202.2914   21919200.2874
      -561.8164
 -12964603.21149 -10090827.48847  21228350.8614   21228349.5644
       271.3884
  15363278.10548  11963630.46543  23154507.5644   23154504.9044
     -2958.7504
  -1062868.27347   -816805.07042  24478532.0334   24478529.1664
      2498.7464
 -12372616.66849  -9630726.63345  21788447.5804   21788446.1354
      1131.8464
 04  9  1 16 43  0.0020000  0  6G20G11G25G14G23G 1
  -6485534.82048  -5047072.68043  23313821.5334   23313818.5184
      2478.5274
  -8764912.20749  -7673810.10945  21920831.6044   21920829.3694
      -570.8234
 -12968542.67249 -10093897.19546  21227601.3544   21227599.7254
       262.6314
  15407679.33648  11998228.82043  23162957.1664   23162953.7754
     -2960.0824
  -1100317.10247   -845985.95342  24471406.3774   24471402.1194
      2496.5894
 -12389525.25849  -9643902.14846  21785230.2054   21785228.6934
      1127.2394
 04  9  1 16 43 15.0020000  0  6G20G11G25G14G23G 1
  -6522690.30948  -5076025.01243  23306750.6894   23306748.4164
      2477.0334
  -8756214.19949  -7667032.44545  21922487.0644   21922484.4474
      -579.8674
 -12972350.39149 -10096864.23846  21226876.9324   21226874.9284
       253.8484
  15452100.84448  12032842.96143  23171409.7134   23171407.4824
     -2961.4344
  -1137733.05146   -875141.21942  24464285.2994   24464282.2834
      2494.3974
 -12406364.21149  -9657023.39546  21782025.9474   21782024.5104
      1122.5974
 04  9  1 16 43 30.0020000  0  6G20G11G25G14G23G 1
  -6559823.11348  -5104959.66843  23299684.0724   23299682.0214
      2475.5204
  -8747380.50049  -7660149.04745  21924167.9164   21924165.2684
      -588.9134
 -12976026.04749 -10099728.37946  21226177.2604   21226175.1544
       245.0444
  15496542.55548  12067472.85543  23179867.1824   23179864.5724
     -2962.7814
  -1175115.85947   -904270.65642  24457172.1744   24457169.7174
      2492.1874
 -12423133.36349  -9670090.25046  21778834.7754   21778833.1314
      1117.9434
 04  9  1 16 43 45.0020000  0  6G20G11G25G14G23G 1
  -6596932.16848  -5133875.82044  23292623.1194   23292620.3574
      2473.9374
  -8738410.21149  -7653159.21145  21925875.1504   21925872.4204
      -598.0194
 -12979568.69149 -10102488.87147  21225503.1194   21225501.1544
       236.1764
  15541005.30948  12102119.15243  23188327.4244   23188325.8224
     -2964.1844
  -1212464.51247   -933373.48843  24450065.0644   24450062.8694
      2489.9104
 -12439831.81649  -9683102.02746  21775657.0184   21775655.6504
      1113.2304
 04  9  1 16 44  0.0020000  0  6G20G11G25G14G23G 1
  -6634017.26248  -5162773.26644  23285565.2524   23285563.4394
      2472.3404
  -8729303.22749  -7646062.86745  21927608.1744   21927605.7794
      -607.1324
 -12982978.28949 -10105145.70346  21224854.6974   21224852.3544
       227.3074
  15585489.07848  12136781.80543  23196792.8934   23196789.7644
     -2965.5854
  -1249778.99247   -962449.67643  24442964.2054   24442961.9324
      2487.6324
 -12456459.56649  -9696058.71146  21772493.0964   21772492.0024
      1108.5174
 04  9  1 16 44 15.0020000  0  6G20G11G25G14G23G 1
  -6671079.56248  -5191652.96944  23278512.2754   23278510.7994
      2470.8204
  -8720060.97749  -7638861.12945  21929366.5884   21929363.7094
      -616.1504
 -12986256.21949 -10107699.93046  21224230.5724   21224228.6394
       218.5294
  15629992.30548  12171459.64143  23205261.7914   23205258.6824
     -2966.8824
  -1287060.60548   -991500.23443  24435869.8694   24435865.9864
      2485.4414
 -12473017.88349  -9708961.27346  21769342.3224   21769340.8734
      1103.8884
 04  9  1 16 44 30.0020000  0  6G20G11G25G14G23G 1
  -6708119.12548  -5220514.95344  23271464.7524   23271462.7094
      2469.3044
  -8710683.84049  -7631554.27745  21931150.9164   21931148.7994
      -625.1424
 -12989402.41449 -10110151.50846  21223632.0494   21223630.1584
       209.7464
  15674514.73848  12206152.42643  23213733.8694   23213731.7214
     -2968.1624
  -1324309.44948  -1020525.26642  24428781.1744   24428778.7174
      2483.2564
 -12489507.09449  -9721810.00046  21766203.9794   21766202.5724
      1099.2814
 04  9  1 16 44 45.0020000  0  6G20G11G25G14G23G 1
  -6745134.19948  -5249357.87544  23264421.1824   23264418.9394
      2467.6724
  -8701170.29349  -7624141.13746  21932961.3854   21932959.7364
      -634.2364
 -12992415.51649 -10112499.36746  21223058.4394   21223057.2214
       200.8734
  15719057.62148  12240861.14843  23222210.0574   23222207.7484
     -2969.5264
  -1361523.95347  -1049523.59443  24421700.2214   24421697.6234
      2480.9674
 -12505925.71949  -9734603.71946  21763079.5334   21763077.7794
      1094.5754
 04  9  1 16 45  0.0020000  0  6G20G11G25G14G23G 1
  -6782125.10248  -5278181.94143  23257381.2604   23257378.8964
      2466.0604
  -8691520.94949  -7616622.19145  21934797.6894   21934795.4394
      -643.2904
 -12995296.16449 -10114744.02747  21222510.4634   21222508.7874
       192.0434
  15763620.39847  12275585.38743  23230690.1194   23230687.9244
     -2970.8524
  -1398704.62547  -1078495.53542  24414624.1894   24414621.4794
      2478.7114
 -12522274.33249  -9747342.89146  21759968.7134   21759967.5214
      1089.9084
 04  9  1 16 45 15.0020000  0  6G20G11G25G14G23G 1
  -6819091.09848  -5306986.60243  23250346.8934   23250344.3964
      2464.4004
  -8681735.36749  -7608997.06645  21936660.1434   21936657.6234
      -652.3724
 -12998043.68749 -10116884.94946  21221987.4394   21221985.6314
       183.1684
  15808203.40648  12310325.36343  23239174.1044   23239172.0374
     -2972.2014
  -1435850.93447  -1107440.67642  24407555.1274   24407551.7294
      2476.4214
 -12538552.46949  -9760027.14546  21756871.0254   21756870.1624
      1085.2094
 04  9  1 16 45 30.0020000  0  6G20G11G25G14G23G 1
  -6856031.41048  -5335771.22744  23243317.6504   23243315.3304
      2462.6884
  -8671813.03149  -7601265.37545  21938548.0414   21938545.4394
      -661.4894
 -13000657.43749 -10118921.63346  21221490.1584   21221488.5024
       174.2504
  15852807.06348  12345081.44543  23247662.3144   23247659.4864
     -2973.5774
  -1472962.14147  -1136358.47742  24400493.1664   24400490.5534
      2474.0804
 -12554759.53549  -9772656.01246  21753786.6434   21753785.9634
      1080.4714
 04  9  1 16 45 45.0020000  0  6G20G11G25G14G23G 1
  -6892949.32448  -5364538.41443  23236292.5254   23236290.0144
      2461.1944
  -8661757.34049  -7593429.79345  21940461.6894   21940459.0644
      -670.3794
 -13003141.08249 -10120856.93446  21221017.4794   21221015.5184
       165.5764
  15897427.73847  12379850.77743  23256152.8774   23256150.7834
     -2974.7124
  -1510041.72348  -1165251.62543  24393438.0184   24393434.7754
      2471.9724
 -12570899.01649  -9785232.22346  21750715.4794   21750714.4824
      1075.9654
 04  9  1 16 46  0.0020000  0  6G20G11G25G14G23G 1
  -6929842.34848  -5393286.21143  23229271.5644   23229269.6704
      2459.5354
  -8651566.00449  -7585488.50446  21942401.2994   21942398.7914
      -679.4224
 -13005492.06249 -10122688.85947  21220570.2444   21220568.0644
       156.7324
  15942067.82848  12414635.25044  23264647.6664   23264645.4634
     -2976.0064
  -1547087.12947  -1194118.14143  24386387.3074   24386386.2684
      2469.6944
 -12586968.52349  -9797753.90646  21747657.6354   21747656.6744
      1071.3014
 04  9  1 16 46 15.0020000  0  6G20G11G25G14G23G 1
  -6966710.49648  -5422014.62143  23222255.4944   23222253.4794
      2457.8774
  -8641239.34049  -7577441.75846  21944365.9714   21944364.3734
      -688.4444
 -13007710.54349 -10124417.53147  21220148.3544   21220146.1314
       147.8994
  15986726.86747  12449434.48043  23273145.9244   23273144.1234
     -2977.2694
  -1584098.55147  -1222958.19142  24379345.0414   24379342.9554
      2467.4284
 -12602968.35249  -9810221.29746  21744612.9324   21744611.7524
      1066.6554
 04  9  1 16 46 30.0020000  0  6G20G11G25G14G23G 1
  -7003553.88748  -5450723.75843  23215245.3074   23215241.9044
      2456.2264
  -8630777.77049  -7569289.89146  21946356.8074   21946354.7014
      -697.4384
 -13009796.94549 -10126043.29347  21219751.0414   21219749.4364
       139.0934
  16031404.23447  12484248.00043  23281647.9324   23281645.3424
     -2978.4914
  -1621076.45747  -1251772.11743  24372307.8464   24372306.1394
      2465.1944
 -12618898.94948  -9822634.74246  21741581.2214   21741579.9284
      1062.0404
 04  9  1 16 46 45.0020000  0  6G20G11G25G14G23G 1
  -7040371.29748  -5479412.66044  23208238.6434   23208236.1114
      2454.4944
  -8620180.29349  -7561032.12146  21948373.2054   21948371.3464
      -706.4984
 -13011750.19949 -10127565.30947  21219378.9944   21219377.5764
       130.2174
  16076101.07047  12519076.67643  23290153.9084   23290151.2014
     -2979.7894
  -1658019.60947  -1280558.95743  24365277.5724   24365275.8894
      2462.8774
 -12634759.25848  -9834993.41446  21738563.5104   21738561.5644
      1057.3544
 04  9  1 16 47  0.0020000  0  6G20G11G25G14G23G 1
  -7077162.47748  -5508081.13343  23201237.5024   23201235.9944
      2452.7454
  -8609446.86749  -7552668.43045  21950415.8854   21950413.8694
      -715.5624
 -13013570.04749 -10128983.35547  21219032.6974   21219031.2564
       121.3234
  16120817.28147  12553920.45743  23298663.1044   23298660.7794
     -2981.0814
  -1694927.87148  -1309318.60943  24358254.7524   24358253.3504
      2460.5514
 -12650549.14848  -9847297.22746  21735558.2994   21735557.6154
      1052.6594
 04  9  1 16 47 15.0020000  0  6G20G11G25G14G23G 1
  -7113928.23448  -5536729.77043  23194240.6584   23194239.4434
      2451.0514
  -8598578.57449  -7544199.65245  21952484.2054   21952482.4394
      -724.5534
 -13015257.61749 -10130298.35246  21218711.8224   21218709.7604
       112.5054
  16165551.54747  12588778.32443  23307175.4944   23307173.8034
     -2982.2844
  -1731802.17247  -1338051.79343  24351237.0574   24351235.4474
      2458.2874
 -12666269.66049  -9859546.95746  21732566.8614   21732566.1504
      1048.0344
 04  9  1 16 47 30.0020000  0  6G20G11G25G14G23G 1
  -7150669.09048  -5565358.97343  23187249.4634   23187248.2094
      2449.3904
  -8587576.21549  -7535626.38346  21954578.2524   21954575.4754
      -733.4914
 -13016813.75049 -10131510.91847  21218415.8464   21218413.6314
       103.7424
  16210303.25447  12623649.73443  23315691.6114   23315689.6664
     -2983.4474
  -1768643.19947  -1366759.05943  24344227.0414   24344224.8034
      2456.0684
 -12681921.57048  -9871743.24246  21729588.6354   21729587.7134
      1043.4614
 04  9  1 16 47 45.0020000  0  6G20G11G25G14G23G 1
  -7187383.53148  -5593967.62543  23180262.8614   23180261.0844
      2447.6294
  -8576438.59049  -7526947.73045  21956697.3074   21956694.5804
      -742.5084
 -13018237.12549 -10132620.03947  21218144.7524   21218143.2094
        94.8924
  16255073.33247  12658535.50843  23324210.9244   23324208.5724
     -2984.6724
  -1805449.68447  -1395439.40243  24337222.7994   24337221.6354
      2453.7664
 -12697503.59848  -9883885.06246  21726623.6044   21726622.1934
      1038.8024
 04  9  1 16 48  0.0020000  0  6G20G11G25G14G23G 1
  -7224072.41048  -5622556.35243  23173280.7834   23173279.2174
      2445.9254
  -8565166.64549  -7518164.41445  21958842.3854   21958839.7834
      -751.4634
 -13019528.67249 -10133626.42646  21217899.0884   21217897.4714
        86.1034
  16299860.78547  12693434.82043  23332733.8384   23332731.9634
     -2985.8304
  -1842222.38747  -1424093.44143  24330224.8854   24330223.2644
      2451.5144
 -12713016.69548  -9895973.19546  21723671.5724   21723670.4944
      1034.2074
 04  9  1 16 48 15.0020000  0  6G20G11G25G14G23G 1
  -7260735.25048  -5651124.77343  23166304.4474   23166302.5764
      2444.1894
  -8553760.23449  -7509276.30545  21961012.8304   21961010.7994
      -760.4274
 -13020688.10549 -10134529.87147  21217678.1664   21217676.8774
        77.2964
  16344665.70747  12728347.71543  23341259.1744   23341258.0334
     -2986.9954
  -1878961.14847  -1452721.00842  24323233.8934   24323231.8504
      2449.2514
 -12728460.78549  -9908007.53546  21720732.6354   21720731.6504
      1029.6064
 04  9  1 16 48 30.0020000  0  6G20G11G25G14G23G 1
  -7297371.43748  -5679672.43043  23159332.9324   23159331.6044
      2442.4134
  -8542218.99649  -7500283.13345  21963208.9394   21963206.6664
      -769.4164
 -13021714.90249 -10135329.98047  21217482.8694   21217481.6314
        68.4534
  16389488.41047  12763274.47743  23349789.1824   23349788.0614
     -2988.1804
  -1915665.33647  -1481321.62143  24316249.7214   24316247.5804
      2446.9464
 -12743835.41048  -9919987.75446  21717806.6504   21717805.7644
      1024.9754
 04  9  1 16 48 45.0020000  0  6G20G11G25G14G23G 1
  -7333980.62948  -5708199.03544  23152366.4794   23152365.3424
      2440.6134
  -8530542.90249  -7491184.89545  21965431.0104   21965428.1664
      -778.4064
 -13022609.21949 -10136026.84047  21217312.6354   21217311.2134
        59.6214
  16434328.87547  12798215.08243  23358322.0804   23358320.5214
     -2989.3644
  -1952334.89147  -1509895.24643  24309271.4394   24309269.4634
      2444.6374
 -12759140.44949  -9931913.73846  21714894.4084   21714893.4204
      1020.3364
 04  9  1 16 49  0.0020000  0  6G20G11G25G14G23G 1
  -7370561.41448  -5736703.54744  23145405.4164   23145404.3574
      2438.7194
  -8518730.89849  -7481980.74245  21967678.1584   21967676.4514
      -787.4674
 -13023369.65649 -10136619.37547  21217168.0024   21217166.4944
        50.6964
  16479188.20747  12833170.38743  23366858.7364   23366856.7174
     -2990.6224
  -1988968.56247  -1538440.91842  24302300.2684   24302297.9674
      2442.2454
 -12774374.78149  -9943784.64546  21711995.6194   21711994.3734
      1015.6224
